[[{"header":{"parameterUnit":"m.s-1","parameterCategory":1,"la1":30.6,"la2":29.2853,"lo1":-89.7004,"lo2":-87.6739,"dy":0.0162,"dx":0.0183,"nx":112,"ny":82,"refTime":"2023-11-19T06:00:00:Z","depth":0,"parameterNumber":2,"parameterNumberName":"U-component_of_WINDS"},"data":[0.0,0.0,0.0,0.0,0.0,0.0,0.0,0.0,0.0,0.0,0.0,0.0,0.0,0.0,0.0,0.0,0.0,0.0,0.0,0.0,0.0,0.0,0.0,0.0,0.0,0.0,0.0,0.0,0.0,0.0,0.0,0.0,0.0,0.0,0.0,0.0,0.0,0.0,0.0,0.0,0.0,0.0,0.0,0.0,0.0,0.0,0.0,0.0,0.0,0.0,0.0,0.0,0.0,0.0,0.0,0.0,0.0,0.0,0.0,0.0,0.0,0.0,0.0,0.0,0.0,0.0,0.0,0.0,0.0,0.0,0.0,0.0,0.0,0.0,0.0,0.0,0.0,0.0,0.0,0.0,0.0,0.0,0.0,0.0,0.0,0.0,0.0,0.0,0.0,0.0,2.2472,2.2849,2.1865,2.0538,1.8935,1.7502,1.6756,1.6923,0.0,0.0,0.0,0.0,0.0,0.0,0.0,0.0,0.0,0.0,0.0,0.0,0.0,0.0,0.0,0.0,0.0,0.0,0.0,0.0,0.0,0.0,0.0,0.0,0.0,0.0,0.0,0.0,0.0,0.0,0.0,0.0,0.0,0.0,0.0,0.0,0.0,0.0,0.0,0.0,0.0,0.0,0.0,0.0,0.0,0.0,0.0,0.0,0.0,0.0,0.0,0.0,0.0,0.0,0.0,0.0,0.0,0.0,0.0,0.0,0.0,0.0,0.0,0.0,0.0,0.0,0.0,0.0,0.0,0.0,0.0,0.0,0.0,0.0,0.0,0.0,0.0,0.0,0.0,0.0,0.0,0.0,0.0,0.0,0.0,0.0,0.0,0.0,0.0,0.0,0.0,0.0,0.0,0.0,0.0,0.0,0.0,0.0,0.0,0.0,0.0,0.0,0.0,0.0,2.1762,2.2275,2.2146,2.0909,1.8136,1.7661,1.6873,1.5363,0.0,0.0,0.0,0.0,0.0,0.0,0.0,0.0,0.0,0.0,0.0,0.0,0.0,0.0,0.0,0.0,0.0,0.0,0.0,0.0,0.0,0.0,0.0,0.0,0.0,0.0,0.0,0.0,0.0,0.0,0.0,0.0,0.0,0.0,0.0,0.0,0.0,0.0,0.0,0.0,0.0,0.0,0.0,0.0,0.0,0.0,0.0,0.0,0.0,0.0,0.0,0.0,0.0,0.0,0.0,0.0,0.0,0.0,0.0,0.0,0.0,0.0,0.0,0.0,0.0,0.0,0.0,0.0,0.0,0.0,0.0,0.0,0.0,0.0,0.0,0.0,0.0,0.0,0.0,0.0,0.0,0.0,0.0,0.0,0.0,0.0,0.0,0.0,0.0,0.0,0.0,0.0,0.0,0.0,0.0,0.0,0.0,0.0,0.0,0.0,0.0,0.0,0.0,2.2133,2.2917,2.2908,2.2488,2.135,1.9289,1.8236,1.7459,1.6882,1.6635,0.0,0.0,0.0,0.0,0.0,0.0,0.0,0.0,0.0,0.0,0.0,0.0,0.0,0.0,0.0,0.0,0.0,0.0,0.0,0.0,0.0,0.0,0.0,0.0,0.0,0.0,0.0,0.0,0.0,0.0,0.0,0.0,0.0,0.0,0.0,0.0,0.0,0.0,0.0,0.0,0.0,0.0,0.0,0.0,0.0,0.0,0.0,0.0,0.0,0.0,0.0,0.0,0.0,0.0,0.0,0.0,0.0,0.0,0.0,0.0,0.0,0.0,0.0,0.0,0.0,0.0,0.0,0.0,0.0,0.0,0.0,0.0,0.0,0.0,0.0,0.0,0.0,0.0,0.0,0.0,0.0,0.0,0.0,0.0,0.0,0.0,0.0,0.0,0.0,0.0,0.0,0.0,0.0,0.0,0.0,0.0,0.0,0.0,0.0,0.0,0.0,0.0,2.3144,2.3838,2.3202,2.2545,2.1548,2.0076,1.8544,1.7805,1.8197,1.7146,0.0,0.0,0.0,0.0,0.0,0.0,0.0,0.0,0.0,0.0,0.0,0.0,0.0,0.0,0.0,0.0,0.0,0.0,0.0,0.0,0.0,0.0,0.0,0.0,0.0,0.0,0.0,0.0,0.0,0.0,0.0,0.0,0.0,0.0,0.0,0.0,0.0,0.0,0.0,0.0,0.0,0.0,0.0,0.0,0.0,0.0,0.0,0.0,0.0,0.0,0.0,0.0,0.0,0.0,0.0,0.0,0.0,0.0,0.0,0.0,0.0,0.0,0.0,0.0,0.0,0.0,0.0,0.0,0.0,0.0,0.0,0.0,0.0,0.0,0.0,0.0,0.0,0.0,0.0,0.0,0.0,0.0,0.0,0.0,0.0,0.0,0.0,0.0,0.0,0.0,0.0,0.0,0.0,0.0,0.0,0.0,0.0,0.0,0.0,0.0,0.0,0.0,2.2637,2.3328,2.2227,2.2047,2.1165,1.9088,1.8053,1.7486,1.7388,1.6839,0.0,0.0,0.0,0.0,0.0,0.0,0.0,0.0,0.0,0.0,0.0,0.0,0.0,0.0,0.0,0.0,0.0,0.0,0.0,0.0,0.0,0.0,0.0,0.0,0.0,0.0,0.0,0.0,0.0,0.0,0.0,0.0,0.0,0.0,0.0,0.0,0.0,0.0,0.0,0.0,0.0,0.0,0.0,0.0,0.0,0.0,0.0,0.0,0.0,0.0,0.0,0.0,0.0,0.0,0.0,0.0,0.0,0.0,0.0,0.0,0.0,0.0,0.0,0.0,0.0,0.0,0.0,0.0,0.0,0.0,0.0,0.0,0.0,0.0,0.0,0.0,0.0,0.0,0.0,0.0,0.0,0.0,0.0,0.0,0.0,0.0,0.0,0.0,0.0,0.0,0.0,0.0,0.0,0.0,0.0,0.0,0.0,0.0,0.0,0.0,0.0,0.0,2.2869,2.3262,0.0,2.2009,2.1296,1.9563,1.8164,1.776,1.8686,0.0,0.0,0.0,0.0,0.0,0.0,0.0,0.0,0.0,0.0,0.0,0.0,0.0,0.0,0.0,0.0,0.0,0.0,0.0,0.0,0.0,0.0,0.0,0.0,0.0,0.0,0.0,0.0,0.0,0.0,0.0,0.0,0.0,0.0,0.0,0.0,0.0,0.0,0.0,0.0,0.0,0.0,0.0,0.0,0.0,0.0,0.0,0.0,0.0,0.0,0.0,0.0,0.0,0.0,0.0,0.0,0.0,0.0,0.0,0.0,0.0,0.0,0.0,0.0,0.0,0.0,0.0,0.0,0.0,0.0,0.0,0.0,0.0,0.0,0.0,0.0,0.0,0.0,0.0,0.0,0.0,0.0,0.0,0.0,0.0,0.0,0.0,0.0,0.0,0.0,0.0,0.0,0.0,0.0,0.0,0.0,0.0,0.0,0.0,0.0,0.0,0.0,2.1791,2.2652,2.2811,0.0,2.1637,2.1042,1.9848,1.821,1.7873,1.9383,0.0,0.0,0.0,0.0,0.0,0.0,0.0,0.0,0.0,0.0,0.0,0.0,0.0,0.0,0.0,0.0,0.0,0.0,0.0,0.0,0.0,0.0,0.0,0.0,0.0,0.0,0.0,0.0,0.0,0.0,0.0,0.0,0.0,0.0,0.0,0.0,0.0,0.0,0.0,0.0,0.0,0.0,0.0,0.0,0.0,0.0,0.0,0.0,0.0,0.0,0.0,0.0,0.0,0.0,0.0,0.0,0.0,0.0,0.0,0.0,0.0,0.0,0.0,0.0,0.0,0.0,0.0,0.0,0.0,0.0,0.0,0.0,0.0,0.0,0.0,0.0,0.0,0.0,0.0,0.0,0.0,0.0,0.0,0.0,0.0,0.0,0.0,0.0,0.0,0.0,0.0,0.0,0.0,0.0,0.0,0.0,0.0,0.0,0.0,0.0,0.0,0.0,2.1421,2.1844,2.1815,2.1342,2.082,2.026,1.9647,1.8062,1.77,0.0,0.0,0.0,0.0,0.0,0.0,0.0,0.0,0.0,0.0,0.0,0.0,0.0,0.0,0.0,0.0,0.0,0.0,0.0,0.0,0.0,0.0,0.0,0.0,0.0,0.0,0.0,0.0,0.0,0.0,0.0,0.0,0.0,0.0,0.0,0.0,0.0,0.0,0.0,0.0,0.0,0.0,0.0,0.0,0.0,0.0,0.0,0.0,0.0,0.0,0.0,0.0,0.0,0.0,0.0,0.0,0.0,0.0,0.0,0.0,0.0,0.0,0.0,0.0,0.0,0.0,0.0,0.0,0.0,0.0,0.0,0.0,0.0,0.0,0.0,0.0,0.0,0.0,0.0,0.0,0.0,0.0,0.0,0.0,0.0,0.0,0.0,0.0,0.0,0.0,0.0,0.0,0.0,0.0,0.0,0.0,0.0,0.0,0.0,0.0,0.0,0.0,0.0,2.2186,2.2165,2.1815,2.1342,2.082,2.0205,1.945,1.7774,1.7402,1.8967,0.0,0.0,0.0,0.0,0.0,0.0,0.0,0.0,0.0,0.0,0.0,0.0,0.0,0.0,0.0,0.0,0.0,0.0,0.0,0.0,0.0,0.0,0.0,0.0,0.0,0.0,0.0,0.0,0.0,0.0,0.0,0.0,0.0,0.0,0.0,0.0,0.0,0.0,0.0,0.0,0.0,0.0,0.0,0.0,0.0,0.0,0.0,0.0,0.0,0.0,0.0,0.0,0.0,0.0,0.0,0.0,0.0,0.0,0.0,0.0,0.0,0.0,0.0,0.0,0.0,0.0,0.0,0.0,0.0,0.0,0.0,0.0,0.0,0.0,0.0,0.0,0.0,0.0,0.0,0.0,0.0,0.0,0.0,0.0,0.0,0.0,0.0,0.0,0.0,0.0,0.0,0.0,0.0,0.0,0.0,0.0,0.0,0.0,0.0,0.0,0.0,0.0,2.195,2.1676,2.1141,2.0563,2.0138,1.9707,1.9219,1.7857,1.7421,1.8331,0.0,0.0,0.0,0.0,0.0,0.0,0.0,0.0,0.0,0.0,0.0,0.0,0.0,0.0,0.0,0.0,0.0,0.0,0.0,0.0,0.0,0.0,0.0,0.0,0.0,0.0,0.0,0.0,0.0,0.0,0.0,0.0,0.0,0.0,0.0,0.0,0.0,0.0,0.0,0.0,0.0,0.0,0.0,0.0,0.0,0.0,0.0,0.0,0.0,0.0,0.0,0.0,0.0,0.0,0.0,0.0,0.0,0.0,0.0,0.0,0.0,0.0,0.0,0.0,0.0,0.0,0.0,0.0,0.0,0.0,0.0,0.0,0.0,0.0,0.0,0.0,0.0,0.0,0.0,0.0,0.0,0.0,0.0,0.0,0.0,0.0,0.0,0.0,0.0,0.0,0.0,0.0,0.0,0.0,0.0,0.0,0.0,0.0,0.0,0.0,0.0,0.0,2.1204,2.0765,2.0137,1.9474,1.9146,1.8958,1.8958,1.814,1.7594,1.7471,0.0,0.0,0.0,0.0,0.0,0.0,0.0,0.0,0.0,0.0,0.0,0.0,0.0,0.0,0.0,0.0,0.0,0.0,0.0,0.0,0.0,0.0,0.0,0.0,0.0,0.0,0.0,0.0,0.0,0.0,0.0,0.0,0.0,0.0,0.0,0.0,0.0,0.0,0.0,0.0,0.0,0.0,0.0,0.0,0.0,0.0,0.0,0.0,0.0,0.0,0.0,0.0,0.0,0.0,0.0,0.0,0.0,0.0,0.0,0.0,1.2803,0.0,0.0,0.0,0.0,0.0,0.0,0.0,0.0,0.0,0.0,0.0,0.0,0.0,0.0,0.0,0.0,0.0,0.0,0.0,0.0,0.0,0.0,0.0,0.0,0.0,0.0,0.0,0.0,0.0,0.0,0.0,0.0,0.0,0.0,0.0,0.0,0.0,0.0,0.0,0.0,0.0,2.1959,2.1094,2.0338,2.0189,1.9285,1.8692,1.8692,1.7796,1.7218,1.7193,1.6118,0.0,0.0,0.0,0.0,0.0,0.0,0.0,0.0,0.0,0.0,0.0,0.0,0.0,0.0,0.0,0.0,0.0,0.0,0.0,0.0,0.0,0.0,0.0,0.0,0.0,0.0,0.0,0.0,0.0,0.0,0.0,0.0,0.0,0.0,0.0,0.0,0.0,0.0,0.0,0.0,0.0,0.0,0.0,0.0,0.0,0.0,0.0,0.0,0.0,0.0,0.0,0.0,0.0,0.0,0.0,0.0,0.0,0.0,0.0,0.0,1.2517,0.0,0.0,0.0,0.0,0.0,0.0,0.0,0.0,0.0,0.0,0.0,0.0,0.0,0.0,0.0,0.0,0.0,0.0,0.0,0.0,0.0,0.0,0.0,0.0,0.0,0.0,0.0,0.0,0.0,0.0,0.0,0.0,0.0,0.0,0.0,0.0,0.0,0.0,0.0,0.0,2.1706,2.086,2.0067,1.972,1.8928,1.841,1.841,1.7934,1.7488,1.712,1.6386,0.0,0.0,0.0,0.0,0.0,0.0,0.0,0.0,0.0,0.0,0.0,0.0,0.0,0.0,0.0,0.0,0.0,0.0,0.0,0.0,0.0,0.0,0.0,0.0,0.0,0.0,0.0,0.0,0.0,0.0,0.0,0.0,0.0,0.0,0.0,0.0,0.0,0.0,0.0,0.0,0.0,0.0,0.0,0.0,0.0,0.0,0.0,0.0,0.0,0.0,0.0,0.0,0.0,0.0,1.2922,1.2772,1.3323,1.3632,1.3637,1.2331,1.205,1.2483,0.0,0.0,0.0,0.0,0.0,0.0,0.0,0.0,0.0,0.0,0.0,0.0,0.0,0.0,0.0,0.0,0.0,0.0,0.0,0.0,0.0,0.0,0.0,0.0,0.0,1.1216,1.1177,0.0,0.0,0.0,0.0,0.0,0.0,0.0,0.0,0.0,0.0,0.0,0.0,2.1246,2.0464,1.9685,1.9158,1.8511,1.8125,1.8125,1.8125,1.7787,1.6991,1.6741,1.6323,0.0,0.0,0.0,0.0,0.0,0.0,0.0,0.0,0.0,0.0,0.0,0.0,0.0,0.0,0.0,0.0,0.0,0.0,0.0,0.0,0.0,0.0,0.0,0.0,0.0,0.0,0.0,0.0,0.0,0.0,0.0,0.0,0.6645,0.6844,0.0,0.0,0.0,0.0,0.0,0.0,0.0,0.0,0.0,0.0,0.0,0.0,0.0,0.0,1.2109,1.2696,1.276,1.2309,1.2836,1.2639,1.1792,1.1879,1.2137,1.2489,1.1897,0.0,1.2552,1.2018,0.0,0.0,0.0,0.0,0.0,0.0,0.0,0.0,0.0,0.0,0.0,0.0,0.0,0.0,0.0,0.0,0.0,0.0,0.0,0.0,0.0,0.0,1.2178,1.1708,1.154,1.1525,0.0,1.1768,1.1941,1.2463,0.0,0.0,0.0,0.0,0.0,0.0,0.0,0.0,2.1459,2.0346,1.9578,1.9824,1.8646,1.7844,1.7844,1.7844,1.7412,1.6387,1.6079,1.5736,1.5282,1.4968,0.0,0.0,0.0,0.0,0.0,0.0,0.0,0.0,0.0,0.0,0.0,0.0,0.0,0.0,0.0,0.0,0.0,0.0,0.0,0.0,0.0,0.0,0.0,0.0,0.0,0.0,0.0,0.0,0.0,0.6888,0.74,0.7666,0.7713,0.7729,0.0,0.0,0.0,0.0,0.0,0.0,0.0,0.0,0.0,1.1585,1.1818,1.2046,1.2238,1.2748,1.2869,1.2632,1.2879,1.2764,1.233,1.2679,1.2944,1.3115,1.2653,1.2612,1.2816,1.2015,1.1932,1.2349,0.0,0.0,0.0,0.0,0.0,1.2542,1.2129,0.0,0.0,0.0,0.0,0.0,0.0,0.0,0.0,0.0,0.0,0.0,0.0,0.0,0.0,1.2098,1.1821,1.1603,1.1603,1.1603,1.1759,0.0,1.3293,1.4417,1.5507,0.0,0.0,0.0,0.0,0.0,2.115,2.0005,1.9262,1.9625,1.8217,1.7319,1.7502,1.7349,1.7042,1.6565,1.6247,1.6007,1.5838,1.5515,1.5492,0.0,0.0,0.0,0.0,0.0,0.0,0.0,0.0,0.0,0.0,0.0,0.0,0.0,0.0,0.0,0.0,0.0,0.0,0.0,0.0,0.0,0.0,0.0,0.0,0.0,0.0,0.0,0.0,0.7711,0.8057,0.8152,0.8097,0.7984,0.0,0.0,0.0,0.0,0.0,0.0,1.0125,1.1163,1.1858,1.2074,1.2383,1.2535,1.2535,1.2881,1.3001,1.2905,1.3001,1.3001,1.2917,1.346,1.3667,1.3555,1.3203,1.3048,1.2973,1.1999,1.1837,1.2192,1.2192,1.2488,1.2895,1.2766,1.2592,1.2393,1.2272,1.2145,1.2032,1.2037,0.0,1.2078,1.2414,0.0,0.0,0.0,0.0,1.3093,1.3471,0.0,1.2535,1.2758,1.2501,1.2267,1.2413,1.2558,1.2638,0.0,1.3609,1.4727,1.5563,0.0,0.0,0.0,0.0,1.9763,2.0699,1.9742,1.905,1.9244,1.7942,1.7091,1.7173,1.6933,1.6763,1.6679,1.645,1.6267,1.6177,1.5926,1.5799,1.5799,0.0,0.0,0.0,0.0,0.0,0.0,0.0,0.0,0.0,0.0,0.0,0.0,0.0,0.0,0.0,0.0,0.0,0.0,0.0,0.0,0.0,0.0,0.0,0.0,0.0,0.0,0.0,0.0,0.0,0.7643,0.8087,0.0,0.0,0.0,0.0,0.8759,0.9366,1.0165,1.1253,1.1856,1.2545,1.3379,1.3415,1.3425,1.3425,1.3454,1.3271,1.2893,1.3281,1.3271,1.2903,1.3329,1.3302,1.2932,1.2912,1.2902,1.2834,1.1959,1.1837,1.2192,1.2192,1.2488,1.2844,1.24,1.2537,1.29,1.2453,1.2573,1.2931,1.2932,1.289,1.2844,1.288,1.289,0.0,0.0,1.2634,1.2916,1.2488,1.2667,1.3129,1.3768,1.3895,1.4041,1.4605,1.5135,1.5028,0.0,1.3223,1.3801,1.5419,0.0,1.6885,1.8019,1.8612,1.9264,2.0205,1.966,1.9116,1.8944,1.8218,1.7495,1.6885,1.6809,1.6659,1.6349,1.6315,1.6157,1.5842,1.5806,1.5799,1.5799,1.5799,0.0,0.0,0.0,0.0,0.0,0.0,0.0,0.0,0.0,0.0,0.0,0.0,0.0,0.0,0.0,0.0,0.0,0.0,0.0,0.0,0.0,0.0,0.0,0.0,0.0,0.0,0.0,0.0,0.9023,0.8668,0.0,0.8098,0.8468,0.8862,0.9197,1.0643,1.1681,1.2088,1.2938,1.3568,1.387,1.389,1.389,1.389,1.389,1.3812,1.3678,1.3825,1.3802,1.3678,1.3821,1.3815,1.3678,1.3678,1.3522,1.3262,1.2952,1.2744,1.2646,1.2646,1.2744,1.2873,1.2717,1.2768,1.2904,1.2744,1.2597,1.2487,1.249,1.2475,1.252,1.2815,1.2905,1.2864,1.2707,1.2792,1.299,1.3202,1.3133,1.3162,1.3787,1.3966,1.4068,1.4277,1.477,1.51,1.4855,1.4805,1.4993,1.5603,1.5853,1.6356,1.741,1.8046,1.8626,1.931,1.9087,1.8775,1.8484,1.7643,1.6922,1.651,1.628,1.6116,1.599,1.5976,1.5912,1.5806,1.5799,1.5799,1.5799,1.5799,1.5726,0.0,0.0,0.0,0.0,0.0,0.0,0.0,0.0,0.0,0.0,0.0,0.0,0.0,0.0,0.0,0.0,0.0,0.0,0.0,0.0,0.0,0.0,0.0,0.0,0.0,0.0,1.0026,0.9702,0.9114,0.8738,0.8738,0.9146,0.969,1.0386,1.1726,1.2653,1.3013,1.371,1.4172,1.4332,1.4478,1.4465,1.4342,1.4465,1.4465,1.4342,1.4465,1.4478,1.4342,1.4475,1.4377,1.4091,1.4091,1.3948,1.3708,1.3708,1.3555,1.3271,1.3013,1.2905,1.2905,1.2905,1.2905,1.2905,1.2905,1.2707,1.2439,1.2439,1.2439,1.2488,1.2805,1.2905,1.2905,1.2905,1.2905,1.2992,1.3384,1.323,1.312,1.3725,1.3904,1.4043,1.4442,1.4857,1.5304,1.5853,1.5819,1.5766,1.5944,1.5969,1.627,1.7177,1.7595,1.8096,1.8817,1.8823,1.8572,1.8088,1.7437,1.6789,1.6178,1.6117,1.6024,1.5814,1.5994,1.6009,1.5814,1.5799,1.5799,1.5799,1.5639,1.5566,1.5566,0.0,0.0,0.0,0.0,0.0,0.0,0.0,0.0,0.0,0.0,0.0,0.0,0.0,0.0,0.0,0.0,0.0,0.0,0.0,0.0,0.0,0.0,0.0,0.996,1.0413,1.0475,0.9583,0.9459,0.9454,0.9454,0.9484,1.034,1.2379,1.2565,1.3037,1.4083,1.4172,1.44,1.4848,1.5244,1.5254,1.4858,1.5244,1.5244,1.4858,1.5254,1.5244,1.4877,1.5249,1.4962,1.4163,1.4163,1.4153,1.4124,1.4124,1.41,1.4013,1.3235,1.2925,1.2925,1.2893,1.2905,1.2905,1.2905,1.2905,1.2905,1.2905,1.2905,1.2905,1.2905,1.2905,1.2905,1.2905,1.2905,1.2905,1.2905,1.2905,1.3053,1.3625,1.3792,1.4144,1.532,1.5599,1.5798,1.6391,1.6072,1.5894,1.64,1.65,1.668,1.7198,1.7291,0.0,1.8717,1.8864,1.8564,1.7764,1.768,1.7174,1.5904,1.6338,1.6405,1.5836,1.6316,1.6375,1.5807,1.577,1.5762,1.5762,1.5314,1.5081,1.5066,0.0,0.0,0.0,0.0,0.0,0.0,0.0,0.0,0.0,0.0,0.0,0.0,0.0,0.0,0.0,0.0,0.0,0.0,0.0,0.0,0.0,0.0,1.0875,1.1271,1.1236,1.1183,1.1212,1.0777,1.0485,1.0485,1.1452,1.2321,1.2887,1.3969,1.4734,1.503,1.5644,1.6044,1.6176,1.6278,1.6287,1.6186,1.6287,1.6287,1.6186,1.6287,1.6278,1.6186,1.6287,1.6049,1.5542,1.5542,1.52,1.4609,1.4609,1.441,1.4055,1.3545,1.334,1.3301,1.301,1.2905,1.2905,1.2905,1.2905,1.2905,1.2905,1.2905,1.2905,1.2905,1.2905,1.2905,1.2905,1.2905,1.2905,1.2905,1.2905,1.2942,1.3104,1.3825,1.4537,1.488,1.5633,1.6292,1.6466,1.6385,1.6323,1.6475,1.65,1.6541,1.6689,0.0,0.0,1.7696,1.8086,1.8043,1.7346,1.7271,1.6919,1.6021,1.5793,1.5718,1.58,1.5354,1.5161,1.5284,1.5013,1.486,1.486,1.4729,1.4525,0.0,0.0,0.0,0.0,0.0,0.0,0.0,0.0,0.0,0.0,0.0,0.0,0.0,0.0,0.0,0.0,0.0,0.0,0.0,0.0,0.0,0.0,1.0135,1.1576,1.2668,1.2087,1.1759,1.2334,1.1611,1.1333,1.2049,1.2683,1.342,1.4288,1.5196,1.5771,1.5942,1.6424,1.6697,1.6697,1.6898,1.6898,1.6697,1.6898,1.6986,1.6986,1.6986,1.6986,1.6986,1.6986,1.6768,0.0,1.6353,1.5972,1.5337,1.5337,1.5068,0.0,0.0,0.0,0.0,0.0,1.3408,1.3408,1.3408,1.3408,1.3408,1.3408,1.3408,1.3408,1.3408,1.3408,1.3408,1.3408,1.3281,1.3157,1.3157,1.303,1.2956,1.3214,1.3973,1.4801,1.5303,1.6168,1.6845,1.6868,0.0,0.0,1.6538,1.65,1.65,1.65,1.6774,1.7055,0.0,1.7565,1.7511,1.6844,1.6757,1.6391,1.5441,1.5385,0.0,0.0,0.0,1.49,1.4851,1.4619,0.0,0.0,0.0,1.4238,1.4233,0.0,0.0,0.0,1.4327,1.4327,0.0,0.0,0.0,0.0,0.0,0.0,0.0,0.0,0.0,0.0,0.0,0.0,0.0,0.0,0.0,0.0,1.0875,1.2375,1.3884,1.2974,1.2454,1.3265,1.2431,1.2363,1.3854,1.3635,1.4173,1.6027,1.6212,1.6422,1.6824,0.0,0.0,0.0,0.0,1.7363,1.7005,1.7353,1.7546,1.7529,1.7487,1.7468,1.7468,1.7468,1.7217,1.6775,1.6775,1.6523,1.6095,1.6095,1.5825,1.5318,1.4494,1.4153,1.4091,1.4091,1.4091,0.0,0.0,0.0,0.0,1.4091,1.4091,1.4091,1.4091,1.4091,1.4091,1.4091,1.3841,1.3561,1.3561,1.3301,1.3167,1.3719,1.4253,1.4979,1.6138,1.6848,1.7303,1.7373,1.741,1.7211,1.66,1.65,1.65,1.65,1.65,0.0,1.7146,1.7209,1.6976,1.64,0.0,0.0,1.4716,1.507,1.5095,1.4543,1.5015,1.5021,1.4372,1.435,1.435,1.435,1.4008,1.406,1.4529,1.4301,1.4425,1.4906,1.4906,1.4906,0.0,0.0,0.0,0.0,0.0,0.0,0.0,0.0,0.0,0.0,0.0,0.0,0.0,0.0,0.0,1.0253,1.1004,1.2105,1.3851,1.3859,1.4011,1.4926,1.4831,1.4813,1.5146,1.5663,1.616,1.6545,1.6924,1.7331,1.7718,1.7747,0.0,1.8769,1.8518,1.8508,1.8789,1.8508,1.8371,1.8354,0.0,0.0,1.7874,1.7874,1.7656,1.7256,1.7256,1.6813,1.6095,1.6095,1.5825,1.5347,1.4853,1.443,1.4091,1.4091,1.4091,1.4091,1.4091,1.4091,1.4091,1.4091,1.4091,1.4091,1.4091,1.4091,0.0,1.4091,1.4032,1.3987,1.3987,1.3929,1.39,1.4008,1.4524,1.5231,1.6056,1.6707,1.7183,1.7362,1.741,1.7211,1.66,1.65,1.65,1.65,1.65,1.6531,1.6637,1.6648,1.6602,1.648,1.6066,1.5682,1.5347,1.4731,1.441,1.4481,1.4322,1.3987,1.3467,1.345,1.345,1.345,1.3382,1.3394,1.3487,1.433,1.4793,1.4906,1.4906,1.4906,0.0,0.0,0.0,0.0,0.0,0.0,0.0,0.0,0.0,0.0,0.0,0.859,0.0,0.0,1.0515,1.1322,1.1895,1.2924,1.4886,1.5374,1.5787,1.6389,1.6213,1.6306,1.699,1.7199,1.7503,1.7974,1.7991,1.8193,1.8623,1.842,1.8605,1.9286,1.9072,1.9072,1.9305,1.9072,1.8947,1.8947,1.875,1.8652,1.8643,1.841,1.8196,1.7981,1.7793,1.7341,1.6741,1.65,1.6269,1.603,1.5825,1.5337,1.4747,1.4747,1.4747,1.4747,1.4747,1.4747,1.4747,1.4747,1.4747,1.4747,1.4747,1.4747,1.4747,1.4747,1.4615,1.4449,1.4449,1.4283,1.4184,1.4516,1.5063,1.5672,1.6365,1.7034,1.7444,1.7277,1.7333,1.7211,1.66,1.65,1.65,1.65,1.65,1.65,1.65,1.65,1.6398,1.6122,1.5856,1.5557,1.5238,1.4774,1.456,1.4691,1.4267,1.4013,1.4058,1.3495,1.347,1.4048,1.3794,1.391,1.4444,1.5025,1.5449,1.5703,1.5703,1.5703,0.0,0.0,0.0,0.0,0.0,0.0,0.0,0.7235,0.792,0.8869,0.9276,0.9718,1.0528,1.0992,1.1476,1.2184,1.2937,1.4085,1.5934,1.6839,1.7432,1.783,1.7433,1.7548,1.8642,1.8317,1.8386,1.9241,1.8869,1.884,1.9385,1.8976,1.8986,1.954,1.9453,1.9471,1.9559,1.9453,1.9423,1.9423,1.9344,1.9256,1.915,1.8781,1.8559,1.8461,1.8059,1.7695,1.737,1.6986,1.6742,1.6596,1.6668,1.6176,1.5405,1.5508,1.5488,1.5396,1.5396,1.5396,1.5396,1.5396,1.5396,1.5396,1.5396,1.5396,1.5396,1.5396,1.5166,1.4916,1.4916,1.4648,1.4493,1.5032,1.5491,1.5986,1.6598,1.7317,1.7725,1.7332,1.742,1.7374,1.6774,1.6586,1.65,1.65,1.65,1.65,1.65,1.65,1.6335,1.5906,1.5756,1.5477,1.4956,1.4906,1.4906,1.4906,1.4488,1.445,1.4881,1.4023,1.3951,1.4881,1.4484,1.468,1.553,1.5653,1.5919,1.6348,1.645,1.65,0.4515,0.5167,0.5959,0.6373,0.7126,0.808,0.0,0.9621,0.9807,1.0568,1.0943,1.1108,1.0989,1.161,1.2191,1.2285,1.3608,1.4985,1.6059,1.7422,1.8655,1.9527,1.9244,1.907,1.9209,1.8799,1.8742,1.9258,1.8869,1.8958,1.9786,1.9443,1.9608,2.0439,2.0049,2.0029,2.0458,2.0039,1.9825,1.9825,1.9463,1.9082,1.8676,1.8627,1.842,1.804,1.7637,1.7448,1.7399,1.735,1.6862,1.6197,1.6557,1.6176,1.5444,1.5865,1.5757,1.5396,1.5396,1.5396,1.5396,1.5396,1.5396,1.5396,1.5396,1.5396,1.5396,1.5396,1.5366,1.5327,1.5327,1.5288,1.5264,1.536,1.5418,1.565,1.6381,1.7114,1.7668,1.7788,1.7971,1.794,1.7387,1.6861,1.65,1.65,1.65,1.65,1.65,1.65,1.6486,1.6423,1.5971,1.5477,1.4956,1.4906,1.4906,1.4906,1.4843,1.483,1.4906,1.478,1.4768,1.4906,1.4843,1.4868,1.4994,1.5465,1.5731,1.5806,1.6272,1.65,0.5315,0.5933,0.6634,0.7568,0.8514,0.9398,1.011,1.0674,1.1151,1.1469,1.1888,1.2176,1.2074,1.2477,1.3091,0.0,1.4633,1.5803,1.7885,1.8524,1.9255,2.0508,2.0508,2.0312,2.0077,1.9882,1.9853,2.0038,1.9629,1.963,2.0273,1.9883,1.9932,2.0586,2.041,2.04,2.0605,2.0127,1.9893,1.9893,1.9736,1.9561,1.9357,1.9113,1.8643,1.7981,1.7822,1.7744,1.7744,1.7744,1.7409,1.6907,1.7305,1.6927,1.6127,1.5811,1.5566,1.5396,1.5396,1.5396,1.5396,1.5396,1.5396,1.5396,1.5396,1.5396,1.5396,1.5396,1.5396,1.5396,1.5396,1.5396,1.5396,1.5396,1.5396,1.5483,1.5791,1.6531,1.7153,1.7242,1.7773,1.8129,1.7903,1.74,1.7024,1.7024,1.6724,1.65,1.65,1.65,1.65,1.65,1.6298,1.6072,1.5856,1.5831,1.5831,1.5831,1.554,1.5502,1.5819,1.5236,1.5198,1.5819,1.5527,1.5515,1.5831,1.607,1.617,1.6172,1.6398,1.65,0.5988,0.6791,0.7633,0.8894,0.9968,1.0781,1.1096,1.1733,1.2256,1.2256,1.2616,1.2911,1.2911,1.3126,1.3747,1.508,1.5614,1.6678,1.9088,1.9538,1.997,2.0926,2.1132,2.1084,2.0781,2.0772,2.082,2.0938,2.0527,2.0469,2.0918,2.0518,2.0401,2.0752,2.0654,2.0605,2.0605,2.0254,2.0029,1.9893,1.9893,1.9776,1.9532,1.9121,1.8594,1.7991,1.7991,1.7991,1.7991,1.7991,1.7764,1.7429,1.7715,1.7366,1.6609,1.5879,1.5586,1.5566,1.5435,1.5396,1.5396,1.5396,1.5396,1.5396,1.5396,1.5396,1.5396,1.5396,1.5483,1.5586,1.5586,1.5684,1.5727,1.5625,1.5586,1.5557,1.5439,1.6098,1.6718,1.6718,1.7485,1.8116,1.8116,1.7837,1.7562,1.7412,1.7024,1.6687,1.6523,1.65,1.65,1.65,1.65,1.65,1.65,1.65,1.65,1.65,1.6145,1.6084,1.6475,1.5756,1.5716,1.6475,1.612,1.6109,1.65,1.65,1.65,1.65,1.65,1.65,0.6229,0.7628,0.9225,1.0435,1.1483,1.2388,1.298,1.314,1.3153,1.3153,1.3186,1.32,1.32,1.3413,1.3967,1.5117,1.6392,1.7658,1.8847,2.0232,2.1015,2.0654,2.0947,2.119,0.0,2.1171,2.1366,2.1837,2.1425,2.1366,2.1847,2.1415,2.1161,2.1171,2.0791,2.0605,2.0605,2.0595,2.0351,1.9893,1.9893,1.9464,1.8627,1.8225,1.8037,1.7991,1.7991,1.7991,1.7991,1.7991,1.7764,1.7399,1.7409,1.7129,1.6648,1.6226,1.6075,1.6007,1.5557,1.5396,1.5396,1.5396,1.5396,1.5396,1.5396,1.5396,1.5396,1.5396,1.5737,1.6075,1.6075,1.6367,1.6566,1.6173,1.6075,1.5958,1.5498,1.5983,1.6514,1.6514,1.7261,1.7918,1.7918,1.8069,1.8003,1.7475,1.7374,1.716,1.6574,1.65,1.65,1.65,1.65,1.65,1.65,1.65,1.65,1.65,1.6475,1.6475,1.65,1.6473,1.6473,1.65,1.6475,1.6475,1.65,1.65,1.65,1.65,1.65,1.65,0.7753,0.9005,1.0231,1.1477,1.2344,1.2959,1.314,1.4051,1.458,1.3655,1.3897,1.4045,1.3325,1.3861,1.4751,1.5859,1.7384,1.8907,2.0271,2.0662,2.084,2.0986,2.1123,0.0,0.0,0.0,0.0,2.1846,2.1748,2.1602,2.1435,2.1298,2.1084,2.082,2.0664,2.0605,2.0605,2.0293,2.0059,1.9893,1.9629,1.9346,1.9053,1.8605,1.8254,1.7991,1.7991,1.7991,1.7991,1.7991,1.7764,1.7399,1.7399,1.7295,1.7109,1.6654,1.6689,1.6803,1.5762,1.5396,1.5396,1.5396,1.5396,1.5396,1.5396,1.5396,1.5396,1.5396,1.5737,1.6095,1.6095,1.6396,1.6668,1.6527,1.6295,1.6056,1.5909,1.6206,1.6507,1.6507,1.7553,1.8427,1.8427,1.8595,1.843,1.7525,1.706,1.6724,1.6536,1.65,1.65,1.65,1.65,1.65,1.65,1.65,1.65,1.65,1.65,1.65,1.65,1.65,1.65,1.65,1.65,1.65,1.65,1.65,1.65,1.65,1.65,1.65,0.9075,1.0122,1.1026,1.2193,1.3019,1.3621,1.3896,1.4757,1.5256,1.4508,1.4297,1.4061,1.346,1.3834,1.4551,1.5535,1.6947,1.8438,1.9895,2.011,2.0351,2.0928,2.0996,2.1035,0.0,0.0,0.0,2.207,2.2109,2.1992,2.1688,2.1532,2.1249,2.084,2.0664,2.0605,2.0605,2.0302,2.0068,1.9883,1.9318,1.9053,1.9043,1.8586,1.8244,1.7991,1.7991,1.7991,1.7991,1.7991,1.7852,1.7598,1.7458,1.7399,1.7331,1.6709,1.6768,1.7012,1.5996,1.5644,1.5615,1.5444,1.5396,1.5396,1.5396,1.5518,1.5644,1.5644,1.6089,1.6535,1.6363,1.6738,1.7054,1.6586,1.6529,1.6437,1.5943,1.6122,1.6302,1.6138,1.7093,1.8002,1.8259,1.8528,1.8418,1.7525,1.6886,1.65,1.65,1.65,1.65,1.65,1.65,1.65,1.65,1.65,1.65,1.65,1.65,1.65,1.65,1.65,1.65,1.65,1.65,1.65,1.65,1.65,1.65,1.65,1.65,1.65,1.0115,1.0931,1.1633,1.2549,1.3466,1.4327,1.5063,1.5175,1.5199,1.5571,1.4363,1.3326,1.3507,1.338,1.3536,1.4389,1.5443,1.6655,1.8053,1.8897,1.9667,0.0,0.0,0.0,0.0,0.0,0.0,2.2362,0.0,2.248,2.248,2.208,2.165,2.1171,2.0811,2.0605,2.0605,2.0605,2.0381,1.9941,1.9046,1.8637,1.8617,1.8196,1.7991,1.7991,1.7991,1.7981,1.7961,1.7981,1.7971,1.791,1.751,1.738,1.7301,1.6447,1.6402,1.6683,1.6265,1.6124,1.6056,1.5586,1.5435,1.5435,1.5464,1.5752,1.6095,1.6124,1.6735,1.7301,1.6859,1.7366,1.7695,1.6486,1.6819,1.7031,1.5752,1.5806,1.5958,1.5498,1.5993,1.674,1.749,1.7909,1.7969,1.7475,1.6886,1.65,1.65,1.65,1.65,1.65,1.65,1.65,1.65,1.65,1.65,1.65,1.65,1.65,1.65,1.65,1.65,1.65,1.65,1.65,1.65,1.65,1.65,1.65,1.65,1.65,1.0795,1.1444,1.1882,1.2323,1.2804,1.3383,1.4284,1.4886,1.5173,1.4929,1.4456,1.3798,1.2817,1.3438,1.4551,1.5883,1.7319,0.0,2.0203,2.0333,0.0,2.0576,2.0859,2.0977,2.0772,2.1015,0.0,0.0,2.1865,2.2041,2.2041,2.161,2.1201,2.0772,2.0644,2.0605,2.0605,2.0605,2.0527,2.041,1.955,1.9121,1.9102,1.8332,1.7991,1.7991,1.7991,1.7832,1.7585,1.7881,1.762,1.7019,1.6927,1.7083,1.7331,1.6768,1.682,1.7158,1.6703,1.6547,1.6484,1.606,1.5928,1.5972,1.6283,1.624,1.6163,1.6449,1.6953,1.738,1.7246,1.7617,1.793,1.7588,1.7468,1.7197,1.6527,1.6236,1.5958,1.5498,1.5993,1.6787,1.767,1.7572,1.7387,1.7394,1.6886,1.65,1.65,1.65,1.65,1.65,1.65,1.65,1.65,1.65,1.65,1.65,1.65,1.65,1.65,1.65,1.65,1.65,1.65,1.65,1.65,1.65,1.65,1.65,1.65,1.65,1.1144,1.155,1.1744,1.2056,1.2579,1.3198,1.3918,1.4343,1.4579,1.4515,1.3873,1.3128,1.2628,1.3172,1.4148,1.556,1.7023,1.8565,2.0186,2.0527,2.0752,2.1123,2.1201,0.0,2.0889,2.0908,2.1005,0.0,2.1435,2.1581,2.1581,2.1347,2.1025,2.0615,2.0605,2.0605,2.0605,2.0605,2.0507,2.0293,1.9628,1.9189,1.8966,1.8293,1.7991,1.7991,0.0,1.7881,1.7676,1.791,1.7708,1.7223,1.6843,1.6986,1.7301,1.6439,1.6537,1.7002,1.6361,1.6375,1.6629,1.6226,1.5958,1.5874,1.6309,1.6275,1.6183,1.6586,1.6898,1.7139,1.735,1.7412,1.7386,1.7197,1.7129,1.6924,1.6274,1.6103,1.5958,1.5498,1.5993,1.6699,1.7301,1.7239,1.7171,1.7371,1.6886,1.65,1.65,1.65,1.65,1.65,1.65,1.65,1.65,1.65,1.65,1.65,1.65,1.65,1.65,1.65,1.65,1.65,1.65,1.65,1.65,1.65,1.65,1.65,1.65,1.65,1.1252,1.1362,1.1436,1.1754,1.2484,1.3239,1.3665,1.3649,1.3649,1.4152,1.303,1.2125,1.2733,1.292,1.3431,1.4808,1.6135,1.7612,1.9381,2.0292,2.1026,2.1719,2.1542,2.1337,2.1308,2.1035,2.0957,2.1171,2.119,2.119,2.119,2.1162,2.0967,2.0615,2.0605,2.0605,2.0605,2.0605,2.0361,1.9893,1.9482,1.9053,1.8588,1.8186,1.7991,1.7991,0.0,0.0,1.7913,1.7988,1.7922,1.7757,1.7058,1.7035,1.7262,1.6094,1.6147,1.6677,1.5922,1.6118,1.6629,1.6226,1.5825,1.5586,1.6031,1.6134,1.6202,1.6654,1.6785,1.6888,1.7285,1.7148,1.6761,1.6285,1.6494,1.6541,1.5678,1.5767,1.5889,1.5488,1.5921,1.6448,1.6744,1.6932,1.7134,1.7361,1.6961,1.6599,1.65,1.65,1.65,1.65,1.65,1.65,1.65,1.65,1.65,1.65,1.65,1.65,1.65,1.65,1.65,1.65,1.65,1.65,1.65,1.65,1.65,1.65,1.65,1.65,1.1252,1.1232,1.1136,1.1412,1.1823,1.2305,1.2929,1.2799,1.2713,1.337,1.283,1.2403,1.2953,1.355,1.4697,1.6964,1.8037,1.9141,2.0666,2.1345,2.1602,2.1347,2.1884,2.2137,2.1807,2.2012,0.0,0.0,0.0,2.119,2.119,2.0879,2.0664,2.0605,2.0605,2.0605,2.0605,2.0605,2.0361,1.9893,1.9482,1.9053,1.8588,1.8186,1.7991,1.7991,0.0,0.0,1.7536,1.7871,1.7581,1.6941,1.7187,1.7331,1.737,1.7145,1.7155,1.7262,1.7106,1.6904,1.6629,1.6226,1.6036,1.6065,1.6469,1.6357,1.6261,1.7057,1.7292,1.7301,1.738,1.7588,1.7581,1.6781,1.6953,1.7047,1.6173,1.5737,1.5498,1.543,1.5497,1.5855,1.6664,1.6826,1.6977,1.7342,1.7311,1.7061,1.655,1.65,1.65,1.65,1.65,1.65,1.65,1.65,1.65,1.65,1.65,1.65,1.65,1.65,1.65,1.65,1.65,1.65,1.65,1.65,1.65,1.65,1.65,1.65,1.0878,1.0891,1.0851,1.1129,1.1309,1.1529,1.1833,1.1758,1.1715,1.2044,1.1844,1.1884,1.2738,1.3285,1.4488,1.7114,1.7984,1.9085,2.1264,2.1758,2.1973,2.2176,2.2176,2.2109,2.1925,2.1671,2.1328,0.0,0.0,2.0889,2.0889,2.0703,2.0605,2.0605,2.0605,2.0605,2.0605,2.0361,2.001,1.958,1.9132,1.8703,1.8283,1.8088,1.7991,1.7991,1.7991,0.0,1.7725,1.793,1.7747,1.7376,1.7383,1.7536,1.7656,1.7207,1.7187,1.737,1.7119,1.6898,1.6668,1.6469,1.6265,1.6134,1.6334,1.6246,1.6232,1.6855,1.7051,1.7148,1.7588,1.7353,1.6953,1.6746,1.6527,1.624,1.5835,1.5557,1.5396,1.5396,1.5396,1.5793,1.7008,1.6982,1.7033,1.7705,1.7575,1.7186,1.6586,1.65,1.65,1.65,1.65,1.65,1.65,1.65,1.65,1.65,1.65,1.65,1.65,1.65,1.65,1.65,1.65,1.65,1.65,1.65,1.65,1.65,1.65,1.65,1.0466,1.0546,1.0633,1.0762,1.0895,1.0978,1.0835,1.0902,1.0975,1.0932,1.0965,1.1386,1.2624,1.3161,1.4285,1.6829,1.7688,1.8881,2.1276,2.1788,2.2168,2.2898,2.2479,2.2119,2.2052,2.1407,0.0,0.0,0.0,0.0,2.0605,2.0605,2.0605,2.0605,2.0605,2.0605,2.0605,2.0127,1.9707,1.9296,1.883,1.8401,1.7991,1.7991,1.7889,1.7716,1.7906,0.0,0.0,1.7923,1.7991,1.7978,1.7646,1.7715,1.7913,1.7223,1.721,1.7487,1.7113,1.697,1.696,1.6888,1.6572,1.6212,1.6139,1.6163,1.6295,1.6615,1.6765,1.7015,1.7679,1.7194,1.6539,1.6674,1.6108,1.5527,1.5415,1.5396,1.5396,1.5396,1.5526,1.6054,1.7371,1.7375,1.7433,1.8101,1.784,1.73,1.6599,1.65,1.65,1.65,1.65,1.65,1.65,1.65,1.65,1.65,1.65,1.65,1.65,1.65,1.65,1.65,1.65,1.65,1.65,1.65,1.65,1.65,1.65,1.65,1.0294,1.037,1.0533,1.0254,1.0595,1.0855,1.0321,1.0608,1.0932,1.0687,1.0825,1.1481,1.3044,1.4007,1.5172,1.7073,1.8374,1.9517,2.0576,2.1397,2.206,2.2498,2.281,2.2849,2.249,2.2383,0.0,0.0,0.0,0.0,2.0605,2.0605,2.0605,2.0605,2.0605,2.0605,2.0605,2.0127,1.9707,1.9296,1.883,1.8401,1.7991,1.7991,1.7535,1.6775,0.0,0.0,0.0,1.7647,1.7991,1.8008,1.7952,1.7978,1.7981,1.7903,1.792,1.7949,1.791,1.7874,1.7815,1.7451,1.7015,1.6576,1.6212,1.6363,1.6648,1.6687,1.7021,1.736,1.7438,1.7637,1.7646,1.6872,1.6357,1.5928,1.5498,1.5396,1.5396,1.5396,1.5935,1.6652,1.7468,1.8118,1.8452,1.8235,1.8166,1.7728,1.6649,1.65,1.65,1.65,1.65,1.65,1.65,1.65,1.65,1.65,1.65,1.65,1.65,1.65,1.65,1.65,1.65,1.65,1.65,1.65,1.65,1.65,1.65,1.65,1.0118,1.02,1.0267,1.0132,1.016,1.0202,1.0118,1.0285,1.0434,1.0314,1.0544,1.125,1.2859,1.3439,1.4403,1.6622,1.7405,1.832,1.9941,2.0478,2.1132,2.2373,2.2441,2.2314,0.0,0.0,0.0,0.0,0.0,0.0,2.0605,2.0605,2.0605,2.0605,2.0605,2.0605,2.0605,1.9883,1.9453,1.9296,1.8584,1.8147,1.7974,1.7415,1.694,1.6584,0.0,0.0,0.0,1.6767,1.7156,1.7217,1.7777,1.7991,1.7991,1.7991,1.7991,1.7991,1.7991,1.7991,1.7961,1.7812,1.762,1.7357,1.668,1.6777,1.7119,1.7119,1.7432,1.7764,1.7764,1.7695,1.748,1.6843,1.6586,1.6348,1.5913,1.5816,1.5737,1.5444,1.5993,1.6736,1.7468,1.7939,1.8217,1.8197,1.7928,1.7426,1.6611,1.65,1.65,1.65,1.65,1.65,1.65,1.65,1.65,1.65,1.65,1.65,1.65,1.65,1.65,1.65,1.65,1.65,1.65,1.6862,1.6861,1.65,1.6873,1.6861,1.0577,1.0707,1.08,1.0823,1.0418,1.0061,1.0283,1.0316,1.0219,1.0017,1.0389,1.1212,1.2725,1.3213,1.4108,1.6338,1.6911,1.773,1.963,1.9893,2.0498,2.2139,0.0,2.1905,0.0,2.1611,0.0,0.0,0.0,0.0,0.0,2.0605,2.0605,2.0605,2.0605,2.0605,2.0605,1.9735,1.9305,1.9296,1.8418,1.7845,1.7562,1.6905,1.628,1.572,0.0,0.0,0.0,1.6097,1.6611,1.6688,1.763,1.7991,1.7991,1.7991,1.7991,1.7991,1.7991,1.7991,1.7991,1.7991,1.7991,1.7883,1.7262,1.7324,1.7539,1.7438,1.7686,1.7991,1.7991,1.7793,1.7461,1.7015,1.6908,1.6752,1.6222,1.6095,1.5958,1.5498,1.6169,1.6992,1.7509,1.8077,1.8397,1.8233,1.7877,1.735,1.6599,1.65,1.65,1.65,1.65,1.65,1.65,1.65,1.65,1.65,1.65,1.65,1.65,1.65,1.65,1.65,1.65,1.6599,1.6762,1.7011,1.701,1.6762,1.7024,1.6911,1.1866,1.2126,1.2407,1.2539,1.1618,1.0722,1.0864,1.0786,1.0508,0.9839,1.0447,1.1488,1.2761,1.3698,1.4819,1.6434,1.7425,1.843,1.9718,1.9893,2.041,2.1759,2.1905,2.1905,2.1905,0.0,0.0,0.0,0.0,0.0,0.0,2.0605,2.0605,2.0605,2.0605,2.0605,2.0605,1.9735,1.9305,1.9296,1.8418,1.7501,1.661,1.6602,1.5544,0.0,0.0,0.0,0.0,1.5798,1.6602,1.6688,1.763,1.7991,1.7991,1.7991,1.7991,1.7991,1.7991,1.7991,1.7991,1.7991,1.7991,1.7991,1.7981,1.7981,1.792,1.75,1.7686,1.7991,1.7991,1.8008,1.79,1.7487,1.7389,1.7155,1.6281,1.6095,1.5958,1.5498,1.6574,1.7592,1.7605,1.8808,1.9422,1.8367,1.8204,1.7778,1.6649,1.65,1.65,1.65,1.65,1.65,1.65,1.65,1.65,1.65,1.65,1.65,1.65,1.65,1.65,1.65,1.65,1.6787,1.7398,1.681,1.6812,1.7385,1.6774,1.65,1.0806,1.1221,1.1658,1.1699,1.0889,1.0161,1.0425,1.0243,0.9962,0.9737,1.0263,1.122,1.2725,1.3451,1.4451,1.6386,1.7207,1.8027,1.9307,1.9736,2.041,2.1749,2.1905,2.1905,0.0,0.0,0.0,0.0,0.0,0.0,0.0,2.0605,2.0605,2.0605,2.0605,2.0439,2.0117,1.9589,1.9141,1.882,1.8254,1.7501,1.6584,1.593,0.0,0.0,0.0,0.0,0.0,1.4764,1.564,1.5799,1.7381,1.7991,1.7991,1.7991,1.7991,1.7991,1.7991,1.7991,1.7991,1.7991,1.7991,1.7991,1.7991,1.7991,1.7961,1.7852,1.791,1.7991,1.7991,1.7991,1.7978,1.7842,1.7812,1.7578,1.6709,1.6508,1.6283,1.5542,1.6183,1.6849,1.6849,1.7469,1.7847,1.7497,1.7204,1.6912,1.6549,1.65,1.6661,1.7073,1.676,1.65,1.65,1.65,1.65,1.65,1.65,1.65,1.65,1.65,1.6699,1.711,1.7123,1.7399,1.7952,1.8129,1.8117,1.7928,1.695,1.65,1.132,1.1627,1.1846,1.2263,1.1258,1.0286,1.0654,1.0224,0.9722,0.9712,1.0205,1.1167,1.2917,1.3583,1.4545,1.6622,1.7454,1.8193,1.915,1.9804,0.0,2.1769,0.0,0.0,0.0,0.0,0.0,0.0,0.0,0.0,0.0,0.0,2.0605,2.0605,2.0605,2.0371,1.9903,1.9502,1.9072,1.8598,1.8196,1.7329,1.6053,1.5464,0.0,0.0,0.0,0.0,0.0,1.4151,1.5039,1.5367,1.7092,1.7871,1.7991,1.7991,1.7991,1.7991,1.7991,1.7991,1.7991,1.7991,1.7991,1.7991,1.7991,1.7991,1.7991,1.7991,1.7991,1.7991,1.7991,1.7991,1.7991,1.7991,1.7991,1.7805,1.7113,1.6814,1.6492,1.5801,1.6129,1.6592,1.6866,1.7357,1.773,1.7799,1.7609,1.7365,1.7176,1.6963,1.6986,1.7361,1.6861,1.6599,1.6812,1.6636,1.65,1.65,1.6712,1.6848,1.6848,1.7025,1.7325,1.7701,1.7701,1.7965,1.8506,1.8619,1.8418,1.7877,1.6937,1.65,0.0,1.2936,1.2761,1.3774,1.2386,1.0904,1.1356,1.0564,0.0,0.9788,1.03,1.1348,1.3275,1.4043,1.5047,1.7037,1.803,1.8742,1.9219,2.0097,0.0,0.0,2.1905,0.0,0.0,0.0,0.0,0.0,0.0,0.0,0.0,0.0,2.0566,2.0556,2.0556,2.0332,1.9854,1.9453,1.9023,1.8549,1.8176,1.701,1.5199,1.5199,0.0,0.0,0.0,0.0,0.0,1.3836,1.4703,1.5275,1.6753,1.7596,1.7952,1.7981,1.7991,1.7991,1.7991,1.7991,1.7991,1.7991,1.7991,1.7991,1.7991,1.7991,1.7991,1.7991,1.7991,1.7991,1.7991,1.7991,1.7991,1.7991,1.7991,1.7881,1.7432,1.7021,1.6576,1.6128,1.6258,1.6666,1.7385,1.8103,1.8631,1.8821,1.8834,1.8634,1.8111,1.7585,1.7305,1.7369,1.6853,1.6762,1.7399,1.6873,1.6525,1.6613,1.7099,1.7423,1.7461,1.7902,1.8179,1.8267,1.828,1.8543,1.9008,1.8468,1.7928,1.7385,1.6774,1.65,1.1044,0.0,1.2874,1.312,1.1977,1.0825,0.0,1.0127,0.9584,1.0449,1.0908,1.1746,1.3692,1.4688,1.5576,1.668,1.7581,1.8401,1.918,2.0625,0.0,2.1886,2.1905,0.0,0.0,0.0,0.0,0.0,0.0,0.0,0.0,0.0,2.0429,2.0078,2.0068,1.9863,1.9443,1.8986,1.8557,1.8137,1.8057,1.701,1.5199,1.5199,0.0,0.0,0.0,0.0,1.1727,1.3259,1.4065,1.4513,1.6148,1.7098,1.7585,1.7891,1.7991,1.7991,1.7991,1.7991,1.7991,1.7991,1.7991,1.7991,1.7991,1.7991,1.7991,1.7991,1.7991,1.7991,1.7991,1.7991,1.7991,1.7991,1.7991,1.7786,1.7035,1.6775,1.6473,1.5713,1.5624,1.5892,1.6638,1.7021,1.7253,1.732,1.7129,1.6896,1.6556,1.6232,1.6315,1.7087,1.6774,1.6912,1.7928,1.7075,1.6864,1.774,1.755,1.7575,1.799,1.7738,1.7978,1.8807,1.9208,1.9284,1.9008,1.8468,1.7928,1.7385,1.6774,1.65,1.0141,1.0906,1.1551,1.1863,1.1124,1.0415,1.0733,1.0118,0.9833,1.1101,1.1478,1.2237,1.4406,1.5176,1.5894,1.7099,1.802,1.8896,0.0,0.0,2.1456,2.1857,2.1553,0.0,0.0,0.0,0.0,0.0,0.0,0.0,0.0,0.0,2.0068,1.9639,1.9415,1.9201,1.8976,1.8742,1.841,1.7991,1.7991,1.7234,1.5843,1.5843,0.0,0.0,0.0,0.0,1.1884,1.2843,1.3781,1.467,1.5369,1.6475,1.7645,1.7442,1.763,1.7991,1.7991,1.7991,1.7991,1.7991,1.7881,1.7764,1.7932,1.7871,1.7764,1.7959,1.7991,1.7991,1.7991,1.7991,1.7991,1.7991,1.7861,1.7598,1.7113,1.6709,1.6279,1.5801,1.5547,1.5633,1.6379,1.6594,1.6781,1.712,1.7044,1.6895,1.6752,1.669,1.6765,1.7073,1.721,1.7527,1.8154,1.7413,1.7287,1.8154,1.8166,1.8154,1.8204,1.8392,1.8769,1.9359,1.966,1.966,1.9371,1.8832,1.828,1.7751,1.7174,1.6911,0.9653,0.9653,0.984,1.0606,1.03,0.9974,1.0656,1.0205,1.008,1.1594,1.1922,1.2648,1.4984,1.5558,1.6169,1.7665,1.874,0.0,2.0566,2.0742,2.1055,2.1709,0.0,0.0,0.0,0.0,0.0,0.0,0.0,0.0,0.0,0.0,0.0,1.9209,1.881,1.8568,1.851,1.851,1.8342,1.7991,1.7991,1.7501,1.6602,1.6538,1.5467,0.0,0.0,0.0,1.2186,1.2411,1.3477,1.4934,1.4641,1.5916,1.7818,1.7076,1.732,1.7991,1.7991,1.7952,1.791,1.791,1.7676,1.7468,1.7803,1.7705,1.7549,1.791,1.7991,1.7991,1.7991,1.7991,1.7991,1.7991,1.7686,1.738,1.7321,1.6656,1.6075,1.6007,1.5664,1.5633,1.6379,1.6507,1.6708,1.7343,1.7374,1.7365,1.7415,1.754,1.7529,1.725,1.7811,1.823,1.8329,1.7914,1.7865,1.8417,1.8644,1.8594,1.8229,1.9233,1.9761,1.9685,1.9761,1.9761,1.9685,1.9221,1.8719,1.8191,1.765,1.7437,0.8956,0.8956,0.9243,1.0491,1.03,0.9974,1.0656,0.984,0.9512,1.1484,1.1994,1.2675,1.4633,1.5829,1.6725,1.7386,0.0,2.0108,0.0,0.0,2.1592,0.0,0.0,0.0,0.0,0.0,0.0,0.0,0.0,0.0,0.0,0.0,0.0,1.8724,1.8637,1.8432,1.8088,1.8088,1.8059,1.7991,1.7991,1.7501,1.6593,1.6189,1.5152,0.0,0.0,1.2324,1.1539,1.1583,1.2487,1.3907,1.4446,1.5824,1.7519,1.7719,1.7879,1.7991,1.7991,1.7773,1.7497,1.7497,1.7448,1.7409,1.7477,1.7686,1.793,1.7971,1.7991,1.7991,1.7991,1.7991,1.7991,1.7991,1.7686,1.7285,1.6898,1.6426,1.5987,1.5586,1.5444,1.5633,1.6379,1.6507,1.6539,1.6652,1.6372,1.6283,1.6627,1.6546,1.6793,1.7674,1.8032,1.838,1.8845,1.8795,1.8982,1.9522,1.8342,1.7802,1.818,1.9233,1.9585,1.9133,1.956,1.9572,1.9121,1.9045,1.8719,1.8191,1.765,1.7638,0.8791,0.8791,0.8949,0.9562,0.9491,0.9439,1.0102,0.9775,0.9823,1.1553,1.1944,1.2651,1.4822,1.5852,1.69,1.8494,0.0,2.004,2.0449,0.0,0.0,0.0,0.0,0.0,0.0,0.0,0.0,0.0,0.0,0.0,0.0,0.0,0.0,0.0,1.8283,1.8186,1.7991,1.7991,1.7759,1.7251,1.7759,1.7501,1.6593,1.6378,1.5618,1.4454,0.0,1.2385,1.165,1.1472,1.2207,1.348,1.3965,1.5315,1.7049,1.7743,1.7991,1.7991,1.7991,1.7734,1.7399,1.7399,1.7227,1.708,1.7331,1.7536,1.7715,1.7949,1.7991,1.7991,1.7991,1.7991,1.7959,1.7725,1.7344,1.6904,1.6465,1.6025,1.5654,1.5435,1.5396,1.5512,1.5849,1.5907,1.5907,1.5907,1.5754,1.5693,1.5876,1.6522,1.7055,1.7273,1.837,1.9045,1.9008,1.9008,1.9221,1.9773,1.8832,1.8518,1.9045,1.9258,1.9397,1.9434,1.966,1.9685,1.9434,1.9434,1.9158,1.8631,1.838,1.8393,0.8704,0.8758,0.8791,0.8791,0.8791,0.8969,0.9653,0.9725,1.0024,1.1356,1.1857,1.2684,1.469,1.5794,0.0,1.9382,1.9835,1.9971,0.0,0.0,0.0,0.0,0.0,0.0,0.0,0.0,0.0,0.0,0.0,0.0,0.0,0.0,0.0,0.0,1.7991,1.7991,1.7991,1.7991,1.7647,1.694,1.7664,1.763,1.6922,1.683,1.6156,1.5016,1.3729,1.2643,1.1768,1.1516,1.2144,1.3334,1.3777,1.5151,1.7009,1.7733,1.7991,1.7991,1.7991,1.7734,1.738,1.7266,1.708,1.6908,1.7158,1.7389,1.7598,1.792,1.7991,1.7991,1.7991,1.7991,1.79,1.7507,1.7035,1.6596,1.6193,1.5737,1.5396,1.5396,1.5396,1.5396,1.5396,1.5396,1.5396,1.5396,1.5396,1.5454,1.5642,1.6631,1.7255,1.7013,1.8516,1.9456,1.9208,1.9183,1.9371,1.9773,1.9422,1.9321,1.9597,1.9346,1.9384,1.9798,1.9798,1.9798,1.9798,1.9798,1.9585,1.9183,1.9058,1.907,0.8435,0.8617,0.8791,0.8791,0.8791,0.8969,0.9653,0.9508,0.9542,1.057,1.1733,1.2789,1.3595,1.5695,1.7752,1.9121,1.9658,2.0186,0.0,0.0,0.0,0.0,0.0,0.0,0.0,0.0,0.0,0.0,0.0,0.0,0.0,0.0,0.0,0.0,0.0,1.7991,1.7991,1.7991,1.7974,1.7896,1.7974,1.7957,1.7886,1.7514,1.6388,1.472,1.4222,1.3035,1.1439,1.1412,1.2144,1.3381,1.429,1.5978,1.7906,1.7974,1.7991,1.7991,1.7991,1.7734,1.7331,1.6898,1.7015,1.7266,1.6879,1.7318,1.7952,1.7991,1.7991,1.7991,1.7991,1.7991,1.79,1.7507,1.7035,1.6596,1.6193,1.5737,1.5396,1.5396,1.5396,1.5396,1.5396,1.5396,1.5396,1.5396,1.5396,1.5657,1.6336,1.651,1.6828,1.7478,1.829,1.9033,1.9697,1.9735,1.9761,1.9798,1.9761,1.9535,1.9083,1.9497,1.9761,1.9798,1.9798,1.9798,1.9798,1.9798,1.9786,1.9736,1.9221,1.9271,0.8402,0.8597,0.8791,0.8791,0.8791,0.887,0.9119,0.9187,0.9307,0.9694,1.0841,1.248,1.4731,0.0,1.8748,1.9227,1.9882,0.0,0.0,0.0,0.0,0.0,0.0,0.0,0.0,0.0,0.0,0.0,0.0,0.0,0.0,0.0,0.0,0.0,0.0,1.7991,1.7991,1.7991,1.7991,1.7991,1.7991,1.7681,1.7112,1.6963,1.6213,1.4958,1.402,1.2883,1.169,1.1486,1.1805,1.2604,1.4325,1.6243,1.7991,1.7991,1.7991,1.7991,1.7991,1.7734,1.737,1.7187,1.7262,1.737,1.7187,1.7549,1.7991,1.7991,1.7991,1.7991,1.7991,1.7991,1.7815,1.7122,1.684,1.6518,1.5811,1.5527,1.5396,1.5396,1.5396,1.5396,1.5396,1.5396,1.5396,1.5396,1.5396,1.5497,1.5777,1.6222,1.6782,1.7523,1.8675,1.9501,1.9773,1.9798,1.9798,1.9798,1.9798,1.971,1.9509,1.9685,1.9798,1.9798,1.9798,1.9798,1.9798,1.9798,1.9798,1.9798,1.9585,1.961,0.8375,0.8597,0.8791,0.8791,0.8791,0.8818,0.8911,0.9158,0.9377,0.9471,1.085,1.2816,1.5426,1.743,0.0,0.0,0.0,0.0,0.0,0.0,0.0,0.0,0.0,0.0,0.0,0.0,0.0,0.0,0.0,0.0,0.0,0.0,0.0,0.0,0.0,1.7991,1.7991,1.7708,1.7708,1.7991,1.7699,1.7381,1.7043,1.6905,1.6143,1.486,1.3953,1.2826,1.1601,1.1452,1.177,1.2516,1.4339,1.6061,1.7586,1.7889,1.7991,1.7991,1.7991,1.7822,1.7575,1.7448,1.7487,1.7575,1.7438,1.7676,1.7991,1.7991,1.7991,1.7991,1.7991,1.7991,1.7776,1.6902,1.6697,1.6463,1.5591,1.5396,1.5396,1.5396,1.5396,1.5396,1.5396,1.5396,1.5396,1.5396,1.5396,1.5396,1.5396,1.5835,1.6514,1.7509,1.8715,1.9553,1.9785,1.9798,1.9798,1.9798,1.9798,1.9798,1.9798,1.9798,1.9798,1.9798,1.9798,1.9798,1.9798,1.9798,1.9798,1.9798,1.9798,1.9798,0.8309,0.8597,0.8791,0.8791,0.8798,0.8871,0.9144,0.9466,0.9781,1.0053,1.198,1.3994,1.5281,1.6558,0.0,0.0,0.0,0.0,0.0,0.0,0.0,0.0,0.0,0.0,0.0,0.0,0.0,0.0,0.0,0.0,0.0,0.0,0.0,0.0,0.0,0.0,1.7991,1.7087,1.7087,1.7991,1.707,1.7104,1.7981,1.7595,1.6288,1.4304,1.4172,1.2919,1.1039,1.1292,1.2144,1.3391,1.4319,1.5472,1.6706,1.7638,1.7991,1.7991,1.7991,1.7991,1.7922,1.7546,1.7683,1.793,1.7536,1.7676,1.7991,1.7991,1.7991,1.7991,1.7991,1.7991,1.7776,1.6902,1.6697,1.6463,1.5591,1.5396,1.5396,1.5396,1.5396,1.5396,1.5396,1.5396,1.5396,1.5396,1.5396,1.5396,1.5396,1.541,1.5983,1.744,1.8273,1.9018,1.9734,1.9798,1.9798,1.9798,1.9798,1.9798,1.9798,1.9798,1.9798,1.9798,1.9798,1.9798,1.9798,1.9798,1.9798,1.9798,1.9798,1.9798,0.8375,0.8597,0.8791,0.8791,0.8951,0.9241,0.9837,0.9646,0.9818,1.1519,1.2648,1.3946,1.5964,1.7151,0.0,0.0,0.0,0.0,0.0,0.0,0.0,0.0,0.0,0.0,0.0,0.0,0.0,0.0,0.0,0.0,0.0,0.0,0.0,0.0,0.0,0.0,1.7991,1.7716,1.7716,1.7991,1.7716,1.7725,1.8008,1.7881,1.6958,1.5393,1.479,1.3643,1.2145,1.1628,1.1909,1.2727,1.3222,1.4597,1.6278,1.6557,1.7227,1.7991,1.7991,1.7991,1.7988,1.7861,1.791,1.7988,1.7861,1.791,1.7991,1.7991,1.7991,1.7991,1.7991,1.7991,1.7776,1.6902,1.6697,1.6463,1.5591,1.5396,1.5396,1.5396,1.5396,1.5396,1.5396,1.5396,1.5396,1.5396,1.5396,1.5396,1.5396,1.6315,1.7121,1.755,1.8728,1.9553,1.9785,1.9798,1.9798,1.9798,1.9798,1.9798,1.9798,1.9798,1.9798,1.9798,1.9798,1.9798,1.9798,1.9798,1.9798,1.9798,1.9798,1.9798,0.853,0.8671,0.8791,0.8791,0.8925,0.9228,0.9947,1.0289,1.0917,1.2439,1.3354,1.4354,1.5926,1.7072,0.0,0.0,0.0,0.0,0.0,0.0,0.0,0.0,0.0,0.0,0.0,0.0,0.0,0.0,0.0,0.0,0.0,0.0,0.0,0.0,0.0,0.0,1.7991,1.763,1.763,1.7991,1.763,1.7647,1.7991,1.7842,1.694,1.5429,1.4122,1.2912,1.1826,1.1298,1.1389,1.1911,1.2613,1.3986,1.5611,1.6109,1.7018,1.7991,1.7991,1.7991,1.7991,1.7991,1.7991,1.7991,1.7991,1.7991,1.7991,1.7991,1.7991,1.7991,1.7991,1.7881,1.7571,1.6863,1.6697,1.6463,1.5591,1.5396,1.5396,1.5396,1.5396,1.5396,1.5396,1.5396,1.5396,1.5396,1.5396,1.5512,1.5791,1.687,1.7715,1.8004,1.9097,1.9798,1.9798,1.9798,1.9798,1.9798,1.9798,1.9798,1.9798,1.9798,1.9798,1.9798,1.9798,1.9798,1.9798,1.9798,1.9798,1.9798,1.9798,1.9798,0.8738,0.8791,0.8791,0.8791,0.8897,0.9173,0.9914,1.1337,1.2597,1.294,1.3976,1.498,1.5476,1.6525,0.0,0.0,0.0,0.0,0.0,0.0,0.0,0.0,0.0,0.0,0.0,0.0,0.0,0.0,0.0,0.0,0.0,0.0,0.0,0.0,0.0,0.0,1.7991,1.7156,1.7156,0.0,1.7101,1.7108,1.7864,1.7539,1.6484,1.4781,1.2779,1.1453,1.0697,1.0634,1.076,1.1121,1.2267,1.3481,1.4728,1.5982,1.7033,1.7879,1.7974,1.7991,1.7991,1.7991,1.7991,1.7991,1.7991,1.7991,1.7991,1.7991,1.7991,1.7981,1.7942,1.7666,1.7266,1.6771,1.6654,1.643,1.5581,1.5396,1.5396,1.5396,1.5396,1.5386,1.5347,1.5376,1.5396,1.5396,1.5396,1.5671,1.6407,1.7135,1.7882,1.8621,1.9371,1.9798,1.9798,1.9798,1.9798,1.9798,1.9798,1.9798,1.9798,1.9798,1.9798,1.9798,1.9798,1.9798,1.9798,1.9798,1.9798,1.9798,1.9798,1.9798,0.8791,0.8791,0.8791,0.8791,0.9588,1.0708,1.1946,1.2761,1.3226,1.3092,1.3756,1.4677,1.5768,0.0,0.0,0.0,0.0,0.0,0.0,0.0,0.0,0.0,0.0,0.0,0.0,0.0,0.0,0.0,0.0,0.0,0.0,0.0,0.0,0.0,0.0,1.7991,1.7991,1.7794,1.7794,0.0,1.7482,1.7144,1.6989,1.7266,1.6484,1.4821,1.3372,1.2282,1.15,1.0863,1.076,1.1035,1.1294,1.2306,1.3729,1.4743,1.5868,1.7018,1.7742,1.7991,1.7991,1.7991,1.7991,1.7991,1.7991,1.7991,1.7991,1.7991,1.7991,1.7939,1.7607,1.7468,1.7194,1.6427,1.6226,1.608,1.5513,1.5396,1.5396,1.5396,1.5396,1.5298,1.498,1.5195,1.5396,1.5396,1.5396,1.5671,1.6407,1.7135,1.7882,1.8621,1.9371,1.9798,1.9798,1.9798,1.9798,1.9798,1.9798,1.9798,1.9798,1.9798,1.9798,1.9798,1.9798,1.9798,1.9798,1.9798,1.9798,1.9798,1.9798,1.9798,0.8791,0.8791,0.8883,0.9198,1.0051,1.1078,1.2135,1.2862,1.3357,1.3537,1.4054,1.4814,1.5902,0.0,0.0,0.0,0.0,0.0,0.0,0.0,0.0,0.0,0.0,0.0,0.0,0.0,0.0,0.0,0.0,0.0,0.0,1.8108,1.7991,0.0,1.7991,1.7991,1.7991,1.7991,1.7991,1.8008,1.7578,1.7057,1.6416,1.6436,1.5872,1.4828,1.3549,1.2543,1.1741,1.0926,1.076,1.0995,1.0995,1.1936,1.3416,1.4344,1.5515,1.6723,1.7664,1.7991,1.7991,1.7991,1.7991,1.7991,1.7991,1.7871,1.7705,1.7705,1.7705,1.7607,1.7178,1.7054,1.6894,1.6251,1.6095,1.5977,1.5508,1.5254,1.5107,1.5107,1.4927,1.4713,1.4498,1.4644,1.4777,1.4777,1.4777,1.5255,1.6568,1.7081,1.7806,1.9099,1.9566,1.9798,1.9798,1.9798,1.9798,1.9798,1.9798,1.9798,1.9798,1.9798,1.9798,1.9798,1.9798,1.9798,1.9798,1.9798,1.9798,1.9798,1.9798,1.9798,0.8858,0.8958,0.9202,0.9816,1.0478,1.1153,1.1836,1.2595,1.3352,1.3964,1.4527,1.5122,0.0,0.0,0.0,0.0,0.0,0.0,0.0,0.0,0.0,0.0,0.0,0.0,0.0,0.0,0.0,0.0,0.0,0.0,1.79,1.7952,1.7991,1.7991,1.7991,1.7991,1.7991,1.7991,1.7991,1.7991,1.751,1.6822,1.5968,1.5576,1.5256,1.4912,1.3737,1.2757,1.1942,1.1139,1.0889,1.0995,1.1049,1.1883,1.3197,1.4357,1.5454,1.6515,1.7613,1.7942,1.79,1.79,1.79,1.79,1.79,1.7656,1.7419,1.7487,1.7409,1.7187,1.6794,1.6648,1.6488,1.607,1.5977,1.5865,1.5474,1.5078,1.4799,1.4799,1.4361,1.4026,1.4094,1.4046,1.4026,1.4094,1.4091,1.477,1.6619,1.6939,1.7681,1.9469,1.9735,1.9798,1.9798,1.9798,1.9798,1.9798,1.9798,1.9798,1.9798,1.9798,1.9798,1.9798,1.9798,1.9798,1.9798,1.9798,1.9798,1.9798,1.9798,1.9798,0.9084,0.961,1.0186,1.0563,1.1178,1.186,1.2593,1.3117,1.3575,0.0,1.4752,0.0,0.0,0.0,0.0,0.0,0.0,0.0,0.0,0.0,0.0,0.0,0.0,0.0,0.0,0.0,0.0,0.0,0.0,0.0,1.7487,1.7812,1.7991,1.7991,1.7991,1.7991,1.7991,1.7991,1.7991,1.7981,1.7181,1.6342,1.5498,1.5439,1.5381,1.5283,1.4419,1.3575,1.2772,1.1973,1.1395,1.1015,1.1252,1.1657,1.2335,1.4375,1.5245,1.564,1.7381,1.7773,1.7487,1.7487,1.7487,1.7487,1.7487,1.7448,1.7477,1.7822,1.7376,1.6775,1.6716,1.6445,1.605,1.5596,1.5483,1.5488,1.5405,1.5078,1.4799,1.4799,1.4141,1.3698,1.4046,1.3802,1.3698,1.4055,1.4091,1.4622,1.6114,1.6712,1.754,1.8971,1.9522,1.9798,1.9798,1.9798,1.9798,1.9798,1.9798,1.9798,1.9798,1.9798,1.9798,1.9798,1.9798,1.9798,1.9798,1.9798,1.9798,1.9798,1.9798,1.9798,0.9399,1.0178,1.0939,1.1285,1.1894,1.2501,1.2832,1.3389,1.3821,1.3763,1.4463,0.0,0.0,0.0,0.0,0.0,0.0,0.0,0.0,0.0,0.0,0.0,0.0,0.0,0.0,0.0,0.0,0.0,0.0,1.7119,1.7389,1.7308,1.7386,1.7656,1.7656,1.7549,1.7262,1.7757,1.7757,1.7269,1.665,1.6025,1.5396,1.5396,1.5396,1.5366,1.4555,1.3741,1.2933,1.2128,1.1483,1.1009,1.1136,1.1463,1.2144,1.4174,1.5034,1.5464,1.7346,1.7734,1.7399,1.7399,1.7217,1.7021,1.7021,1.7021,1.7002,1.695,1.6826,1.659,1.6093,1.605,1.5977,1.5518,1.5396,1.5396,1.5396,1.4878,1.4264,1.3822,1.3431,1.3213,1.3398,1.3281,1.3213,1.3408,1.3437,1.4003,1.5606,1.6311,1.7266,1.8821,1.9484,1.9798,1.9798,1.9798,1.9798,1.9798,1.9798,1.9798,1.9798,1.9798,1.9798,1.9798,1.9798,1.9798,1.9798,1.9798,1.9798,1.9798,1.9798,1.9798,0.9875,1.0825,1.1774,1.2052,1.2676,1.3203,1.3203,1.3669,1.4016,0.0,0.0,0.0,0.0,0.0,0.0,0.0,0.0,0.0,0.0,0.0,0.0,0.0,0.0,0.0,0.0,0.0,0.0,0.0,0.0,1.6709,1.7047,1.683,1.6869,1.7207,1.7217,1.7044,1.6707,1.7347,1.7288,1.6547,1.6236,1.5845,1.5396,1.5396,1.5469,1.5547,1.4823,1.4049,1.3243,1.2435,1.1749,1.1191,1.1125,1.134,1.1932,1.4049,1.4868,1.5203,1.7175,1.7516,1.7067,1.7067,1.6826,1.6547,1.6547,1.6547,1.6514,1.6314,1.6309,1.6254,1.5723,1.5747,1.5825,1.5474,1.5396,1.5337,1.5122,1.4562,1.386,1.3059,1.2905,1.2905,1.2905,1.2905,1.2905,1.2905,1.3029,1.3704,1.5298,1.6169,1.7234,1.8821,1.9484,1.9798,1.9798,1.9798,1.9798,1.9798,1.9798,1.9798,1.9798,1.9798,1.9798,1.9798,1.9798,1.9798,1.9798,1.9798,1.9798,1.9798,1.9798,1.9798,1.0588,1.1627,1.2859,1.3005,1.3545,1.4046,1.4046,0.0,1.4091,1.4062,0.0,0.0,0.0,0.0,0.0,0.0,0.0,0.0,0.0,0.0,0.0,0.0,0.0,0.0,0.0,0.0,0.0,0.0,0.0,1.6134,1.6163,1.6514,1.6716,1.6736,1.6736,1.6726,1.6697,1.6746,1.6547,1.6124,1.6105,1.5845,1.5396,1.5396,1.5635,1.6036,1.5551,1.4888,1.407,1.3274,1.2474,1.1729,1.1477,1.1232,1.1386,1.4152,1.4743,1.4471,1.6673,1.6887,1.6163,1.6163,1.6144,1.6124,1.6124,1.6124,1.6212,1.6566,1.6088,1.5566,1.5958,1.5747,1.5425,1.5405,1.5396,1.5171,1.4348,1.4133,1.386,1.3059,1.2905,1.2905,1.2905,1.2905,1.2905,1.2905,1.3384,1.4174,1.5346,1.6523,1.7702,1.8871,1.9484,1.9798,1.9798,1.9798,1.9798,1.9798,1.9798,1.9798,1.9798,1.9798,1.9798,1.9798,1.9798,1.9798,1.9798,1.9798,1.9798,1.9798,1.9798,1.9798,1.1701,1.2323,1.3045,1.3598,1.3917,1.4091,1.4091,1.4328,1.4381,1.3835,0.0,0.0,0.0,0.0,0.0,0.0,0.0,0.0,0.0,0.0,0.0,0.0,0.0,0.0,0.0,0.0,0.0,0.0,0.0,0.0,1.6075,1.5947,1.6,1.6304,1.6314,1.6445,1.6697,1.6157,1.5947,1.61,1.5796,1.5566,1.5405,1.5718,1.5948,1.6085,1.5928,1.539,1.4559,1.3451,1.2527,1.1755,1.1327,1.1407,1.1991,1.3821,1.4655,1.5064,1.6468,1.6588,1.6095,1.6095,1.5909,1.5644,1.5644,1.5855,1.6065,1.5903,1.5859,1.5816,1.5698,1.5527,1.5396,1.5396,1.5396,1.5161,1.4289,1.3899,1.3708,1.3678,1.3252,1.2981,1.3232,1.3069,1.2905,1.2905,1.3713,1.4481,1.4931,1.6641,1.7982,1.8433,1.9258,1.9798,1.9798,1.9798,1.9798,1.9798,1.9798,1.9798,1.9798,1.9798,1.9798,1.9798,1.9798,1.9798,1.9798,1.9798,1.9798,1.9798,1.9798,1.9798,1.2383,1.2881,1.3426,1.397,1.4319,1.4494,1.4371,1.458,1.4594,1.3854,0.0,0.0,0.0,0.0,0.0,0.0,0.0,0.0,0.0,0.0,0.0,0.0,0.0,0.0,0.0,0.0,0.0,0.0,0.0,0.0,1.586,1.5566,1.5537,1.5855,1.588,1.5986,1.6258,1.5688,1.5557,1.5855,1.5547,1.5474,1.5635,1.5796,1.6114,1.6515,1.6237,1.5796,1.5198,1.3937,1.2924,1.2174,1.1905,1.1908,1.225,1.39,1.4686,1.5079,1.6124,1.6221,1.588,1.588,1.5562,1.5205,1.5205,1.5415,1.5606,1.5283,1.5522,1.5796,1.5474,1.5396,1.5396,1.5396,1.5303,1.5049,1.4459,1.4,1.3708,1.3698,1.3262,1.2981,1.3252,1.3079,1.2954,1.3079,1.4135,1.505,1.5413,1.7188,1.8424,1.8458,1.9271,1.9736,1.9547,1.9698,1.9798,1.9798,1.9798,1.9798,1.9798,1.9622,1.9623,1.9798,1.961,1.961,1.9798,1.9798,1.9798,1.9798,1.9798,1.9798,0.0,0.0,0.0,1.4124,1.4781,1.5303,1.4916,1.4828,1.4697,0.0,0.0,0.0,0.0,0.0,0.0,0.0,0.0,0.0,0.0,0.0,0.0,0.0,0.0,0.0,0.0,0.0,0.0,0.0,0.0,1.5396,1.5396,1.5396,1.5396,1.5396,1.5396,1.5396,1.5396,1.5396,1.5396,1.5396,1.5396,1.5649,1.6056,1.5615,1.6133,1.7311,1.6467,1.6095,1.5995,1.4739,1.375,1.3057,1.3294,1.2774,1.215,1.4433,1.484,1.4417,1.5638,1.5767,1.5376,1.5376,1.5117,1.4799,1.4819,1.4819,1.4819,1.4819,1.5098,1.5396,1.5396,1.5396,1.5396,1.5396,1.5098,1.4819,1.4799,1.443,1.387,1.3088,1.2925,1.2893,1.2925,1.2937,1.3086,1.3473,1.4703,1.5917,1.6888,1.8181,1.902,1.9008,1.9484,1.9585,1.907,1.9497,1.9798,1.9773,1.9773,1.9773,1.9748,1.9246,1.9221,1.9773,1.9271,1.9259,1.9798,1.9798,1.9798,1.9798,1.9798,1.9811,1.316,0.0,0.0,0.0,0.0,0.0,1.5264,1.5503,1.5527,0.0,0.0,0.0,0.0,0.0,0.0,0.0,0.0,0.0,0.0,0.0,0.0,0.0,0.0,0.0,0.0,0.0,0.0,0.0,1.5396,1.5396,1.5396,1.5396,1.5396,1.5396,1.5396,1.5396,1.5396,1.5396,1.5396,1.5396,1.5396,1.5478,1.5596,1.5806,1.6114,1.6447,1.6202,1.6095,1.6024,1.509,1.4384,1.3818,1.3315,1.3282,1.3608,1.4266,1.4748,1.508,1.5138,1.5073,1.4975,1.4975,1.4897,1.4858,1.5146,1.522,1.522,1.522,1.5308,1.5396,1.5396,1.5396,1.5396,1.5396,1.5308,1.5156,1.4868,1.443,1.4023,1.3802,1.3301,1.2991,1.3281,1.3785,1.4165,1.4277,1.6067,1.734,1.7233,1.8595,1.9434,1.9045,1.9484,1.9748,1.9585,1.971,1.9622,1.9246,1.9221,1.9045,1.8668,1.8493,1.8669,1.9208,1.9083,1.9259,1.9798,1.9798,1.9798,1.9798,1.9798,2.0067,1.3196,1.3542,1.3922,1.4189,0.0,0.0,1.4908,1.5215,1.5312,0.0,0.0,0.0,0.0,0.0,0.0,0.0,0.0,0.0,0.0,0.0,0.0,0.0,0.0,0.0,0.0,0.0,0.0,1.5146,1.4966,1.4947,1.5137,1.5312,1.5396,1.5396,1.5396,1.5396,1.5396,1.5396,1.5396,1.5396,1.5396,1.5508,1.5684,1.5777,1.6011,1.6344,1.6173,1.6095,1.6064,1.5588,1.4924,1.4198,1.4055,1.407,1.4243,1.4584,1.4887,1.5117,1.4887,1.4668,1.4512,1.4512,1.4512,1.4547,1.4791,1.4996,1.5146,1.5146,1.5273,1.5396,1.5396,1.5396,1.5396,1.5396,1.5396,1.5278,1.4887,1.443,1.4091,1.4091,1.3591,1.3271,1.3678,1.4361,1.4921,1.5111,1.6831,1.8057,1.7898,1.8806,1.9346,1.9033,1.9284,1.9371,1.9158,1.9346,1.9246,1.8706,1.8669,1.8531,1.8205,1.799,1.8129,1.8669,1.8443,1.8719,1.9472,1.9685,1.9798,1.9811,2.0093,2.0283,1.2905,1.3184,1.3503,0.0,1.415,0.0,1.4319,1.458,1.4652,0.0,0.0,0.0,0.0,0.0,0.0,0.0,0.0,0.0,0.0,0.0,0.0,0.0,0.0,0.0,0.0,1.4838,1.4868,1.4868,1.4439,1.4381,1.4848,1.5166,1.5347,1.5396,1.5396,1.5396,1.5396,1.5396,1.5396,1.5396,1.5396,1.5615,1.6007,1.5586,1.5825,1.6547,1.6177,1.6016,1.6016,1.6016,1.5339,1.4406,1.5123,1.4933,1.4357,1.5071,1.5078,1.4721,1.4672,1.4381,1.4046,1.4094,1.4091,1.4124,1.4221,1.4537,1.4868,1.4868,1.5117,1.5396,1.5396,1.5396,1.5396,1.5396,1.5396,1.5298,1.4946,1.4498,1.4192,1.4241,1.3831,1.363,1.4036,1.4829,1.555,1.5964,1.7319,1.8422,1.8786,1.8929,1.9008,1.9008,1.9008,1.8782,1.8254,1.8694,1.8757,1.8154,1.8116,1.8079,1.8004,1.7551,1.7562,1.8103,1.7763,1.8053,1.9008,1.9535,1.9798,1.9824,2.0484,2.0522,0.0,0.0,0.0,0.0,0.0,0.0,1.5005,1.521,1.522,0.0,0.0,0.0,0.0,0.0,0.0,0.0,0.0,0.0,0.0,0.0,0.0,0.0,0.0,0.0,0.0,1.5088,1.5278,1.5278,1.4893,1.4844,1.5249,1.5049,1.5068,1.5386,1.5396,1.5396,1.5396,1.5396,1.5396,1.5396,1.5396,1.5444,1.5537,1.5435,1.5493,1.5649,1.5576,1.5537,1.5537,1.5537,1.5386,1.5182,1.5337,1.5104,1.4705,1.486,1.4639,1.4182,1.3864,1.3688,1.3669,1.3984,1.4091,1.4231,1.4923,1.521,1.5278,1.5278,1.5337,1.5396,1.5396,1.5396,1.5396,1.5396,1.5396,1.5376,1.5298,1.4961,1.4756,1.5083,1.4254,1.363,1.4036,1.5524,1.6675,1.6775,1.8311,1.9493,1.9579,1.9246,1.9008,1.9008,1.9008,1.8782,1.8254,1.8694,1.8594,1.7613,1.7562,1.7349,1.685,1.6724,1.6961,1.7537,1.8292,1.8795,1.9008,1.9535,1.9798,1.9824,2.0484,2.0991,0.0,0.0,0.0,1.3708,0.0,0.0,0.0,1.4927,1.498,1.4537,1.4805,0.0,0.0,0.0,0.0,0.0,0.0,0.0,0.0,0.0,0.0,0.0,0.0,0.0,0.0,1.4971,1.4996,1.4781,1.4971,1.5098,1.5098,1.5098,1.5195,1.5386,1.5396,1.5396,1.5396,1.5396,1.5396,1.5396,1.5396,1.5396,1.5396,1.5396,1.5396,1.5396,1.5396,1.5396,1.5396,1.5396,1.5396,1.5396,1.5396,1.5283,1.5068,1.4863,1.4502,1.4046,1.3639,1.3369,1.3262,1.3669,1.3938,1.4231,1.4902,1.5244,1.5396,1.5396,1.5396,1.5396,1.5396,1.5396,1.5396,1.5396,1.5396,1.5396,1.5396,1.5078,1.4926,1.5318,1.4727,1.4277,1.4683,1.6161,1.7301,1.7301,1.8731,1.9798,1.9798,1.9095,1.8694,1.897,1.8518,1.8091,1.7815,1.8053,1.784,1.6999,1.6948,1.6823,1.65,1.65,1.6649,1.6948,1.7765,1.833,1.8606,1.9146,1.9535,1.9824,2.0794,2.1245,0.0,0.0,0.0,0.0,0.0,1.4055,0.0,0.0,0.0,1.4004,0.0,0.0,0.0,0.0,0.0,0.0,0.0,0.0,0.0,0.0,0.0,0.0,0.0,0.0,0.0,1.5122,1.4871,1.4168,1.4998,1.5293,1.471,1.5075,1.5322,1.5396,1.5396,1.5396,1.5396,1.5396,1.5396,1.5396,1.5396,1.5396,1.5396,1.5396,1.5396,1.5396,1.5396,1.5396,1.5386,1.5322,1.5327,1.5396,1.5396,1.5298,1.5113,1.4785,1.4336,1.3821,1.3506,1.3164,1.2974,1.3369,1.3821,1.4309,1.4775,1.5146,1.5396,1.5396,1.5396,1.5396,1.5396,1.5396,1.5376,1.5298,1.5337,1.5376,1.5298,1.5088,1.501,1.5342,1.5137,1.501,1.5337,1.6617,1.755,1.7413,1.8768,1.9709,1.9468,1.8708,1.833,1.8669,1.7915,1.7349,1.7236,1.7324,1.7148,1.6549,1.65,1.65,1.65,1.65,1.65,1.65,1.7087,1.7663,1.8204,1.8744,1.9284,1.9824,2.111,2.1436,0.0,0.0,0.0,0.0,1.3792,0.0,0.0,0.0,1.4863,1.5137,0.0,0.0,0.0,0.0,0.0,0.0,0.0,0.0,0.0,0.0,0.0,0.0,0.0,0.0,0.0,0.0,1.5846,1.4295,1.5331,1.5507,1.4331,1.4649,1.5029,1.5386,1.5396,1.5396,1.5396,1.5396,1.5396,1.5396,1.5396,1.5396,1.5396,1.5396,1.5396,1.5396,1.5396,1.5396,1.5366,1.5024,1.5078,1.5396,1.5396,1.4937,1.425,1.4202,1.3688,1.303,1.2981,1.2944,1.2974,1.3369,1.4053,1.4799,1.5215,1.5357,1.5396,1.5396,1.5396,1.5396,1.5396,1.5396,1.5308,1.4941,1.5137,1.5298,1.4955,1.5107,1.5352,1.5386,1.5357,1.5352,1.5386,1.6617,1.7385,1.6722,1.8447,1.9392,1.8251,1.8167,1.8041,1.7625,1.7462,1.7186,1.6649,1.7087,1.7148,1.6549,1.65,1.65,1.65,1.65,1.65,1.65,1.7087,1.7663,1.8204,1.8744,1.9284,1.9824,2.111,2.1661,0.0,0.0,0.0,0.0,0.0,0.0,1.4863,0.0,1.5127,0.0,0.0,0.0,0.0,0.0,0.0,0.0,1.5757,0.0,0.0,0.0,0.0,0.0,0.0,0.0,0.0,0.0,0.0,0.0,0.0,1.5749,1.4937,1.5071,1.5234,1.5386,1.5396,1.5396,1.5396,1.5396,1.5396,1.541,1.5166,1.5049,1.5049,1.5049,1.5049,1.5059,1.5303,1.5273,1.5039,1.4877,1.4907,1.5049,1.5049,1.4971,1.483,1.4586,1.4287,1.3958,1.3688,1.36,1.3669,1.4111,1.4658,1.5186,1.5347,1.5396,1.5396,1.5396,1.5396,1.5396,1.5396,1.5396,1.5371,1.5186,1.5283,1.5347,1.5171,1.5283,1.5396,1.5396,1.5748,1.6036,1.6036,1.6908,1.7647,1.7759,1.8927,1.9608,1.9064,1.8523,1.8116,1.789,1.7275,1.6774,1.6523,1.6724,1.6762,1.6523,1.65,1.65,1.65,1.6835,1.6861,1.65,1.7087,1.7663,1.8204,1.843,1.897,1.9824,2.111,2.1911,1.2375,0.0,0.0,0.0,0.0,0.0,0.0,0.0,0.0,0.0,0.0,0.0,0.0,0.0,0.0,1.5273,0.0,1.5923,0.0,0.0,0.0,0.0,0.0,0.0,0.0,0.0,0.0,0.0,1.5997,1.6047,1.5117,1.5279,1.5396,1.5396,1.5396,1.5396,1.5396,1.5278,1.5244,1.5234,1.4805,1.4609,1.4609,1.4609,1.4609,1.4619,1.4917,1.4869,1.46,1.4496,1.4502,1.46,1.4496,1.4766,1.5205,1.4916,1.4721,1.4561,1.4221,1.4091,1.4182,1.4648,1.5004,1.5264,1.5366,1.5396,1.5396,1.5396,1.5396,1.5396,1.5396,1.5396,1.5366,1.5249,1.5322,1.5366,1.5264,1.5318,1.5396,1.5396,1.5835,1.6326,1.6736,1.7413,1.8004,1.8353,1.9202,1.9671,1.9329,1.8647,1.8141,1.8003,1.7088,1.65,1.65,1.65,1.65,1.65,1.6661,1.6674,1.65,1.6923,1.7035,1.6749,1.7011,1.7576,1.8418,1.8267,1.8854,2.0105,2.1195,2.1958,0.0,0.0,0.0,1.388,0.0,0.0,0.0,0.0,1.4936,0.0,0.0,0.0,0.0,0.0,1.4313,1.475,1.4828,0.0,0.0,0.0,0.0,0.0,0.0,0.0,0.0,0.0,0.0,1.5067,1.6437,1.645,1.4351,1.4977,1.5396,1.5396,1.5396,1.5396,1.5396,1.501,1.4819,1.4819,1.4352,1.412,1.412,1.412,1.412,1.412,1.4143,1.413,1.4094,1.3698,1.3776,1.4085,1.3698,1.4062,1.4819,1.4799,1.4508,1.4124,1.4114,1.4091,1.4182,1.4648,1.4809,1.4897,1.5283,1.5396,1.5396,1.5396,1.5396,1.5396,1.5396,1.5396,1.5298,1.4902,1.5117,1.5278,1.4907,1.5127,1.5396,1.5396,1.5425,1.5882,1.733,1.8192,1.8434,1.7743,1.8861,1.9354,1.8115,1.8105,1.8003,1.7475,1.6873,1.65,1.65,1.65,1.65,1.65,1.7049,1.7099,1.6525,1.6523,1.6787,1.7361,1.6823,1.734,1.897,1.8456,1.9083,2.0783,2.14,2.1708,0.0,0.0,1.2305,1.2896,0.0,0.0,0.0,0.0,0.0,0.0,0.0,0.0,0.0,0.0,1.4927,1.4819,1.5019,1.5415,0.0,0.0,0.0,0.0,0.0,0.0,0.0,0.0,0.0,1.5729,1.5928,1.5759,0.0,1.524,1.5396,1.5396,1.5146,1.5,1.5,1.4557,1.4342,1.4332,1.3913,1.3708,1.3708,1.3708,1.3708,1.3727,1.3987,1.3948,1.3698,1.3564,1.3581,1.3698,1.3552,1.4033,1.4799,1.4799,1.4863,1.4966,1.4966,1.4966,1.4996,1.5156,1.5205,1.5225,1.5371,1.5396,1.5396,1.5396,1.5396,1.5396,1.5396,1.5396,1.5366,1.5234,1.5298,1.5357,1.5234,1.5298,1.5396,1.5396,1.5791,1.6439,1.7426,1.8219,1.8781,1.9018,1.9475,1.9633,1.9215,1.8921,1.8518,1.799,1.7752,1.7314,1.6563,1.6873,1.7098,1.7098,1.7297,1.7135,1.6525,1.6875,1.7198,1.741,1.7551,1.8079,1.9008,1.882,1.9207,2.0144,2.0794,2.1559,1.044,1.0927,0.0,1.232,1.3013,0.0,1.4607,0.0,0.0,0.0,0.0,0.0,0.0,0.0,1.4683,1.457,1.4912,1.5342,0.0,1.6211,0.0,0.0,0.0,0.0,0.0,0.0,1.6035,1.5855,1.5859,1.5727,0.0,0.0,1.5396,1.5396,1.5014,1.4799,1.4799,1.4186,1.389,1.388,1.3486,1.3281,1.3281,1.3281,1.3281,1.3301,1.3561,1.3522,1.3281,1.3281,1.3281,1.3281,1.3281,1.3799,1.457,1.474,1.5049,1.5396,1.5396,1.5396,1.5396,1.5396,1.5396,1.5396,1.5396,1.5396,1.5425,1.5596,1.5527,1.5435,1.562,1.5527,1.5396,1.5396,1.5396,1.5396,1.5396,1.5396,1.5396,1.5396,1.5777,1.6425,1.7426,1.799,1.8648,1.9656,1.9798,1.9798,1.9798,1.9334,1.887,1.8518,1.8305,1.7891,1.7163,1.7639,1.7814,1.7412,1.7575,1.7325,1.6525,1.6873,1.735,1.7953,1.7715,1.8255,1.961,1.9008,1.9207,2.0169,2.0597,2.1477]},{"header":{"parameterUnit":"m.s-1","parameterCategory":1,"la1":30.6,"la2":29.2853,"lo1":-89.7004,"lo2":-87.6739,"dy":0.0162,"dx":0.0183,"nx":112,"ny":82,"refTime":"2023-11-19T06:00:00:Z","depth":0,"parameterNumber":3,"parameterNumberName":"V-component_of_WINDS"},"data":[0.0,0.0,0.0,0.0,0.0,0.0,0.0,0.0,0.0,0.0,0.0,0.0,0.0,0.0,0.0,0.0,0.0,0.0,0.0,0.0,0.0,0.0,0.0,0.0,0.0,0.0,0.0,0.0,0.0,0.0,0.0,0.0,0.0,0.0,0.0,0.0,0.0,0.0,0.0,0.0,0.0,0.0,0.0,0.0,0.0,0.0,0.0,0.0,0.0,0.0,0.0,0.0,0.0,0.0,0.0,0.0,0.0,0.0,0.0,0.0,0.0,0.0,0.0,0.0,0.0,0.0,0.0,0.0,0.0,0.0,0.0,0.0,0.0,0.0,0.0,0.0,0.0,0.0,0.0,0.0,0.0,0.0,0.0,0.0,0.0,0.0,0.0,0.0,0.0,0.0,0.8979,0.8147,0.6842,0.53,0.3509,0.3096,0.3457,0.4683,0.0,0.0,0.0,0.0,0.0,0.0,0.0,0.0,0.0,0.0,0.0,0.0,0.0,0.0,0.0,0.0,0.0,0.0,0.0,0.0,0.0,0.0,0.0,0.0,0.0,0.0,0.0,0.0,0.0,0.0,0.0,0.0,0.0,0.0,0.0,0.0,0.0,0.0,0.0,0.0,0.0,0.0,0.0,0.0,0.0,0.0,0.0,0.0,0.0,0.0,0.0,0.0,0.0,0.0,0.0,0.0,0.0,0.0,0.0,0.0,0.0,0.0,0.0,0.0,0.0,0.0,0.0,0.0,0.0,0.0,0.0,0.0,0.0,0.0,0.0,0.0,0.0,0.0,0.0,0.0,0.0,0.0,0.0,0.0,0.0,0.0,0.0,0.0,0.0,0.0,0.0,0.0,0.0,0.0,0.0,0.0,0.0,0.0,0.0,0.0,0.0,0.0,0.0,0.0,0.8218,0.6704,0.6311,0.5347,0.332,0.3094,0.3375,0.409,0.0,0.0,0.0,0.0,0.0,0.0,0.0,0.0,0.0,0.0,0.0,0.0,0.0,0.0,0.0,0.0,0.0,0.0,0.0,0.0,0.0,0.0,0.0,0.0,0.0,0.0,0.0,0.0,0.0,0.0,0.0,0.0,0.0,0.0,0.0,0.0,0.0,0.0,0.0,0.0,0.0,0.0,0.0,0.0,0.0,0.0,0.0,0.0,0.0,0.0,0.0,0.0,0.0,0.0,0.0,0.0,0.0,0.0,0.0,0.0,0.0,0.0,0.0,0.0,0.0,0.0,0.0,0.0,0.0,0.0,0.0,0.0,0.0,0.0,0.0,0.0,0.0,0.0,0.0,0.0,0.0,0.0,0.0,0.0,0.0,0.0,0.0,0.0,0.0,0.0,0.0,0.0,0.0,0.0,0.0,0.0,0.0,0.0,0.0,0.0,0.0,0.0,0.0,0.9139,0.8129,0.6488,0.625,0.5435,0.3531,0.3205,0.3532,0.4533,0.5799,0.0,0.0,0.0,0.0,0.0,0.0,0.0,0.0,0.0,0.0,0.0,0.0,0.0,0.0,0.0,0.0,0.0,0.0,0.0,0.0,0.0,0.0,0.0,0.0,0.0,0.0,0.0,0.0,0.0,0.0,0.0,0.0,0.0,0.0,0.0,0.0,0.0,0.0,0.0,0.0,0.0,0.0,0.0,0.0,0.0,0.0,0.0,0.0,0.0,0.0,0.0,0.0,0.0,0.0,0.0,0.0,0.0,0.0,0.0,0.0,0.0,0.0,0.0,0.0,0.0,0.0,0.0,0.0,0.0,0.0,0.0,0.0,0.0,0.0,0.0,0.0,0.0,0.0,0.0,0.0,0.0,0.0,0.0,0.0,0.0,0.0,0.0,0.0,0.0,0.0,0.0,0.0,0.0,0.0,0.0,0.0,0.0,0.0,0.0,0.0,0.0,0.0,0.9454,0.8397,0.6735,0.6478,0.5686,0.3891,0.3479,0.3785,0.4908,0.5935,0.0,0.0,0.0,0.0,0.0,0.0,0.0,0.0,0.0,0.0,0.0,0.0,0.0,0.0,0.0,0.0,0.0,0.0,0.0,0.0,0.0,0.0,0.0,0.0,0.0,0.0,0.0,0.0,0.0,0.0,0.0,0.0,0.0,0.0,0.0,0.0,0.0,0.0,0.0,0.0,0.0,0.0,0.0,0.0,0.0,0.0,0.0,0.0,0.0,0.0,0.0,0.0,0.0,0.0,0.0,0.0,0.0,0.0,0.0,0.0,0.0,0.0,0.0,0.0,0.0,0.0,0.0,0.0,0.0,0.0,0.0,0.0,0.0,0.0,0.0,0.0,0.0,0.0,0.0,0.0,0.0,0.0,0.0,0.0,0.0,0.0,0.0,0.0,0.0,0.0,0.0,0.0,0.0,0.0,0.0,0.0,0.0,0.0,0.0,0.0,0.0,0.0,0.9653,0.9043,0.7249,0.7044,0.6257,0.4319,0.4023,0.4138,0.4608,0.5808,0.0,0.0,0.0,0.0,0.0,0.0,0.0,0.0,0.0,0.0,0.0,0.0,0.0,0.0,0.0,0.0,0.0,0.0,0.0,0.0,0.0,0.0,0.0,0.0,0.0,0.0,0.0,0.0,0.0,0.0,0.0,0.0,0.0,0.0,0.0,0.0,0.0,0.0,0.0,0.0,0.0,0.0,0.0,0.0,0.0,0.0,0.0,0.0,0.0,0.0,0.0,0.0,0.0,0.0,0.0,0.0,0.0,0.0,0.0,0.0,0.0,0.0,0.0,0.0,0.0,0.0,0.0,0.0,0.0,0.0,0.0,0.0,0.0,0.0,0.0,0.0,0.0,0.0,0.0,0.0,0.0,0.0,0.0,0.0,0.0,0.0,0.0,0.0,0.0,0.0,0.0,0.0,0.0,0.0,0.0,0.0,0.0,0.0,0.0,0.0,0.0,0.0,0.9855,0.9105,0.0,0.7098,0.6498,0.5014,0.4571,0.4728,0.5546,0.0,0.0,0.0,0.0,0.0,0.0,0.0,0.0,0.0,0.0,0.0,0.0,0.0,0.0,0.0,0.0,0.0,0.0,0.0,0.0,0.0,0.0,0.0,0.0,0.0,0.0,0.0,0.0,0.0,0.0,0.0,0.0,0.0,0.0,0.0,0.0,0.0,0.0,0.0,0.0,0.0,0.0,0.0,0.0,0.0,0.0,0.0,0.0,0.0,0.0,0.0,0.0,0.0,0.0,0.0,0.0,0.0,0.0,0.0,0.0,0.0,0.0,0.0,0.0,0.0,0.0,0.0,0.0,0.0,0.0,0.0,0.0,0.0,0.0,0.0,0.0,0.0,0.0,0.0,0.0,0.0,0.0,0.0,0.0,0.0,0.0,0.0,0.0,0.0,0.0,0.0,0.0,0.0,0.0,0.0,0.0,0.0,0.0,0.0,0.0,0.0,0.0,1.0569,1.0204,0.939,0.0,0.7411,0.6786,0.568,0.5157,0.5337,0.6392,0.0,0.0,0.0,0.0,0.0,0.0,0.0,0.0,0.0,0.0,0.0,0.0,0.0,0.0,0.0,0.0,0.0,0.0,0.0,0.0,0.0,0.0,0.0,0.0,0.0,0.0,0.0,0.0,0.0,0.0,0.0,0.0,0.0,0.0,0.0,0.0,0.0,0.0,0.0,0.0,0.0,0.0,0.0,0.0,0.0,0.0,0.0,0.0,0.0,0.0,0.0,0.0,0.0,0.0,0.0,0.0,0.0,0.0,0.0,0.0,0.0,0.0,0.0,0.0,0.0,0.0,0.0,0.0,0.0,0.0,0.0,0.0,0.0,0.0,0.0,0.0,0.0,0.0,0.0,0.0,0.0,0.0,0.0,0.0,0.0,0.0,0.0,0.0,0.0,0.0,0.0,0.0,0.0,0.0,0.0,0.0,0.0,0.0,0.0,0.0,0.0,0.0,1.13,1.0728,1.0014,0.9004,0.8057,0.715,0.6277,0.5782,0.5944,0.0,0.0,0.0,0.0,0.0,0.0,0.0,0.0,0.0,0.0,0.0,0.0,0.0,0.0,0.0,0.0,0.0,0.0,0.0,0.0,0.0,0.0,0.0,0.0,0.0,0.0,0.0,0.0,0.0,0.0,0.0,0.0,0.0,0.0,0.0,0.0,0.0,0.0,0.0,0.0,0.0,0.0,0.0,0.0,0.0,0.0,0.0,0.0,0.0,0.0,0.0,0.0,0.0,0.0,0.0,0.0,0.0,0.0,0.0,0.0,0.0,0.0,0.0,0.0,0.0,0.0,0.0,0.0,0.0,0.0,0.0,0.0,0.0,0.0,0.0,0.0,0.0,0.0,0.0,0.0,0.0,0.0,0.0,0.0,0.0,0.0,0.0,0.0,0.0,0.0,0.0,0.0,0.0,0.0,0.0,0.0,0.0,0.0,0.0,0.0,0.0,0.0,0.0,1.1734,1.0916,1.0014,0.9004,0.8057,0.7304,0.6804,0.6557,0.6767,0.7591,0.0,0.0,0.0,0.0,0.0,0.0,0.0,0.0,0.0,0.0,0.0,0.0,0.0,0.0,0.0,0.0,0.0,0.0,0.0,0.0,0.0,0.0,0.0,0.0,0.0,0.0,0.0,0.0,0.0,0.0,0.0,0.0,0.0,0.0,0.0,0.0,0.0,0.0,0.0,0.0,0.0,0.0,0.0,0.0,0.0,0.0,0.0,0.0,0.0,0.0,0.0,0.0,0.0,0.0,0.0,0.0,0.0,0.0,0.0,0.0,0.0,0.0,0.0,0.0,0.0,0.0,0.0,0.0,0.0,0.0,0.0,0.0,0.0,0.0,0.0,0.0,0.0,0.0,0.0,0.0,0.0,0.0,0.0,0.0,0.0,0.0,0.0,0.0,0.0,0.0,0.0,0.0,0.0,0.0,0.0,0.0,0.0,0.0,0.0,0.0,0.0,0.0,1.2089,1.1149,1.0254,0.9466,0.8341,0.7577,0.7377,0.7158,0.7294,0.7899,0.0,0.0,0.0,0.0,0.0,0.0,0.0,0.0,0.0,0.0,0.0,0.0,0.0,0.0,0.0,0.0,0.0,0.0,0.0,0.0,0.0,0.0,0.0,0.0,0.0,0.0,0.0,0.0,0.0,0.0,0.0,0.0,0.0,0.0,0.0,0.0,0.0,0.0,0.0,0.0,0.0,0.0,0.0,0.0,0.0,0.0,0.0,0.0,0.0,0.0,0.0,0.0,0.0,0.0,0.0,0.0,0.0,0.0,0.0,0.0,0.0,0.0,0.0,0.0,0.0,0.0,0.0,0.0,0.0,0.0,0.0,0.0,0.0,0.0,0.0,0.0,0.0,0.0,0.0,0.0,0.0,0.0,0.0,0.0,0.0,0.0,0.0,0.0,0.0,0.0,0.0,0.0,0.0,0.0,0.0,0.0,0.0,0.0,0.0,0.0,0.0,0.0,1.2413,1.1407,1.0637,1.0219,0.8852,0.7974,0.7974,0.77,0.7684,0.8054,0.0,0.0,0.0,0.0,0.0,0.0,0.0,0.0,0.0,0.0,0.0,0.0,0.0,0.0,0.0,0.0,0.0,0.0,0.0,0.0,0.0,0.0,0.0,0.0,0.0,0.0,0.0,0.0,0.0,0.0,0.0,0.0,0.0,0.0,0.0,0.0,0.0,0.0,0.0,0.0,0.0,0.0,0.0,0.0,0.0,0.0,0.0,0.0,0.0,0.0,0.0,0.0,0.0,0.0,0.0,0.0,0.0,0.0,0.0,0.0,1.5618,0.0,0.0,0.0,0.0,0.0,0.0,0.0,0.0,0.0,0.0,0.0,0.0,0.0,0.0,0.0,0.0,0.0,0.0,0.0,0.0,0.0,0.0,0.0,0.0,0.0,0.0,0.0,0.0,0.0,0.0,0.0,0.0,0.0,0.0,0.0,0.0,0.0,0.0,0.0,0.0,0.0,1.2902,1.1618,1.0757,1.0664,0.938,0.8531,0.8531,0.8512,0.8538,0.8631,0.927,0.0,0.0,0.0,0.0,0.0,0.0,0.0,0.0,0.0,0.0,0.0,0.0,0.0,0.0,0.0,0.0,0.0,0.0,0.0,0.0,0.0,0.0,0.0,0.0,0.0,0.0,0.0,0.0,0.0,0.0,0.0,0.0,0.0,0.0,0.0,0.0,0.0,0.0,0.0,0.0,0.0,0.0,0.0,0.0,0.0,0.0,0.0,0.0,0.0,0.0,0.0,0.0,0.0,0.0,0.0,0.0,0.0,0.0,0.0,0.0,1.6294,0.0,0.0,0.0,0.0,0.0,0.0,0.0,0.0,0.0,0.0,0.0,0.0,0.0,0.0,0.0,0.0,0.0,0.0,0.0,0.0,0.0,0.0,0.0,0.0,0.0,0.0,0.0,0.0,0.0,0.0,0.0,0.0,0.0,0.0,0.0,0.0,0.0,0.0,0.0,0.0,1.2754,1.1757,1.1095,1.0875,0.9788,0.9079,0.9079,0.9113,0.9043,0.8818,0.9968,0.0,0.0,0.0,0.0,0.0,0.0,0.0,0.0,0.0,0.0,0.0,0.0,0.0,0.0,0.0,0.0,0.0,0.0,0.0,0.0,0.0,0.0,0.0,0.0,0.0,0.0,0.0,0.0,0.0,0.0,0.0,0.0,0.0,0.0,0.0,0.0,0.0,0.0,0.0,0.0,0.0,0.0,0.0,0.0,0.0,0.0,0.0,0.0,0.0,0.0,0.0,0.0,0.0,0.0,1.9225,1.916,1.883,1.8656,1.8555,1.7713,1.7051,1.6565,0.0,0.0,0.0,0.0,0.0,0.0,0.0,0.0,0.0,0.0,0.0,0.0,0.0,0.0,0.0,0.0,0.0,0.0,0.0,0.0,0.0,0.0,0.0,0.0,0.0,1.3382,1.2928,0.0,0.0,0.0,0.0,0.0,0.0,0.0,0.0,0.0,0.0,0.0,0.0,1.2687,1.2054,1.1567,1.1075,1.0195,0.9637,0.9637,0.9637,0.9482,0.9106,1.0691,1.1523,0.0,0.0,0.0,0.0,0.0,0.0,0.0,0.0,0.0,0.0,0.0,0.0,0.0,0.0,0.0,0.0,0.0,0.0,0.0,0.0,0.0,0.0,0.0,0.0,0.0,0.0,0.0,0.0,0.0,0.0,0.0,0.0,2.2211,2.2171,0.0,0.0,0.0,0.0,0.0,0.0,0.0,0.0,0.0,0.0,0.0,0.0,0.0,0.0,1.9426,2.0049,2.0077,1.9508,2.0052,2.0154,1.987,1.9818,1.9638,1.937,1.951,0.0,1.7557,1.7025,0.0,0.0,0.0,0.0,0.0,0.0,0.0,0.0,0.0,0.0,0.0,0.0,0.0,0.0,0.0,0.0,0.0,0.0,0.0,0.0,0.0,0.0,1.4513,1.3938,1.3722,1.3659,0.0,1.3733,1.3997,1.4527,0.0,0.0,0.0,0.0,0.0,0.0,0.0,0.0,1.3753,1.2884,1.216,1.1561,1.0711,1.0186,1.0186,1.0186,1.0193,1.019,1.0705,1.1237,1.1687,1.2148,0.0,0.0,0.0,0.0,0.0,0.0,0.0,0.0,0.0,0.0,0.0,0.0,0.0,0.0,0.0,0.0,0.0,0.0,0.0,0.0,0.0,0.0,0.0,0.0,0.0,0.0,0.0,0.0,0.0,2.3442,2.3204,2.2623,2.178,2.1235,0.0,0.0,0.0,0.0,0.0,0.0,0.0,0.0,0.0,1.9991,2.0443,2.0604,2.0468,2.1164,2.1365,2.1075,2.1382,2.1428,2.1275,2.1023,2.0815,2.0661,2.0398,1.9917,1.9272,1.8792,1.9305,2.0401,0.0,0.0,0.0,0.0,0.0,1.9452,1.8835,0.0,0.0,0.0,0.0,0.0,0.0,0.0,0.0,0.0,0.0,0.0,0.0,0.0,0.0,1.4579,1.4073,1.3797,1.3797,1.3797,1.3998,0.0,1.5513,1.6296,1.6812,0.0,0.0,0.0,0.0,0.0,1.4468,1.3477,1.2689,1.2159,1.1536,1.102,1.0725,1.0973,1.116,1.1173,1.1562,1.1926,1.2181,1.262,1.2956,0.0,0.0,0.0,0.0,0.0,0.0,0.0,0.0,0.0,0.0,0.0,0.0,0.0,0.0,0.0,0.0,0.0,0.0,0.0,0.0,0.0,0.0,0.0,0.0,0.0,0.0,0.0,0.0,2.3514,2.3357,2.2473,2.1765,2.139,0.0,0.0,0.0,0.0,0.0,0.0,2.1051,2.0586,2.0487,2.0859,2.1448,2.1766,2.1766,2.231,2.2489,2.2296,2.2489,2.2489,2.2289,2.2126,2.1952,2.1746,2.1206,2.0958,2.0912,2.0269,2.0477,2.1197,2.1197,2.1657,2.2279,2.2083,2.162,2.1012,2.0834,1.9794,1.8595,1.8871,0.0,1.9353,1.9093,0.0,0.0,0.0,0.0,1.9298,1.882,0.0,1.6844,1.5931,1.5335,1.4947,1.4826,1.4933,1.5045,0.0,1.6219,1.7243,1.7341,0.0,0.0,0.0,0.0,1.6219,1.5073,1.4196,1.3417,1.2752,1.2274,1.1788,1.1246,1.157,1.1847,1.1966,1.2312,1.2553,1.2668,1.3012,1.3198,1.3198,0.0,0.0,0.0,0.0,0.0,0.0,0.0,0.0,0.0,0.0,0.0,0.0,0.0,0.0,0.0,0.0,0.0,0.0,0.0,0.0,0.0,0.0,0.0,0.0,0.0,0.0,0.0,0.0,0.0,2.0684,2.0367,0.0,0.0,0.0,0.0,2.1212,2.1036,2.1075,2.1446,2.1252,2.1783,2.3173,2.3265,2.3282,2.3282,2.3332,2.2987,2.2303,2.3004,2.2987,2.232,2.2999,2.2924,2.2258,2.2224,2.2207,2.2089,2.061,2.0477,2.1197,2.1197,2.1657,2.2219,2.1505,2.0995,2.052,1.9832,1.9315,1.9148,2.0153,2.1215,2.2106,2.2085,2.2102,0.0,0.0,2.0845,2.0348,1.9626,1.916,1.8751,1.8312,1.8191,1.8053,1.76,1.7997,1.7909,0.0,1.5829,1.6465,1.8295,0.0,1.793,1.7999,1.7585,1.6838,1.5697,1.5188,1.4454,1.3296,1.2801,1.2335,1.181,1.1783,1.1993,1.2446,1.249,1.2694,1.3146,1.3189,1.3198,1.3198,1.3198,0.0,0.0,0.0,0.0,0.0,0.0,0.0,0.0,0.0,0.0,0.0,0.0,0.0,0.0,0.0,0.0,0.0,0.0,0.0,0.0,0.0,0.0,0.0,0.0,0.0,0.0,0.0,0.0,2.258,2.2217,0.0,2.2098,2.1917,2.1866,2.2066,2.2535,2.2895,2.3037,2.3221,2.356,2.4085,2.4118,2.4118,2.4118,2.4118,2.3983,2.3722,2.3975,2.3966,2.3722,2.4,2.3958,2.3722,2.3722,2.3451,2.297,2.2405,2.2073,2.1904,2.1904,2.2073,2.2269,2.1999,2.1811,2.1663,2.1394,2.0913,2.0477,2.0864,2.1258,2.1684,2.2168,2.2296,2.2252,2.1982,2.1797,2.1566,2.1,2.0442,1.9933,1.953,1.8895,1.8354,1.8192,1.8097,1.7976,1.7723,1.7663,1.7887,1.8574,1.8541,1.8466,1.8589,1.8165,1.7541,1.6786,1.5963,1.5018,1.3897,1.3646,1.3206,1.2329,1.2535,1.2777,1.2934,1.2952,1.303,1.3189,1.3198,1.3198,1.3198,1.3198,1.3284,0.0,0.0,0.0,0.0,0.0,0.0,0.0,0.0,0.0,0.0,0.0,0.0,0.0,0.0,0.0,0.0,0.0,0.0,0.0,0.0,0.0,0.0,0.0,0.0,0.0,0.0,2.3476,2.3316,2.3027,2.2838,2.2838,2.2636,2.2621,2.2955,2.3551,2.3953,2.4093,2.4356,2.4609,2.4855,2.5109,2.5117,2.4872,2.5117,2.5117,2.4872,2.5117,2.5109,2.4872,2.5134,2.4965,2.4498,2.4498,2.422,2.3772,2.3772,2.3477,2.2987,2.2482,2.2296,2.2296,2.2296,2.2296,2.2296,2.2296,2.1982,2.1573,2.1573,2.1573,2.1657,2.2151,2.2296,2.2296,2.2296,2.2296,2.2223,2.1921,2.1511,2.1074,2.0638,1.9996,1.9395,1.91,1.8804,1.8669,1.8976,1.8852,1.8768,1.9001,1.9031,1.9007,1.891,1.8602,1.8116,1.7394,1.669,1.5757,1.4501,1.4374,1.3932,1.2825,1.3212,1.3416,1.321,1.3391,1.3403,1.321,1.3198,1.3198,1.3198,1.3357,1.3442,1.3442,0.0,0.0,0.0,0.0,0.0,0.0,0.0,0.0,0.0,0.0,0.0,0.0,0.0,0.0,0.0,0.0,0.0,0.0,0.0,0.0,0.0,0.0,0.0,2.3716,2.3457,2.3086,2.2645,2.2592,2.2615,2.2615,2.2581,2.2954,2.3876,2.3977,2.4169,2.4548,2.4609,2.4974,2.5685,2.6404,2.642,2.5702,2.6404,2.6404,2.5702,2.642,2.6404,2.5736,2.6446,2.598,2.4592,2.4592,2.4575,2.4525,2.4525,2.4515,2.4363,2.2895,2.233,2.233,2.2303,2.2296,2.2296,2.2296,2.2296,2.2296,2.2296,2.2296,2.2296,2.2296,2.2296,2.2296,2.2296,2.2296,2.2296,2.2296,2.2296,2.2187,2.1725,2.1597,2.1344,2.0492,2.0306,2.0176,1.9773,1.9175,1.8942,1.9588,1.9708,1.953,1.8996,1.8912,0.0,1.7473,1.7343,1.6715,1.5139,1.4967,1.4506,1.3345,1.3801,1.3873,1.3244,1.3767,1.3847,1.3249,1.3232,1.3241,1.3241,1.3698,1.3926,1.3942,0.0,0.0,0.0,0.0,0.0,0.0,0.0,0.0,0.0,0.0,0.0,0.0,0.0,0.0,0.0,0.0,0.0,0.0,0.0,0.0,0.0,0.0,2.5237,2.502,2.4478,2.4223,2.4639,2.4896,2.5042,2.5042,2.4593,2.4411,2.4691,2.5463,2.5976,2.6099,2.7165,2.7859,2.8053,2.8265,2.8282,2.807,2.8282,2.8282,2.807,2.8282,2.8265,2.807,2.8282,2.7833,2.6886,2.6886,2.6294,2.5304,2.5304,2.4991,2.4406,2.346,2.3105,2.3038,2.2506,2.2296,2.2296,2.2296,2.2296,2.2296,2.2296,2.2296,2.2296,2.2296,2.2296,2.2296,2.2296,2.2296,2.2296,2.2296,2.2296,2.2275,2.2135,2.1622,2.1102,2.0862,2.0304,1.983,1.9711,1.9549,1.9474,1.9678,1.9708,1.9648,1.9497,0.0,0.0,1.8506,1.8125,1.7558,1.6733,1.6642,1.6021,1.4489,1.4824,1.4561,1.3287,1.3946,1.4184,1.3732,1.4,1.4133,1.4133,1.427,1.4477,0.0,0.0,0.0,0.0,0.0,0.0,0.0,0.0,0.0,0.0,0.0,0.0,0.0,0.0,0.0,0.0,0.0,0.0,0.0,0.0,0.0,0.0,2.6445,2.6231,2.7323,2.5957,2.4967,2.5254,2.6002,2.6379,2.606,2.6149,2.6196,2.6179,2.6791,2.7317,2.7647,2.8519,2.8993,2.8993,2.9305,2.9305,2.8993,2.9305,2.9457,2.9457,2.9457,2.9457,2.9457,2.9457,2.9042,0.0,2.8289,2.763,2.6531,2.6531,2.6099,0.0,0.0,0.0,0.0,0.0,2.3224,2.3224,2.3224,2.3224,2.3224,2.3224,2.3224,2.3224,2.3224,2.3224,2.3224,2.3224,2.3004,2.276,2.276,2.254,2.2244,2.2046,2.1829,2.1561,2.1208,2.0952,2.0664,2.0215,0.0,0.0,1.9753,1.9708,1.9708,1.9708,1.9424,1.9151,0.0,1.8631,1.8034,1.6992,1.6885,1.6284,1.4798,1.5135,0.0,0.0,0.0,1.4626,1.4171,1.4382,0.0,0.0,0.0,1.5003,1.5515,0.0,0.0,0.0,1.6193,1.6193,0.0,0.0,0.0,0.0,0.0,0.0,0.0,0.0,0.0,0.0,0.0,0.0,0.0,0.0,0.0,0.0,2.7519,2.7114,2.9817,2.7784,2.5891,2.5551,2.6658,2.7206,2.6543,2.7422,2.8004,2.7936,2.801,2.8407,2.9213,0.0,0.0,0.0,0.0,3.0074,2.9491,3.0057,3.0352,3.0362,3.0251,3.0217,3.0217,3.0217,2.982,2.9128,2.9128,2.8619,2.7807,2.7807,2.7376,2.6564,2.5168,2.4575,2.4498,2.4498,2.4498,0.0,0.0,0.0,0.0,2.4498,2.4498,2.4498,2.4498,2.4498,2.4498,2.4498,2.4034,2.3519,2.3519,2.3038,2.2437,2.2035,2.2345,2.2525,2.1685,2.1932,2.1999,2.0912,2.0703,2.0488,1.9828,1.9708,1.9708,1.9708,1.9708,0.0,1.9043,1.8987,1.8405,1.6853,0.0,0.0,1.4894,1.5202,1.5178,1.4543,1.4982,1.5086,1.4657,1.4651,1.4651,1.4651,1.5005,1.5462,1.6065,1.6579,1.7115,1.7705,1.7705,1.7705,0.0,0.0,0.0,0.0,0.0,0.0,0.0,0.0,0.0,0.0,0.0,0.0,0.0,0.0,0.0,2.9003,2.9728,3.0246,3.0219,2.9677,2.913,2.8672,2.8874,2.8994,2.8865,2.881,2.8782,2.8765,2.9313,2.998,3.0726,3.0777,0.0,3.251,3.2114,3.2097,3.2544,3.2097,3.186,3.187,0.0,0.0,3.0997,3.0997,3.0581,2.9888,2.9888,2.9084,2.7807,2.7807,2.7376,2.6615,2.5727,2.5024,2.4498,2.4498,2.4498,2.4498,2.4498,2.4498,2.4498,2.4498,2.4498,2.4498,2.4498,2.4498,0.0,2.4498,2.4397,2.4288,2.4288,2.4186,2.4045,2.3959,2.3788,2.3481,2.2877,2.2552,2.2043,2.0922,2.0703,2.0488,1.9828,1.9708,1.9708,1.9708,1.9708,1.9657,1.9566,1.9557,1.9417,1.9084,1.8564,1.7784,1.6693,1.6487,1.5882,1.4576,1.4896,1.5264,1.5544,1.5558,1.5558,1.5558,1.5617,1.5735,1.5861,1.6965,1.7571,1.7705,1.7705,1.7705,0.0,0.0,0.0,0.0,0.0,0.0,0.0,0.0,0.0,0.0,0.0,2.7559,0.0,0.0,3.0111,3.1213,3.1605,3.1937,3.243,3.2007,3.1194,2.995,3.0333,3.0748,3.0889,3.131,3.1454,3.121,3.12,3.1512,3.2256,3.1945,3.2266,3.3362,3.3034,3.3034,3.3396,3.3034,3.2858,3.2858,3.2476,3.2307,3.229,3.1928,3.1556,3.1183,3.0818,2.9997,2.8922,2.8543,2.818,2.7799,2.7444,2.6598,2.5608,2.5608,2.5608,2.5608,2.5608,2.5608,2.5608,2.5608,2.5608,2.5608,2.5608,2.5608,2.5608,2.5608,2.5346,2.5058,2.5058,2.4771,2.4444,2.4249,2.4282,2.4219,2.3756,2.3258,2.2631,2.172,2.1097,2.0488,1.9828,1.9708,1.9708,1.9708,1.9708,1.9708,1.9708,1.9708,1.9564,1.9235,1.8897,1.8357,1.7472,1.7279,1.6897,1.6155,1.5985,1.6156,1.6735,1.6136,1.6106,1.6742,1.6421,1.6578,1.7252,1.7886,1.8371,1.8694,1.8694,1.8694,0.0,0.0,0.0,0.0,0.0,0.0,0.0,2.7118,2.7007,2.745,2.8181,2.8836,2.9174,3.0149,3.1531,3.3476,3.3214,3.3232,3.4614,3.4052,3.2871,3.1157,3.1694,3.2277,3.2493,3.3258,3.3644,3.341,3.2723,3.2672,3.3575,3.2909,3.2926,3.3801,3.3694,3.3683,3.3835,3.3694,3.3599,3.3599,3.3463,3.3311,3.3169,3.2571,3.2226,3.2056,3.1319,3.0649,3.0048,2.9457,2.9034,2.8781,2.8942,2.8053,2.6716,2.686,2.6826,2.67,2.67,2.67,2.67,2.67,2.67,2.67,2.67,2.67,2.67,2.67,2.6268,2.5803,2.5803,2.5372,2.4852,2.453,2.482,2.5062,2.4637,2.4138,2.3522,2.2742,2.1681,2.0683,2.0013,1.9789,1.9708,1.9708,1.9708,1.9708,1.9708,1.9708,1.9489,1.8957,1.8777,1.8424,1.7765,1.7705,1.7705,1.7705,1.7189,1.7145,1.7675,1.6712,1.6645,1.7675,1.7167,1.7436,1.8508,1.8634,1.8972,1.9504,1.9648,1.9708,2.5284,2.5756,2.6606,2.8095,2.8316,2.8709,0.0,3.0573,2.9959,2.9844,3.0478,3.0833,3.0191,3.1898,3.3495,3.3752,3.4545,3.5035,3.4836,3.4896,3.4719,3.4079,3.3543,3.3238,3.3271,3.2808,3.2751,3.3355,3.2723,3.2919,3.4313,3.3677,3.392,3.5312,3.4726,3.4692,3.5346,3.4709,3.4381,3.4381,3.3711,3.3051,3.2429,3.2344,3.1945,3.1285,3.0548,3.0183,3.0098,3.0014,2.9168,2.8019,2.8713,2.8053,2.6784,2.7444,2.7258,2.67,2.67,2.67,2.67,2.67,2.67,2.67,2.67,2.67,2.67,2.67,2.6649,2.6581,2.6581,2.6513,2.6437,2.6404,2.6438,2.637,2.5899,2.5373,2.4655,2.3499,2.2366,2.138,2.0698,2.0094,1.9708,1.9708,1.9708,1.9708,1.9708,1.9708,1.9669,1.9594,1.9055,1.8424,1.7765,1.7705,1.7705,1.7705,1.7631,1.7616,1.7705,1.7556,1.7541,1.7705,1.7631,1.7661,1.781,1.841,1.8747,1.8837,1.9414,1.9708,2.6344,2.7112,2.8034,2.9595,3.0189,3.0621,3.1524,3.1729,3.171,3.1617,3.2607,3.3396,3.306,3.4222,3.5307,0.0,3.5881,3.6235,3.6367,3.6112,3.5883,3.5836,3.5566,3.5182,3.4731,3.4393,3.4343,3.4664,3.3998,3.4043,3.507,3.4438,3.4523,3.5566,3.5306,3.5289,3.56,3.4861,3.45,3.45,3.4184,3.388,3.3569,3.3146,3.229,3.1183,3.0869,3.0734,3.0734,3.0734,3.0115,2.921,2.9973,2.9356,2.7969,2.7385,2.6962,2.67,2.67,2.67,2.67,2.67,2.67,2.67,2.67,2.67,2.67,2.67,2.67,2.67,2.67,2.67,2.67,2.67,2.67,2.6649,2.6445,2.5455,2.4469,2.3951,2.2697,2.1605,2.1335,2.0737,2.0288,2.0288,1.9953,1.9708,1.9708,1.9708,1.9708,1.9708,1.9444,1.9175,1.8897,1.8867,1.8867,1.8867,1.8499,1.8454,1.8852,1.8117,1.8072,1.8852,1.8484,1.8469,1.8867,1.9151,1.9271,1.9295,1.9564,1.9708,2.708,2.8017,2.8992,3.0954,3.1917,3.2455,3.2865,3.3306,3.3617,3.3617,3.4546,3.5353,3.5353,3.6064,3.6647,3.669,3.6784,3.6915,3.7162,3.6794,3.6495,3.6474,3.6648,3.6564,3.5994,3.5932,3.6017,3.6219,3.5554,3.5453,3.6186,3.5537,3.5379,3.5898,3.5729,3.56,3.56,3.5081,3.4692,3.45,3.45,3.4297,3.3874,3.3119,3.2205,3.12,3.12,3.12,3.12,3.12,3.0768,3.0149,3.0683,3.0117,2.884,2.7503,2.6996,2.6962,2.6767,2.67,2.67,2.67,2.67,2.67,2.67,2.67,2.67,2.67,2.6852,2.6996,2.6996,2.7165,2.7275,2.7063,2.6996,2.6945,2.6742,2.5638,2.4698,2.4698,2.3336,2.2173,2.2173,2.1518,2.0907,2.0728,2.0288,1.9908,1.9714,1.9708,1.9708,1.9708,1.9708,1.9708,1.9708,1.9708,1.9708,1.9708,1.9241,1.919,1.9678,1.8777,1.8709,1.9678,1.9211,1.922,1.9708,1.9708,1.9708,1.9708,1.9708,1.9708,2.7046,2.7801,2.8874,3.2055,3.329,3.4151,3.5785,3.6163,3.62,3.62,3.6229,3.6266,3.6266,3.6916,3.7295,3.678,3.6979,3.702,3.6495,3.6641,3.6491,3.5729,3.6327,3.6795,0.0,3.6761,3.7054,3.7775,3.7156,3.7054,3.7792,3.7139,3.6745,3.6761,3.6011,3.56,3.56,3.5583,3.5205,3.45,3.45,3.3755,3.2344,3.1606,3.1241,3.12,3.12,3.12,3.12,3.12,3.0768,3.0098,3.0115,2.9668,2.8908,2.8069,2.7773,2.7655,2.6945,2.67,2.67,2.67,2.67,2.67,2.67,2.67,2.67,2.67,2.7224,2.7773,2.7773,2.8349,2.873,2.7942,2.7773,2.757,2.6843,2.6306,2.5953,2.5953,2.4537,2.3351,2.3351,2.2413,2.1455,2.0802,2.0683,2.0428,1.9774,1.9708,1.9708,1.9708,1.9708,1.9708,1.9708,1.9708,1.9708,1.9708,1.9678,1.9678,1.9708,1.9654,1.9654,1.9708,1.9678,1.9678,1.9708,1.9708,1.9708,1.9708,1.9708,1.9708,2.7664,2.9169,3.0971,3.2982,3.4499,3.5605,3.6163,3.6845,3.7311,3.7139,3.6381,3.5884,3.6241,3.6228,3.6001,3.5463,3.609,3.6662,3.6664,3.6288,3.6096,3.6349,3.6631,0.0,0.0,0.0,0.0,3.7838,3.7669,3.7415,3.7173,3.6936,3.6564,3.6017,3.5746,3.56,3.56,3.5103,3.4742,3.45,3.3998,3.3508,3.3,3.2266,3.1657,3.12,3.12,3.12,3.12,3.12,3.0768,3.0098,3.0098,2.9956,2.9634,2.8882,2.8907,2.9067,2.73,2.67,2.67,2.67,2.67,2.67,2.67,2.67,2.67,2.67,2.7224,2.7807,2.7807,2.8399,2.8942,2.8662,2.8188,2.7739,2.7486,2.6674,2.6004,2.6004,2.4952,2.4069,2.4069,2.3117,2.1989,2.0862,2.0309,1.9953,1.9729,1.9708,1.9708,1.9708,1.9708,1.9708,1.9708,1.9708,1.9708,1.9708,1.9708,1.9708,1.9708,1.9708,1.9708,1.9708,1.9708,1.9708,1.9708,1.9708,1.9708,1.9708,1.9708,1.9708,2.9004,3.0472,3.2022,3.3785,3.4938,3.5776,3.6319,3.6989,3.7525,3.7611,3.6646,3.5983,3.6608,3.6217,3.5513,3.4688,3.5282,3.5848,3.58,3.5231,3.5205,3.6248,3.6366,3.6479,0.0,0.0,0.0,3.8227,3.8294,3.8091,3.7613,3.7342,3.6851,3.605,3.5746,3.56,3.56,3.512,3.4759,3.4483,3.3501,3.3,3.2983,3.2232,3.164,3.12,3.12,3.12,3.12,3.12,3.092,3.048,3.02,3.0098,2.998,2.8941,2.9042,2.9465,2.7706,2.7097,2.7046,2.6784,2.67,2.67,2.67,2.6877,2.7097,2.7097,2.7833,2.8568,2.8306,2.8991,2.9576,2.8764,2.8593,2.8398,2.7579,2.6998,2.6569,2.6303,2.5552,2.492,2.4732,2.3371,2.1974,2.0862,2.0124,1.9708,1.9708,1.9708,1.9708,1.9708,1.9708,1.9708,1.9708,1.9708,1.9708,1.9708,1.9708,1.9708,1.9708,1.9708,1.9708,1.9708,1.9708,1.9708,1.9708,1.9708,1.9708,1.9708,1.9708,1.9708,3.0845,3.1579,3.2015,3.4362,3.4685,3.4803,3.6253,3.6693,3.6979,3.7649,3.6934,3.6428,3.7173,3.6699,3.5787,3.4524,3.4686,3.4772,3.4222,3.3785,3.4021,0.0,0.0,0.0,0.0,0.0,0.0,3.878,0.0,3.8937,3.8937,3.8244,3.7499,3.6761,3.6,3.56,3.56,3.56,3.5256,3.4539,3.3072,3.2361,3.2327,3.1556,3.12,3.12,3.12,3.1183,3.1149,3.1183,3.1166,3.1021,3.0328,3.0065,2.9929,2.8415,2.8374,2.8933,2.8137,2.7858,2.7739,2.6996,2.6767,2.6767,2.6818,2.7283,2.7807,2.7858,2.8949,2.9929,2.9237,3.0117,3.0649,2.8483,2.9058,2.9499,2.7283,2.7342,2.757,2.6843,2.6323,2.5808,2.5211,2.3235,2.1509,2.0802,2.0124,1.9708,1.9708,1.9708,1.9708,1.9708,1.9708,1.9708,1.9708,1.9708,1.9708,1.9708,1.9708,1.9708,1.9708,1.9708,1.9708,1.9708,1.9708,1.9708,1.9708,1.9708,1.9708,1.9708,1.9708,1.9708,3.0965,3.1875,3.2589,3.38,3.4476,3.4863,3.4969,3.5882,3.663,3.6266,3.5447,3.4806,3.4742,3.4779,3.4753,3.4552,3.5362,0.0,3.6076,3.5486,0.0,3.5549,3.6129,3.6332,3.5932,3.6445,0.0,0.0,3.7872,3.8176,3.8176,3.7477,3.6721,3.5932,3.5712,3.56,3.56,3.56,3.5509,3.5306,3.3818,3.3119,3.3085,3.1792,3.12,3.12,3.12,3.0886,3.042,3.097,3.0557,2.9551,2.9356,2.9627,2.998,2.9042,2.917,2.9719,2.8967,2.8696,2.8552,2.7782,2.7519,2.763,2.8239,2.8129,2.7925,2.8527,2.9364,3.0065,2.9871,3.0514,3.1055,3.0463,3.0217,2.9786,2.8662,2.8086,2.757,2.6843,2.6323,2.5544,2.4099,2.2952,2.1883,2.0844,2.0124,1.9708,1.9708,1.9708,1.9708,1.9708,1.9708,1.9708,1.9708,1.9708,1.9708,1.9708,1.9708,1.9708,1.9708,1.9708,1.9708,1.9708,1.9708,1.9708,1.9708,1.9708,1.9708,1.9708,1.9708,1.9708,3.0986,3.1733,3.2265,3.3066,3.3476,3.372,3.381,3.4522,3.5143,3.5042,3.4229,3.3705,3.4229,3.4484,3.4581,3.4441,3.544,3.6289,3.651,3.6005,3.5853,3.6541,3.6721,0.0,3.618,3.6214,3.6428,0.0,3.7173,3.7427,3.7427,3.7021,3.6417,3.5616,3.56,3.56,3.56,3.56,3.543,3.5103,3.3954,3.3237,3.2892,3.1725,3.12,3.12,0.0,3.097,3.0615,3.1021,3.071,2.9907,2.9247,2.9457,2.9929,2.851,2.8679,2.9448,2.8375,2.8434,2.8874,2.8069,2.757,2.7461,2.8247,2.8154,2.7959,2.8764,2.9305,2.9685,3.0014,3.0159,3.0151,2.9786,2.9668,2.9313,2.8222,2.7892,2.757,2.6843,2.6323,2.5531,2.4005,2.3008,2.2003,2.0863,2.0124,1.9708,1.9708,1.9708,1.9708,1.9708,1.9708,1.9708,1.9708,1.9708,1.9708,1.9708,1.9708,1.9708,1.9708,1.9708,1.9708,1.9708,1.9708,1.9708,1.9708,1.9708,1.9708,1.9708,1.9708,1.9708,3.0968,3.1323,3.1421,3.224,3.2258,3.221,3.2688,3.3054,3.3414,3.3903,3.3345,3.3145,3.4399,3.4788,3.4761,3.4261,3.5252,3.611,3.6259,3.6048,3.6372,3.7618,3.7359,3.7049,3.6953,3.6389,3.6253,3.6761,3.6795,3.6795,3.6795,3.6699,3.6315,3.5616,3.56,3.56,3.56,3.56,3.5222,3.45,3.3744,3.3,3.2276,3.1539,3.12,3.12,0.0,0.0,3.1065,3.1157,3.1082,3.0794,2.9619,2.9542,2.9862,2.7875,2.8002,2.8959,2.7613,2.7952,2.8874,2.8069,2.7376,2.6996,2.7731,2.7874,2.7993,2.8882,2.9145,2.9288,2.9939,2.9702,2.9068,2.8171,2.8569,2.8722,2.719,2.7275,2.7452,2.6826,2.6367,2.5694,2.442,2.3332,2.2204,2.0897,2.0213,1.9803,1.9708,1.9708,1.9708,1.9708,1.9708,1.9708,1.9708,1.9708,1.9708,1.9708,1.9708,1.9708,1.9708,1.9708,1.9708,1.9708,1.9708,1.9708,1.9708,1.9708,1.9708,1.9708,1.9708,1.9708,3.0968,3.0913,3.0595,3.1409,3.2049,3.2265,3.1408,3.2492,3.3446,3.2578,3.3046,3.3396,3.2725,3.3643,3.4415,3.4165,3.5352,3.643,3.6667,3.7157,3.7369,3.7021,3.7951,3.8391,3.777,3.8125,0.0,0.0,0.0,3.6795,3.6795,3.6163,3.5746,3.56,3.56,3.56,3.56,3.56,3.5222,3.45,3.3744,3.3,3.2276,3.1539,3.12,3.12,0.0,0.0,3.0335,3.0954,3.049,2.9416,2.977,2.998,3.0048,2.9659,2.9676,2.9862,2.9591,2.9279,2.8874,2.8069,2.7705,2.7756,2.8561,2.8332,2.8094,2.9507,2.9912,2.9929,3.0065,3.0463,3.049,2.9102,2.9364,2.949,2.7942,2.7224,2.6843,2.6725,2.6641,2.6064,2.4475,2.4031,2.3154,2.1014,2.0608,2.0333,1.9768,1.9708,1.9708,1.9708,1.9708,1.9708,1.9708,1.9708,1.9708,1.9708,1.9708,1.9708,1.9708,1.9708,1.9708,1.9708,1.9708,1.9708,1.9708,1.9708,1.9708,1.9708,1.9708,1.9708,2.9837,2.9873,2.9763,3.0577,3.1072,3.12,3.0626,3.1239,3.1756,3.1172,3.152,3.1839,3.1528,3.2423,3.3271,3.3498,3.45,3.5752,3.7158,3.7686,3.8058,3.8459,3.8459,3.8294,3.7927,3.7488,3.6941,0.0,0.0,3.618,3.618,3.5814,3.56,3.56,3.56,3.56,3.56,3.5222,3.4658,3.3914,3.318,3.2435,3.1708,3.1369,3.12,3.12,3.12,0.0,3.07,3.1055,3.0777,3.0134,3.0108,3.0335,3.0581,2.9803,2.977,3.0048,2.9651,2.9305,2.8942,2.8561,2.8137,2.7874,2.8255,2.8103,2.8043,2.9194,2.9533,2.9702,3.0463,3.0057,2.9364,2.9077,2.8662,2.8129,2.7393,2.6945,2.67,2.67,2.67,2.6284,2.495,2.4422,2.3524,2.1525,2.0922,2.0458,1.9789,1.9708,1.9708,1.9708,1.9708,1.9708,1.9708,1.9708,1.9708,1.9708,1.9708,1.9708,1.9708,1.9708,1.9708,1.9708,1.9708,1.9708,1.9708,1.9708,1.9708,1.9708,1.9708,1.9708,2.8656,2.8877,2.9115,2.9567,2.9934,3.0112,2.9769,2.9953,3.0155,2.9983,3.0075,3.0252,3.0477,3.129,3.2038,3.2327,3.331,3.482,3.7084,3.7691,3.8396,3.9711,3.8983,3.8311,3.8147,3.7031,0.0,0.0,0.0,0.0,3.56,3.56,3.56,3.56,3.56,3.56,3.56,3.4861,3.4134,3.3379,3.2655,3.1911,3.12,3.12,3.1259,3.1312,3.1249,0.0,0.0,3.1239,3.12,3.114,3.0565,3.0683,3.1065,2.9907,2.9847,3.0251,2.9677,2.9467,2.945,2.9288,2.8704,2.801,2.7849,2.7925,2.8188,2.8814,2.9111,2.9508,3.0659,2.9743,2.861,2.8916,2.7935,2.6894,2.6733,2.67,2.67,2.67,2.6624,2.6263,2.5364,2.4671,2.3667,2.1958,2.1261,2.0617,1.9803,1.9708,1.9708,1.9708,1.9708,1.9708,1.9708,1.9708,1.9708,1.9708,1.9708,1.9708,1.9708,1.9708,1.9708,1.9708,1.9708,1.9708,1.9708,1.9708,1.9708,1.9708,1.9708,1.9708,2.8282,2.8442,2.884,2.8172,2.9108,2.9824,2.8356,2.9145,2.9983,2.9262,2.969,3.0007,2.9383,3.0427,3.115,3.0486,3.2106,3.4018,3.5594,3.7014,3.821,3.9017,3.9559,3.9626,3.8954,3.8768,0.0,0.0,0.0,0.0,3.56,3.56,3.56,3.56,3.56,3.56,3.56,3.4861,3.4134,3.3379,3.2655,3.1911,3.12,3.12,3.1391,3.1716,0.0,0.0,0.0,3.1351,3.12,3.119,3.1133,3.114,3.1183,3.1048,3.1038,3.1089,3.1021,3.0997,3.0896,3.0226,2.9508,2.8747,2.801,2.8306,2.8908,2.8976,2.9482,3.0031,3.0166,3.0548,3.0565,2.9297,2.8332,2.7519,2.6843,2.67,2.67,2.67,2.6358,2.5888,2.5297,2.4739,2.3778,2.1974,2.165,2.1151,1.9863,1.9708,1.9708,1.9708,1.9708,1.9708,1.9708,1.9708,1.9708,1.9708,1.9708,1.9708,1.9708,1.9708,1.9708,1.9708,1.9708,1.9708,1.9708,1.9708,1.9708,1.9708,1.9708,1.9708,2.7848,2.8026,2.8209,2.7884,2.7915,2.7983,2.7848,2.8306,2.8668,2.8338,2.8919,2.9259,2.8503,2.886,2.9287,2.9418,3.0185,3.1732,3.4539,3.547,3.6648,3.8751,3.887,3.865,0.0,0.0,0.0,0.0,0.0,0.0,3.56,3.56,3.56,3.56,3.56,3.56,3.56,3.4438,3.3694,3.3379,3.2188,3.1471,3.121,3.1458,3.165,3.1816,0.0,0.0,0.0,3.1742,3.1556,3.1545,3.13,3.12,3.12,3.12,3.12,3.12,3.12,3.12,3.1149,3.0852,3.0557,3.01,2.889,2.9059,2.9651,2.9651,3.0192,3.0768,3.0768,3.0649,3.0277,2.9247,2.8764,2.8315,2.7528,2.7359,2.7224,2.6784,2.6323,2.5834,2.5297,2.441,2.3317,2.1904,2.1365,2.0767,1.9818,1.9708,1.9708,1.9708,1.9708,1.9708,1.9708,1.9708,1.9708,1.9708,1.9708,1.9708,1.9708,1.9708,1.9708,1.9708,1.9708,1.9708,1.9708,2.0118,2.0094,1.9708,2.0109,2.0094,2.7111,2.7312,2.7506,2.7476,2.6964,2.6598,2.7141,2.7274,2.7332,2.7427,2.8019,2.8373,2.7963,2.8255,2.8648,2.895,2.9365,3.0787,3.4043,3.45,3.5549,3.8345,0.0,3.7893,0.0,3.7432,0.0,0.0,0.0,0.0,0.0,3.56,3.56,3.56,3.56,3.56,3.56,3.414,3.3396,3.3379,3.1901,3.1261,3.1399,3.1669,3.1951,3.223,0.0,0.0,0.0,3.2065,3.1824,3.1761,3.1361,3.12,3.12,3.12,3.12,3.12,3.12,3.12,3.12,3.12,3.12,3.1014,2.9974,3.0006,3.0378,3.0166,3.0632,3.12,3.12,3.0818,3.0243,2.9508,2.9322,2.9051,2.8027,2.7807,2.757,2.6843,2.6192,2.5642,2.5269,2.4235,2.3051,2.1874,2.1306,2.0677,1.9803,1.9708,1.9708,1.9708,1.9708,1.9708,1.9708,1.9708,1.9708,1.9708,1.9708,1.9708,1.9708,1.9708,1.9708,1.9708,1.9708,1.9803,1.9998,2.0273,2.0249,1.9998,2.0288,2.0154,2.6037,2.6154,2.6798,2.6737,2.6405,2.6086,2.6027,2.608,2.6214,2.6535,2.6994,2.7438,2.784,2.9084,2.9844,2.912,3.0219,3.1962,3.4195,3.45,3.5351,3.764,3.7893,3.7893,3.7893,0.0,0.0,0.0,0.0,0.0,0.0,3.56,3.56,3.56,3.56,3.56,3.56,3.414,3.3396,3.3379,3.1901,3.1411,3.178,3.1807,3.2315,0.0,0.0,0.0,0.0,3.2257,3.1851,3.1761,3.1361,3.12,3.12,3.12,3.12,3.12,3.12,3.12,3.12,3.12,3.12,3.12,3.1183,3.1183,3.1038,3.0311,3.0632,3.12,3.12,3.119,3.1004,3.0251,3.0081,2.9676,2.8128,2.7807,2.757,2.6843,2.5892,2.5211,2.5202,2.4318,2.3171,2.1889,2.1695,2.1211,1.9863,1.9708,1.9708,1.9708,1.9708,1.9708,1.9708,1.9708,1.9708,1.9708,1.9708,1.9708,1.9708,1.9708,1.9708,1.9708,1.9708,2.0028,2.0688,2.0034,2.0058,2.0673,2.0013,1.9708,2.5266,2.5128,2.5144,2.5125,2.4784,2.4606,2.513,2.5879,2.6469,2.6573,2.7586,2.8348,2.7963,2.8682,2.9263,2.9035,2.9803,3.1224,3.344,3.4184,3.5351,3.7623,3.7893,3.7893,0.0,0.0,0.0,0.0,0.0,0.0,0.0,3.56,3.56,3.56,3.56,3.5357,3.4844,3.3886,3.3152,3.2638,3.1657,3.1411,3.1816,3.2127,0.0,0.0,0.0,0.0,0.0,3.2443,3.229,3.2213,3.1477,3.12,3.12,3.12,3.12,3.12,3.12,3.12,3.12,3.12,3.12,3.12,3.12,3.12,3.1149,3.092,3.1021,3.12,3.12,3.12,3.114,3.0903,3.0852,3.0446,2.8941,2.8628,2.8239,2.6953,2.6184,2.576,2.576,2.41,2.2639,2.2244,2.1127,2.0178,1.9744,1.9708,1.9878,2.0324,1.9974,1.9708,1.9708,1.9708,1.9708,1.9708,1.9708,1.9708,1.9708,1.9708,1.9923,2.0369,2.0384,2.0713,2.1371,2.163,2.1615,2.1365,2.0223,1.9708,2.431,2.4273,2.4254,2.4396,2.3972,2.3726,2.4503,2.5108,2.5703,2.6457,2.7295,2.7991,2.8262,2.8922,2.9413,2.9418,3.027,3.1512,3.3169,3.4258,0.0,3.7657,0.0,0.0,0.0,0.0,0.0,0.0,0.0,0.0,0.0,0.0,3.56,3.56,3.56,3.5239,3.4516,3.3778,3.3034,3.2293,3.1556,3.1506,3.2065,3.2375,0.0,0.0,0.0,0.0,0.0,3.2353,3.2252,3.24,3.1235,3.0954,3.12,3.12,3.12,3.12,3.12,3.12,3.12,3.12,3.12,3.12,3.12,3.12,3.12,3.12,3.12,3.12,3.12,3.12,3.12,3.12,3.12,3.0879,2.9677,2.9196,2.8637,2.7368,2.6515,2.595,2.5726,2.4277,2.3003,2.2578,2.1553,2.0741,2.0492,2.0238,2.0243,2.0668,2.0094,1.9803,2.0058,1.9848,1.9708,1.9708,1.9938,2.0079,2.0079,2.0312,2.0647,2.1071,2.1071,2.141,2.2079,2.2239,2.1974,2.1306,2.0208,1.9708,0.0,2.3579,2.3874,2.4252,2.3762,2.3383,2.4078,2.4009,0.0,2.6179,2.636,2.6734,2.8549,2.9526,3.0057,3.0036,3.1268,3.2503,3.3288,3.4765,0.0,0.0,3.7893,0.0,0.0,0.0,0.0,0.0,0.0,0.0,0.0,0.0,3.5577,3.5515,3.5515,3.5171,3.4432,3.3694,3.2949,3.2209,3.1522,3.1657,3.2501,3.2501,0.0,0.0,0.0,0.0,0.0,3.2107,3.1848,3.2206,3.0775,3.0593,3.1133,3.1183,3.12,3.12,3.12,3.12,3.12,3.12,3.12,3.12,3.12,3.12,3.12,3.12,3.12,3.12,3.12,3.12,3.12,3.12,3.12,3.097,3.0192,2.9482,2.8747,2.79,2.6825,2.5879,2.5354,2.4774,2.4035,2.2959,2.2695,2.2404,2.1873,2.1143,2.0715,2.0814,2.0151,1.9998,2.0713,2.0109,1.9738,1.9842,2.0378,2.0718,2.0763,2.1311,2.1665,2.1769,2.1809,2.2124,2.2703,2.2034,2.1365,2.0673,2.0013,1.9708,2.3383,0.0,2.2697,2.2781,2.3007,2.3248,0.0,2.426,2.5213,2.5985,2.6579,2.7095,2.7612,2.875,2.9566,2.9295,3.049,3.1911,3.322,3.5678,0.0,3.786,3.7893,0.0,0.0,0.0,0.0,0.0,0.0,0.0,0.0,0.0,3.534,3.4776,3.4759,3.4404,3.3677,3.2926,3.2182,3.1454,3.1275,3.1657,3.2501,3.2501,0.0,0.0,0.0,0.0,3.2001,3.256,3.1964,3.0773,3.1228,3.0964,3.042,3.0987,3.12,3.12,3.12,3.12,3.12,3.12,3.12,3.12,3.12,3.12,3.12,3.12,3.12,3.12,3.12,3.12,3.12,3.12,3.12,3.0845,2.9542,2.9128,2.8604,2.7215,2.6725,2.6384,2.5897,2.4941,2.416,2.3894,2.2577,2.192,2.2736,2.1419,2.0812,2.1895,2.0622,2.0178,2.1365,2.0372,2.0142,2.1166,2.0892,2.0922,2.144,2.1116,2.1425,2.2438,2.2917,2.3007,2.2703,2.2034,2.1365,2.0673,2.0013,1.9708,2.3533,2.3189,2.2917,2.2758,2.3063,2.3392,2.3248,2.3946,2.4843,2.5607,2.6125,2.6812,2.8083,2.896,2.9618,2.9955,3.1251,3.273,0.0,0.0,3.7116,3.7809,3.7285,0.0,0.0,0.0,0.0,0.0,0.0,0.0,0.0,0.0,3.4759,3.4015,3.367,3.3298,3.2909,3.2503,3.1928,3.12,3.12,3.1536,3.217,3.217,0.0,0.0,0.0,0.0,3.2484,3.2243,3.179,3.1282,3.151,3.119,3.0678,3.1265,3.1361,3.12,3.12,3.12,3.12,3.12,3.097,3.0768,3.1099,3.0954,3.0768,3.1106,3.12,3.12,3.12,3.12,3.12,3.12,3.0937,3.048,2.9677,2.8941,2.8197,2.7368,2.6928,2.6539,2.6085,2.5461,2.4938,2.4707,2.3757,2.3334,2.4035,2.271,2.1897,2.235,2.1324,2.0911,2.1635,2.0752,2.0602,2.1635,2.165,2.1635,2.1695,2.1919,2.2368,2.3097,2.343,2.343,2.3112,2.2468,2.1809,2.1131,2.0468,2.0154,2.3779,2.3779,2.3682,2.3306,2.3443,2.3604,2.3283,2.3505,2.4111,2.5259,2.5495,2.6296,2.8861,2.9377,2.978,3.0869,3.2459,0.0,3.5577,3.5881,3.6377,3.7601,0.0,0.0,0.0,0.0,0.0,0.0,0.0,0.0,0.0,0.0,0.0,3.3271,3.2621,3.2242,3.2141,3.2141,3.1809,3.12,3.12,3.1411,3.1807,3.1686,3.2201,0.0,0.0,0.0,3.331,3.1658,3.1368,3.1935,3.1532,3.1237,3.1097,3.1532,3.1488,3.12,3.12,3.1133,3.1021,3.1021,3.0615,3.0217,3.0835,3.0666,3.0395,3.1021,3.12,3.12,3.12,3.12,3.12,3.12,3.0632,3.0065,2.9963,2.8813,2.7773,2.7655,2.7131,2.6539,2.6085,2.6004,2.5852,2.5383,2.522,2.5178,2.531,2.4169,2.3157,2.2608,2.2044,2.1749,2.1844,2.1326,2.1291,2.1949,2.2243,2.2183,2.1724,2.2921,2.355,2.346,2.355,2.355,2.346,2.2957,2.2358,2.168,2.1012,2.0757,2.4113,2.4113,2.3963,2.3357,2.3443,2.3604,2.3283,2.3682,2.4382,2.5309,2.5504,2.6131,2.8185,2.8853,2.9337,3.0151,0.0,3.4872,0.0,0.0,3.7398,0.0,0.0,0.0,0.0,0.0,0.0,0.0,0.0,0.0,0.0,0.0,0.0,3.2513,3.2361,3.2005,3.1369,3.1369,3.1319,3.12,3.12,3.1411,3.1789,3.1141,3.1723,0.0,0.0,3.1336,3.1758,3.145,3.0618,2.9655,3.0847,3.089,3.0345,3.1041,3.1242,3.12,3.12,3.0784,3.0267,3.0267,3.0183,3.0115,3.0234,3.0632,3.1055,3.1166,3.12,3.12,3.12,3.12,3.12,3.12,3.0632,2.9939,2.9305,2.845,2.7621,2.6996,2.6784,2.6539,2.6085,2.6004,2.5961,2.5888,2.5302,2.5103,2.5788,2.4272,2.3167,2.3243,2.2317,2.1929,2.2508,2.2448,2.2648,2.3266,2.1859,2.1216,2.169,2.2921,2.3366,2.2853,2.3336,2.3351,2.2838,2.2748,2.2358,2.168,2.1012,2.0997,2.4194,2.4194,2.4136,2.3816,2.3865,2.3886,2.3549,2.3708,2.4237,2.5278,2.5506,2.6229,2.8549,2.9463,3.0449,3.2195,0.0,3.4753,3.5464,0.0,0.0,0.0,0.0,0.0,0.0,0.0,0.0,0.0,0.0,0.0,0.0,0.0,0.0,0.0,3.1708,3.1539,3.12,3.12,3.131,3.1526,3.131,3.1411,3.1789,3.1461,3.1845,3.2753,0.0,3.129,3.2008,3.1574,3.1088,3.0728,3.188,3.1797,3.1036,3.1162,3.12,3.12,3.12,3.0717,3.0098,3.0098,2.9837,2.9583,2.998,3.0335,3.0683,3.1089,3.12,3.12,3.12,3.12,3.1106,3.07,3.004,2.9279,2.8518,2.7757,2.7114,2.6767,2.67,2.6632,2.641,2.6375,2.6375,2.6375,2.6057,2.5957,2.6325,2.5111,2.4132,2.3856,2.3172,2.2722,2.2703,2.2703,2.2957,2.3565,2.2468,2.2069,2.2697,2.2977,2.3141,2.3186,2.3456,2.346,2.3186,2.3186,2.2857,2.2228,2.1929,2.1944,2.3914,2.4061,2.4194,2.4194,2.4194,2.4108,2.3779,2.3919,2.4387,2.5431,2.5719,2.6517,2.8947,2.9981,0.0,3.3825,3.4398,3.4635,0.0,0.0,0.0,0.0,0.0,0.0,0.0,0.0,0.0,0.0,0.0,0.0,0.0,0.0,0.0,0.0,3.12,3.12,3.12,3.12,3.1351,3.165,3.1341,3.1361,3.166,3.1487,3.1707,3.2155,3.1109,3.1292,3.2277,3.1641,3.1636,3.2043,3.2556,3.2307,3.1613,3.1303,3.12,3.12,3.12,3.0717,3.0065,2.9905,2.9583,2.9322,2.9719,3.0081,3.048,3.1038,3.12,3.12,3.12,3.12,3.1004,3.0284,2.9542,2.8781,2.7976,2.7224,2.67,2.67,2.67,2.67,2.67,2.67,2.67,2.67,2.67,2.6666,2.6556,2.5855,2.5136,2.4496,2.4049,2.3549,2.2968,2.2912,2.3112,2.3565,2.3171,2.3052,2.3381,2.3082,2.3127,2.3595,2.3595,2.3595,2.3595,2.3595,2.3366,2.2912,2.2763,2.2778,2.3098,2.3634,2.4194,2.4194,2.4194,2.4108,2.3779,2.453,2.5437,2.5958,2.6354,2.7116,2.8744,2.9635,3.0864,3.3119,3.4049,3.5007,0.0,0.0,0.0,0.0,0.0,0.0,0.0,0.0,0.0,0.0,0.0,0.0,0.0,0.0,0.0,0.0,0.0,3.12,3.12,3.12,3.121,3.1232,3.121,3.122,3.1215,3.0528,3.066,3.1344,3.0586,3.0707,3.1482,3.1409,3.1636,3.196,3.1586,3.1359,3.1249,3.121,3.12,3.12,3.12,3.0717,2.998,2.9305,2.9508,2.9905,2.9271,3.0033,3.1133,3.12,3.12,3.12,3.12,3.12,3.1004,3.0284,2.9542,2.8781,2.7976,2.7224,2.67,2.67,2.67,2.67,2.67,2.67,2.67,2.67,2.67,2.6547,2.6112,2.5979,2.5728,2.5195,2.4661,2.4117,2.3578,2.3546,2.355,2.3595,2.355,2.3306,2.2793,2.3261,2.355,2.3595,2.3595,2.3595,2.3595,2.3595,2.358,2.352,2.2957,2.2992,2.3006,2.3579,2.4194,2.4194,2.4194,2.4166,2.4031,2.4736,2.5441,2.563,2.6375,2.7624,2.9626,0.0,3.2432,3.326,3.4393,0.0,0.0,0.0,0.0,0.0,0.0,0.0,0.0,0.0,0.0,0.0,0.0,0.0,0.0,0.0,0.0,0.0,0.0,3.12,3.12,3.12,3.12,3.12,3.12,3.1332,3.1557,3.1283,3.148,3.2031,3.1536,3.1638,3.2118,3.1611,3.1785,3.2358,3.2127,3.1707,3.12,3.12,3.12,3.12,3.12,3.0717,3.0048,2.977,2.9862,3.0048,2.977,3.0395,3.12,3.12,3.12,3.12,3.12,3.12,3.0896,2.9694,2.9204,2.8645,2.7385,2.6894,2.67,2.67,2.67,2.67,2.67,2.67,2.67,2.67,2.67,2.6641,2.6453,2.6183,2.5781,2.5259,2.442,2.3815,2.3616,2.3595,2.3595,2.3595,2.3595,2.349,2.3276,2.3486,2.3595,2.3595,2.3595,2.3595,2.3595,2.3595,2.3595,2.3595,2.3366,2.337,2.2933,2.3579,2.4194,2.4194,2.4194,2.4268,2.4525,2.5204,2.5852,2.6109,2.7024,2.8287,2.9952,3.1405,0.0,0.0,0.0,0.0,0.0,0.0,0.0,0.0,0.0,0.0,0.0,0.0,0.0,0.0,0.0,0.0,0.0,0.0,0.0,0.0,0.0,3.12,3.12,3.1339,3.1339,3.12,3.1322,3.1477,3.1595,3.138,3.1428,3.1732,3.1523,3.1597,3.1818,3.1519,3.1798,3.2393,3.2206,3.1821,3.1363,3.1259,3.12,3.12,3.12,3.0869,3.0403,3.0183,3.0251,3.0403,3.0166,3.0615,3.12,3.12,3.12,3.12,3.12,3.12,3.0828,2.9348,2.8993,2.8587,2.7038,2.67,2.67,2.67,2.67,2.67,2.67,2.67,2.67,2.67,2.67,2.67,2.67,2.6419,2.5953,2.5269,2.4389,2.3773,2.3606,2.3595,2.3595,2.3595,2.3595,2.3595,2.3595,2.3595,2.3595,2.3595,2.3595,2.3595,2.3595,2.3595,2.3595,2.3595,2.3595,2.3595,2.279,2.3579,2.4194,2.4194,2.4213,2.4415,2.5209,2.6007,2.6827,2.7622,2.8439,2.9094,2.9434,2.9834,0.0,0.0,0.0,0.0,0.0,0.0,0.0,0.0,0.0,0.0,0.0,0.0,0.0,0.0,0.0,0.0,0.0,0.0,0.0,0.0,0.0,0.0,3.12,3.1593,3.1593,3.12,3.1603,3.1584,3.1183,3.0437,3.0116,3.0115,3.0178,3.0205,3.0277,3.1078,3.1636,3.1935,3.1465,3.1503,3.1752,3.1334,3.12,3.12,3.12,3.12,3.1082,3.0352,3.0589,3.1055,3.0335,3.0615,3.12,3.12,3.12,3.12,3.12,3.12,3.0828,2.9348,2.8993,2.8587,2.7038,2.67,2.67,2.67,2.67,2.67,2.67,2.67,2.67,2.67,2.67,2.67,2.67,2.6691,2.6306,2.5316,2.4722,2.4178,2.3649,2.3595,2.3595,2.3595,2.3595,2.3595,2.3595,2.3595,2.3595,2.3595,2.3595,2.3595,2.3595,2.3595,2.3595,2.3595,2.3595,2.3595,2.2933,2.3579,2.4194,2.4194,2.4635,2.5049,2.5052,2.5419,2.6001,2.6852,2.7634,2.8358,2.9024,3.0083,0.0,0.0,0.0,0.0,0.0,0.0,0.0,0.0,0.0,0.0,0.0,0.0,0.0,0.0,0.0,0.0,0.0,0.0,0.0,0.0,0.0,0.0,3.12,3.1312,3.1312,3.12,3.1312,3.1329,3.119,3.097,3.0751,3.0539,3.0835,3.0869,3.0734,3.1205,3.0973,3.035,3.0776,3.0949,3.094,3.0814,3.0959,3.12,3.12,3.12,3.1157,3.0937,3.1021,3.1157,3.0937,3.1021,3.12,3.12,3.12,3.12,3.12,3.12,3.0828,2.9348,2.8993,2.8587,2.7038,2.67,2.67,2.67,2.67,2.67,2.67,2.67,2.67,2.67,2.67,2.67,2.67,2.6078,2.5533,2.524,2.4379,2.3773,2.3606,2.3595,2.3595,2.3595,2.3595,2.3595,2.3595,2.3595,2.3595,2.3595,2.3595,2.3595,2.3595,2.3595,2.3595,2.3595,2.3595,2.3595,2.3396,2.3823,2.4194,2.4194,2.4562,2.4846,2.4503,2.5229,2.6195,2.702,2.7647,2.8285,2.9067,3.0061,0.0,0.0,0.0,0.0,0.0,0.0,0.0,0.0,0.0,0.0,0.0,0.0,0.0,0.0,0.0,0.0,0.0,0.0,0.0,0.0,0.0,0.0,3.12,3.1361,3.1361,3.12,3.1361,3.1351,3.12,3.0903,3.0404,2.9797,3.0028,3.0144,3.0167,3.0369,3.021,2.9902,3.0545,3.0823,3.0888,3.1028,3.1141,3.12,3.12,3.12,3.12,3.12,3.12,3.12,3.12,3.12,3.12,3.12,3.12,3.12,3.12,3.097,3.0473,2.9281,2.8993,2.8587,2.7038,2.67,2.67,2.67,2.67,2.67,2.67,2.67,2.67,2.67,2.67,2.6632,2.6445,2.57,2.5125,2.4894,2.4116,2.3595,2.3595,2.3595,2.3595,2.3595,2.3595,2.3595,2.3595,2.3595,2.3595,2.3595,2.3595,2.3595,2.3595,2.3595,2.3595,2.3595,2.3595,2.3595,2.4006,2.4194,2.4194,2.4194,2.4156,2.4052,2.3862,2.5204,2.671,2.7476,2.7994,2.8511,2.9221,2.9696,0.0,0.0,0.0,0.0,0.0,0.0,0.0,0.0,0.0,0.0,0.0,0.0,0.0,0.0,0.0,0.0,0.0,0.0,0.0,0.0,0.0,0.0,3.12,3.1556,3.1556,0.0,3.1497,3.1426,3.098,3.0378,2.9473,2.8395,2.8368,2.8571,2.8946,2.8969,2.9464,3.0247,3.0602,3.1004,3.1405,3.1664,3.1534,3.1242,3.121,3.12,3.12,3.12,3.12,3.12,3.12,3.12,3.12,3.12,3.12,3.1183,3.1116,3.0598,2.9905,2.9085,2.8882,2.8493,2.7021,2.67,2.67,2.67,2.67,2.6683,2.6615,2.6666,2.67,2.67,2.67,2.6539,2.6067,2.5524,2.4983,2.4461,2.3921,2.3595,2.3595,2.3595,2.3595,2.3595,2.3595,2.3595,2.3595,2.3595,2.3595,2.3595,2.3595,2.3595,2.3595,2.3595,2.3595,2.3595,2.3595,2.3595,2.4153,2.4194,2.4194,2.4194,2.3806,2.3667,2.4596,2.4448,2.4422,2.542,2.6638,2.7677,2.8083,0.0,0.0,0.0,0.0,0.0,0.0,0.0,0.0,0.0,0.0,0.0,0.0,0.0,0.0,0.0,0.0,0.0,0.0,0.0,0.0,0.0,0.0,3.12,3.12,3.1291,3.1291,0.0,3.0704,3.011,2.9501,2.9905,2.9473,2.8396,2.8115,2.8204,2.8552,2.8863,2.9464,3.0216,3.0308,3.0943,3.1812,3.1528,3.1524,3.163,3.132,3.12,3.12,3.12,3.12,3.12,3.12,3.12,3.12,3.12,3.12,3.1072,3.0497,3.0217,2.9743,2.8382,2.8069,2.7816,2.6903,2.67,2.67,2.67,2.67,2.653,2.5947,2.6319,2.67,2.67,2.67,2.6539,2.6067,2.5524,2.4983,2.4461,2.3921,2.3595,2.3595,2.3595,2.3595,2.3595,2.3595,2.3595,2.3595,2.3595,2.3595,2.3595,2.3595,2.3595,2.3595,2.3595,2.3595,2.3595,2.3595,2.3595,2.4194,2.4194,2.4161,2.4001,2.3571,2.3323,2.3848,2.4063,2.4284,2.4675,2.5684,2.6759,2.7647,0.0,0.0,0.0,0.0,0.0,0.0,0.0,0.0,0.0,0.0,0.0,0.0,0.0,0.0,0.0,0.0,0.0,0.0,3.1403,3.12,0.0,3.12,3.12,3.12,3.12,3.12,3.119,3.0446,2.9507,2.8433,2.8467,2.845,2.837,2.8051,2.8088,2.8433,2.8839,2.9464,3.021,3.021,3.0942,3.1945,3.1475,3.1504,3.1743,3.1341,3.12,3.12,3.12,3.12,3.12,3.12,3.0954,3.0666,3.0666,3.0666,3.0497,2.9753,2.9576,2.9262,2.8077,2.7807,2.7604,2.686,2.642,2.6167,2.6167,2.5887,2.5515,2.5143,2.5397,2.5659,2.5659,2.5659,2.5514,2.515,2.4852,2.4507,2.4065,2.3762,2.3595,2.3595,2.3595,2.3595,2.3595,2.3595,2.3595,2.3595,2.3595,2.3595,2.3595,2.3595,2.3595,2.3595,2.3595,2.3595,2.3595,2.3595,2.3595,2.4378,2.4362,2.4208,2.3734,2.3363,2.3027,2.2706,2.3719,2.4687,2.4526,2.5194,2.6159,0.0,0.0,0.0,0.0,0.0,0.0,0.0,0.0,0.0,0.0,0.0,0.0,0.0,0.0,0.0,0.0,0.0,0.0,3.1004,3.1133,3.12,3.12,3.12,3.12,3.12,3.12,3.12,3.12,3.0328,2.9101,2.7587,2.6979,2.7206,2.8083,2.7895,2.7992,2.8349,2.8737,2.9416,3.021,3.0356,3.1108,3.2058,3.1641,3.1686,3.1852,3.137,3.1116,3.1004,3.1004,3.1004,3.1004,3.1004,3.0581,3.0132,3.0251,3.0115,2.977,2.9162,2.8908,2.8595,2.7799,2.7604,2.7444,2.6835,2.6116,2.5601,2.5601,2.4906,2.4355,2.4474,2.4389,2.4355,2.4474,2.4498,2.437,2.3984,2.4023,2.3921,2.3488,2.3546,2.3595,2.3595,2.3595,2.3595,2.3595,2.3595,2.3595,2.3595,2.3595,2.3595,2.3595,2.3595,2.3595,2.3595,2.3595,2.3595,2.3595,2.3595,2.3595,2.5044,2.5035,2.4553,2.3518,2.3015,2.2693,2.2429,2.3008,2.3781,0.0,2.5583,0.0,0.0,0.0,0.0,0.0,0.0,0.0,0.0,0.0,0.0,0.0,0.0,0.0,0.0,0.0,0.0,0.0,0.0,0.0,3.0251,3.0852,3.12,3.12,3.12,3.12,3.12,3.12,3.12,3.1183,2.9796,2.8341,2.6843,2.6742,2.6775,2.6944,2.7261,2.7604,2.7985,2.8336,2.9161,3.0265,3.0968,3.1756,3.2504,3.2382,3.2371,3.229,3.1477,3.0784,3.0251,3.0251,3.0251,3.0251,3.0251,3.0183,3.0234,3.0869,3.0134,2.9128,2.9027,2.8484,2.7765,2.7012,2.6852,2.6826,2.6716,2.6116,2.5601,2.5601,2.4492,2.3755,2.4389,2.3966,2.3755,2.4406,2.4498,2.4185,2.3337,2.3729,2.3758,2.2911,2.3291,2.3595,2.3595,2.3595,2.3595,2.3595,2.3595,2.3595,2.3595,2.3595,2.3595,2.3595,2.3595,2.3595,2.3595,2.3595,2.3595,2.3595,2.3595,2.3595,2.4405,2.4535,2.4355,2.3202,2.2697,2.2436,2.2338,2.319,2.4,2.3898,2.505,0.0,0.0,0.0,0.0,0.0,0.0,0.0,0.0,0.0,0.0,0.0,0.0,0.0,0.0,0.0,0.0,0.0,0.0,2.9651,3.0081,3.0016,3.0151,3.0581,3.0581,3.0395,2.9974,3.0794,3.0794,2.9948,2.8839,2.7757,2.67,2.67,2.67,2.6716,2.7123,2.7522,2.7933,2.827,2.9106,3.0246,3.0595,3.1494,3.2534,3.2023,3.2103,3.2375,3.1496,3.0717,3.0098,3.0098,2.982,2.9482,2.9482,2.9482,2.9448,2.9321,2.9144,2.8807,2.7943,2.7765,2.7604,2.6877,2.67,2.67,2.67,2.5803,2.4737,2.391,2.3233,2.2885,2.3207,2.3004,2.2885,2.3224,2.3274,2.3076,2.2548,2.308,2.328,2.2756,2.3246,2.3595,2.3595,2.3595,2.3595,2.3595,2.3595,2.3595,2.3595,2.3595,2.3595,2.3595,2.3595,2.3595,2.3595,2.3595,2.3595,2.3595,2.3595,2.3595,2.4026,2.4278,2.4376,2.3495,2.3076,2.2868,2.2868,2.3705,2.4338,0.0,0.0,0.0,0.0,0.0,0.0,0.0,0.0,0.0,0.0,0.0,0.0,0.0,0.0,0.0,0.0,0.0,0.0,0.0,0.0,2.8941,2.949,2.9187,2.9254,2.9803,2.982,2.9559,2.901,3.0083,2.9982,2.8696,2.8086,2.741,2.67,2.67,2.6793,2.6996,2.7088,2.7388,2.7765,2.8136,2.8852,2.9783,3.0308,3.1103,3.1967,3.1694,3.175,3.1829,3.1145,3.0301,2.9523,2.9523,2.9144,2.8696,2.8696,2.8696,2.8602,2.8221,2.8247,2.8188,2.7232,2.7241,2.7376,2.6835,2.67,2.6598,2.6226,2.5286,2.4068,2.2591,2.2296,2.2296,2.2296,2.2296,2.2296,2.2296,2.2202,2.2091,2.2001,2.2486,2.2792,2.2706,2.3246,2.3595,2.3595,2.3595,2.3595,2.3595,2.3595,2.3595,2.3595,2.3595,2.3595,2.3595,2.3595,2.3595,2.3595,2.3595,2.3595,2.3595,2.3595,2.3595,2.468,2.4899,2.5035,2.4916,2.4626,2.4389,2.4389,0.0,2.4498,2.4448,0.0,0.0,0.0,0.0,0.0,0.0,0.0,0.0,0.0,0.0,0.0,0.0,0.0,0.0,0.0,0.0,0.0,0.0,0.0,2.7874,2.7925,2.8602,2.9027,2.9061,2.9061,2.9044,2.8993,2.9077,2.8696,2.7858,2.7824,2.741,2.67,2.67,2.708,2.7705,2.7038,2.6963,2.7355,2.7751,2.814,2.867,3.0594,3.0913,3.0503,3.1926,3.1528,3.0296,3.0195,2.9176,2.7925,2.7925,2.7891,2.7858,2.7858,2.7858,2.801,2.873,2.7901,2.6962,2.757,2.7241,2.675,2.6716,2.67,2.631,2.4914,2.4541,2.4068,2.2591,2.2296,2.2296,2.2296,2.2296,2.2296,2.2296,2.1921,2.1722,2.1967,2.2202,2.243,2.2664,2.3246,2.3595,2.3595,2.3595,2.3595,2.3595,2.3595,2.3595,2.3595,2.3595,2.3595,2.3595,2.3595,2.3595,2.3595,2.3595,2.3595,2.3595,2.3595,2.3595,2.4259,2.465,2.5027,2.4753,2.4598,2.4498,2.4498,2.488,2.494,2.3992,0.0,0.0,0.0,0.0,0.0,0.0,0.0,0.0,0.0,0.0,0.0,0.0,0.0,0.0,0.0,0.0,0.0,0.0,0.0,0.0,2.7773,2.7621,2.7749,2.8205,2.8221,2.8484,2.8993,2.8019,2.7621,2.7781,2.7325,2.6962,2.6716,2.719,2.7553,2.779,2.7519,2.7623,2.8004,2.7925,2.8095,2.8554,3.0045,3.0307,2.9913,3.0726,3.051,2.9765,2.9482,2.8695,2.7807,2.7807,2.7486,2.7097,2.7097,2.7427,2.7756,2.7579,2.7469,2.7359,2.7156,2.6894,2.67,2.67,2.67,2.6293,2.4812,2.4135,2.3772,2.3722,2.2953,2.2455,2.2919,2.2608,2.2296,2.2296,2.2269,2.2035,2.1423,2.2285,2.2707,2.2114,2.2977,2.3595,2.3595,2.3595,2.3595,2.3595,2.3595,2.3595,2.3595,2.3595,2.3595,2.3595,2.3595,2.3595,2.3595,2.3595,2.3595,2.3595,2.3595,2.3595,2.3852,2.4385,2.4824,2.4567,2.4863,2.5168,2.4923,2.5253,2.5245,2.4026,0.0,0.0,0.0,0.0,0.0,0.0,0.0,0.0,0.0,0.0,0.0,0.0,0.0,0.0,0.0,0.0,0.0,0.0,0.0,0.0,2.7401,2.6962,2.6911,2.7427,2.7435,2.7689,2.8231,2.7207,2.6945,2.7427,2.6928,2.6835,2.708,2.7325,2.7841,2.8534,2.8018,2.7955,2.8174,2.7839,2.7915,2.8335,2.9421,2.9567,2.9258,2.9809,2.9495,2.8812,2.8645,2.8095,2.7435,2.7435,2.6919,2.6336,2.6336,2.6666,2.6962,2.6471,2.6852,2.7325,2.6835,2.67,2.67,2.67,2.6505,2.6065,2.5075,2.428,2.3772,2.3755,2.297,2.2455,2.2953,2.2624,2.2381,2.2624,2.2512,2.2313,2.2063,2.2655,2.2828,2.2119,2.2966,2.352,2.3321,2.3475,2.3595,2.3595,2.3595,2.3595,2.3595,2.3411,2.3385,2.3595,2.3396,2.3396,2.3595,2.3595,2.3595,2.3595,2.3595,2.3595,0.0,0.0,0.0,2.4525,2.5634,2.6505,2.5803,2.5651,2.5456,0.0,0.0,0.0,0.0,0.0,0.0,0.0,0.0,0.0,0.0,0.0,0.0,0.0,0.0,0.0,0.0,0.0,0.0,0.0,0.0,2.67,2.67,2.67,2.67,2.67,2.67,2.67,2.67,2.67,2.67,2.67,2.67,2.7072,2.7739,2.7046,2.7943,2.9946,2.8449,2.7807,2.7774,2.7467,2.754,2.7961,2.8755,2.8776,2.8452,2.9228,2.8584,2.7329,2.7641,2.7275,2.6666,2.6666,2.6184,2.5601,2.5634,2.5634,2.5634,2.5634,2.615,2.67,2.67,2.67,2.67,2.67,2.615,2.5634,2.5601,2.5024,2.4085,2.2641,2.233,2.2303,2.233,2.2323,2.2552,2.3277,2.2613,2.2521,2.3868,2.3271,2.2718,2.2703,2.3246,2.3366,2.2778,2.3261,2.3595,2.3565,2.3565,2.3565,2.3535,2.2987,2.2957,2.3565,2.2992,2.3002,2.3595,2.3595,2.3595,2.3595,2.3595,2.3584,2.332,0.0,0.0,0.0,0.0,0.0,2.6437,2.6818,2.6826,0.0,0.0,0.0,0.0,0.0,0.0,0.0,0.0,0.0,0.0,0.0,0.0,0.0,0.0,0.0,0.0,0.0,0.0,0.0,2.67,2.67,2.67,2.67,2.67,2.67,2.67,2.67,2.67,2.67,2.67,2.67,2.67,2.681,2.7012,2.7342,2.7841,2.8415,2.7993,2.7807,2.7825,2.801,2.7853,2.7527,2.8034,2.7963,2.7632,2.7848,2.7484,2.679,2.6352,2.6074,2.5905,2.5905,2.577,2.5702,2.6234,2.6395,2.6395,2.6395,2.6547,2.67,2.67,2.67,2.67,2.67,2.6547,2.6251,2.5719,2.5024,2.438,2.3966,2.3038,2.2472,2.3004,2.2774,2.2586,2.2792,2.2893,2.2907,2.2817,2.3117,2.3186,2.2748,2.3246,2.3535,2.3366,2.349,2.3411,2.2987,2.2957,2.2722,2.2248,2.2064,2.2273,2.2942,2.2793,2.3002,2.3595,2.3595,2.3595,2.3595,2.3595,2.3366,2.2827,2.3485,2.4145,2.4577,0.0,0.0,2.5854,2.6353,2.6455,0.0,0.0,0.0,0.0,0.0,0.0,0.0,0.0,0.0,0.0,0.0,0.0,0.0,0.0,0.0,0.0,0.0,0.0,2.6234,2.5955,2.5921,2.6218,2.6522,2.67,2.67,2.67,2.67,2.67,2.67,2.67,2.67,2.67,2.686,2.7165,2.7291,2.7697,2.8272,2.7942,2.7807,2.7824,2.8049,2.7811,2.7311,2.7363,2.7355,2.7288,2.7107,2.6719,2.6184,2.5753,2.5406,2.5135,2.5135,2.5135,2.5227,2.565,2.6006,2.6234,2.6234,2.6454,2.67,2.67,2.67,2.67,2.67,2.67,2.6496,2.5753,2.5024,2.4498,2.4498,2.3569,2.2987,2.3722,2.3406,2.317,2.3465,2.338,2.3269,2.3194,2.3198,2.3082,2.2733,2.3007,2.3112,2.2832,2.3056,2.2962,2.2318,2.2273,2.2109,2.1719,2.144,2.1605,2.2273,2.2004,2.2308,2.3231,2.3486,2.3595,2.3584,2.3345,2.3179,2.2296,2.2835,2.3417,0.0,2.4509,0.0,2.4863,2.5253,2.5347,0.0,0.0,0.0,0.0,0.0,0.0,0.0,0.0,0.0,0.0,0.0,0.0,0.0,0.0,0.0,0.0,2.5668,2.5719,2.5719,2.5041,2.494,2.5685,2.6268,2.6615,2.67,2.67,2.67,2.67,2.67,2.67,2.67,2.67,2.7046,2.7655,2.6996,2.7444,2.8696,2.7985,2.7672,2.7672,2.7672,2.7495,2.7202,2.6832,2.6871,2.7073,2.6705,2.6116,2.5465,2.5381,2.494,2.4389,2.4474,2.4498,2.4525,2.4694,2.5211,2.5719,2.5719,2.6184,2.67,2.67,2.67,2.67,2.67,2.67,2.653,2.5854,2.5143,2.4643,2.4728,2.4017,2.3637,2.4372,2.4081,2.3973,2.4612,2.392,2.3579,2.4235,2.3375,2.2703,2.2703,2.2703,2.2433,2.1754,2.2303,2.2378,2.1635,2.159,2.157,2.148,2.0917,2.0907,2.1575,2.1146,2.1515,2.2703,2.3306,2.3595,2.3599,2.2976,2.2942,0.0,0.0,0.0,0.0,0.0,0.0,2.6023,2.6378,2.6395,0.0,0.0,0.0,0.0,0.0,0.0,0.0,0.0,0.0,0.0,0.0,0.0,0.0,0.0,0.0,0.0,2.6133,2.6496,2.6496,2.5795,2.571,2.6446,2.6065,2.6099,2.6683,2.67,2.67,2.67,2.67,2.67,2.67,2.67,2.6784,2.6911,2.6767,2.6869,2.7139,2.6979,2.6911,2.6911,2.6911,2.6885,2.6799,2.6733,2.6394,2.5925,2.5836,2.5355,2.4626,2.4043,2.3739,2.3705,2.4312,2.4498,2.4711,2.5912,2.6378,2.6496,2.6496,2.6598,2.67,2.67,2.67,2.67,2.67,2.67,2.6666,2.653,2.5913,2.5558,2.6158,2.472,2.3637,2.4372,2.4222,2.4065,2.4209,2.3837,2.3595,2.3752,2.314,2.2703,2.2703,2.2703,2.2433,2.1754,2.2303,2.2183,2.0967,2.0907,2.0653,2.0103,1.9953,2.0213,2.0877,2.1824,2.2448,2.2703,2.3306,2.3595,2.3599,2.2976,2.246,0.0,0.0,0.0,2.3772,0.0,0.0,0.0,2.5887,2.5947,2.5211,2.5642,0.0,0.0,0.0,0.0,0.0,0.0,0.0,0.0,0.0,0.0,0.0,0.0,0.0,0.0,2.593,2.6006,2.5634,2.593,2.615,2.615,2.615,2.6319,2.6683,2.67,2.67,2.67,2.67,2.67,2.67,2.67,2.67,2.67,2.67,2.67,2.67,2.67,2.67,2.67,2.67,2.67,2.67,2.67,2.6471,2.6099,2.5744,2.5118,2.4389,2.3654,2.3156,2.297,2.3705,2.4203,2.4711,2.5812,2.6404,2.67,2.67,2.67,2.67,2.67,2.67,2.67,2.67,2.67,2.67,2.67,2.6116,2.582,2.6564,2.5507,2.4729,2.5464,2.5066,2.4652,2.4652,2.4056,2.3595,2.3595,2.2782,2.2328,2.2658,2.2094,2.156,2.1231,2.1515,2.1261,2.0258,2.0198,2.0049,1.9708,1.9708,1.9863,2.0198,2.1196,2.1869,2.2198,2.2842,2.3306,2.3573,2.2643,2.2193,0.0,0.0,0.0,0.0,0.0,2.4406,0.0,0.0,0.0,2.4255,0.0,0.0,0.0,0.0,0.0,0.0,0.0,0.0,0.0,0.0,0.0,0.0,0.0,0.0,0.0,2.6159,2.592,2.5106,2.6207,2.6623,2.5967,2.6276,2.6539,2.67,2.67,2.67,2.67,2.67,2.67,2.67,2.67,2.67,2.67,2.67,2.67,2.67,2.67,2.67,2.6683,2.6539,2.6581,2.67,2.67,2.653,2.6209,2.5609,2.4831,2.4,2.3393,2.2801,2.2415,2.3156,2.4,2.4846,2.5592,2.6234,2.67,2.67,2.67,2.67,2.67,2.67,2.6666,2.653,2.6598,2.6666,2.653,2.6133,2.5998,2.6573,2.6218,2.5998,2.6598,2.5864,2.524,2.5335,2.4348,2.3593,2.3565,2.2469,2.1869,2.2273,2.135,2.0653,2.0518,2.0623,2.0413,1.9744,1.9708,1.9708,1.9708,1.9708,1.9708,1.9708,2.0363,2.1027,2.1695,2.2363,2.3007,2.3573,2.2294,2.1981,0.0,0.0,0.0,0.0,2.3949,0.0,0.0,0.0,2.5744,2.6218,0.0,0.0,0.0,0.0,0.0,0.0,0.0,0.0,0.0,0.0,0.0,0.0,0.0,0.0,0.0,0.0,2.8151,2.7062,2.741,2.7513,2.7131,2.6225,2.6031,2.6683,2.67,2.67,2.67,2.67,2.67,2.67,2.67,2.67,2.67,2.67,2.67,2.67,2.67,2.67,2.6649,2.5989,2.6116,2.67,2.67,2.5904,2.4745,2.466,2.3739,2.254,2.2455,2.2364,2.2415,2.3156,2.434,2.5601,2.6353,2.6632,2.67,2.67,2.67,2.67,2.67,2.67,2.6547,2.5879,2.6218,2.653,2.5871,2.6167,2.659,2.6683,2.6632,2.659,2.6683,2.5864,2.5354,2.5843,2.4592,2.3551,2.3439,2.2409,2.15,2.0982,2.0787,2.0458,1.9863,2.0363,2.0413,1.9744,1.9708,1.9708,1.9708,1.9708,1.9708,1.9708,2.0363,2.1027,2.1695,2.2363,2.3007,2.3573,2.2294,2.1732,0.0,0.0,0.0,0.0,0.0,0.0,2.5744,0.0,2.6201,0.0,0.0,0.0,0.0,0.0,0.0,0.0,2.7258,0.0,0.0,0.0,0.0,0.0,0.0,0.0,0.0,0.0,0.0,0.0,0.0,2.7555,2.6981,2.6503,2.6387,2.6683,2.67,2.67,2.67,2.67,2.67,2.6691,2.6268,2.6065,2.6065,2.6065,2.6065,2.6082,2.6505,2.6454,2.6048,2.5736,2.5787,2.6065,2.6065,2.593,2.5718,2.5295,2.4746,2.4146,2.3739,2.3586,2.3705,2.4441,2.5389,2.6302,2.6615,2.67,2.67,2.67,2.67,2.67,2.67,2.67,2.6623,2.6302,2.6471,2.6615,2.631,2.6471,2.67,2.67,2.647,2.6297,2.6297,2.5698,2.5173,2.507,2.4225,2.3576,2.3516,2.2445,2.159,2.1321,2.0587,2.0013,1.9714,1.9953,1.9998,1.9714,1.9708,1.9708,1.9708,2.0064,2.0094,1.9708,2.0363,2.1027,2.1695,2.1989,2.2633,2.3573,2.2294,2.1508,2.2528,0.0,0.0,0.0,0.0,0.0,0.0,0.0,0.0,0.0,0.0,0.0,0.0,0.0,0.0,2.6454,0.0,2.7545,0.0,0.0,0.0,0.0,0.0,0.0,0.0,0.0,0.0,0.0,2.7953,2.797,2.6925,2.6766,2.67,2.67,2.67,2.67,2.67,2.6496,2.6404,2.6387,2.5642,2.5304,2.5304,2.5304,2.5304,2.5321,2.587,2.5786,2.5287,2.5076,2.5118,2.5287,2.5076,2.5575,2.6336,2.5803,2.5465,2.522,2.4694,2.4498,2.4626,2.5372,2.5956,2.6437,2.6649,2.67,2.67,2.67,2.67,2.67,2.67,2.67,2.6649,2.6446,2.6539,2.6649,2.6437,2.6564,2.67,2.67,2.6419,2.6095,2.5834,2.5335,2.4894,2.4662,2.4032,2.3599,2.3553,2.247,2.162,2.1455,2.0387,1.9708,1.9708,1.9708,1.9708,1.9708,1.9878,1.9893,1.9708,2.0168,2.0279,1.9983,2.0273,2.0946,2.1974,2.1794,2.2271,2.3334,2.2213,2.146,0.0,0.0,0.0,2.4101,0.0,0.0,0.0,0.0,2.5837,0.0,0.0,0.0,0.0,0.0,2.4821,2.5516,2.5651,0.0,0.0,0.0,0.0,0.0,0.0,0.0,0.0,0.0,0.0,2.8487,2.9387,2.9223,2.7385,2.6914,2.67,2.67,2.67,2.67,2.67,2.5998,2.5634,2.5634,2.4889,2.4549,2.4549,2.4549,2.4549,2.4549,2.4558,2.4566,2.4474,2.3755,2.3891,2.4457,2.3755,2.4357,2.5634,2.5601,2.516,2.4525,2.4508,2.4498,2.4626,2.5372,2.5617,2.577,2.6471,2.67,2.67,2.67,2.67,2.67,2.67,2.67,2.653,2.5812,2.6184,2.6496,2.5787,2.6201,2.67,2.67,2.6683,2.6367,2.5392,2.4782,2.4602,2.5105,2.4277,2.3557,2.3422,2.2408,2.1455,2.0802,2.0109,1.9708,1.9708,1.9708,1.9708,1.9708,2.0318,2.0378,1.9738,1.9714,2.0028,2.0668,2.0049,2.0711,2.2658,2.2019,2.2049,2.2706,2.2016,2.1685,0.0,0.0,2.2811,2.3845,0.0,0.0,0.0,0.0,0.0,0.0,0.0,0.0,0.0,0.0,2.5887,2.5634,2.6015,2.6666,0.0,0.0,0.0,0.0,0.0,0.0,0.0,0.0,0.0,2.8015,2.7903,2.7572,0.0,2.6766,2.67,2.67,2.6234,2.5981,2.5981,2.5244,2.4872,2.4855,2.4128,2.3772,2.3772,2.3772,2.3772,2.3806,2.4288,2.422,2.3755,2.3494,2.3552,2.3755,2.3502,2.4306,2.5601,2.5601,2.5744,2.5955,2.5955,2.5955,2.6006,2.6251,2.6336,2.637,2.6623,2.67,2.67,2.67,2.67,2.67,2.67,2.67,2.6649,2.6387,2.653,2.6632,2.6387,2.653,2.67,2.67,2.6445,2.6024,2.5326,2.4762,2.4338,2.4178,2.3837,2.358,2.3545,2.2851,2.2094,2.144,2.1156,2.0657,1.9783,2.0109,2.0354,2.0354,2.0569,2.0399,1.9738,2.0133,2.0473,2.0703,2.0917,2.157,2.2703,2.2478,2.2688,2.3275,2.2643,2.1915,2.338,2.3135,0.0,2.3731,2.4093,0.0,2.5396,0.0,0.0,0.0,0.0,0.0,0.0,0.0,2.5464,2.5236,2.5828,2.6573,0.0,2.8078,0.0,0.0,0.0,0.0,0.0,0.0,2.7774,2.7427,2.7469,2.7275,0.0,0.0,2.67,2.67,2.5973,2.5601,2.5601,2.4601,2.4118,2.4101,2.3359,2.3004,2.3004,2.3004,2.3004,2.3038,2.3519,2.3451,2.3004,2.3004,2.3004,2.3004,2.3004,2.39,2.5236,2.5499,2.6065,2.67,2.67,2.67,2.67,2.67,2.67,2.67,2.67,2.67,2.675,2.7012,2.6894,2.6767,2.7021,2.6894,2.67,2.67,2.67,2.67,2.67,2.67,2.67,2.67,2.6453,2.6033,2.5326,2.4904,2.444,2.3713,2.3595,2.3595,2.3595,2.3067,2.2538,2.2094,2.1839,2.1345,2.0477,2.1021,2.1206,2.0728,2.0922,2.0647,1.9738,2.0109,2.0677,2.1395,2.1136,2.1779,2.337,2.2677,2.2663,2.3279,2.2875,2.2023]}]]